Darstellungsparameter: Aktuell verwendete Einstellungen:
Skalierung der Graphiken ... ?
xyx+y,   Skalierungsfaktor:      Skalierung: Modus: x, Faktor: 1
Darstellungszeitraum ... ?
Vom - - bis: - -   Zeitraum: 02.11.2019 - 01.05.2020
Min/Max/Avg-Anzeige ... ?
Zeige MMA aktuell
Zeige MMA Monat
Zeige MMA alles
Zeige --A aktuell
Zeige --A Monat
Zeige --A alles
Keine MMA-Anzeige
MMA:
Average (ber die Originaldaten)
MMA-Basis: 02.11.2019 - 01.05.2020
Quicknavigation für Darstellung... ?
Tage:      1T, 2T, 3T, 5T -1T -2T -3T -5T +1T +2T +3T +5T
Wochen: 1W, 2W, 3W -1W -2W -3W +1W +2W +3W
Monate: 1M, 3M, 6M -1M -3M -6M +1M +3M +6M
Jahre:    1J, 3J, 5J, 10J -1J -3J -5J -10J +1J +3J +5J +10J
Nutze für die Darstellung ... ?
Originaldaten oder Mittelwerte auf ...
Stundenbasis Tagesbasis Wochenbasis
Monatsbasis Jahresbasis      Datenbasis: Original-Daten
Darstellen als:
Statistik (Auto) Statistik J:M      Darstellung:
Zur Graphik,    zurück zur Übersicht aller Sensoren.
 
Tabellarische Datenbersicht: ?
 
Sensor: Nr:Datum:Temp:Feuchte:
Aussen-T/F 1 02-11-2019 00:08:17 10.4 C 37 %
2 02-11-2019 00:18:17 10.7 C 37 %
3 02-11-2019 00:28:17 10.8 C 37 %
4 02-11-2019 00:38:17 10.8 C 37 %
5 02-11-2019 00:48:17 10.8 C 37 %
6 02-11-2019 00:58:17 11 C 36 %
7 02-11-2019 01:08:17 11.3 C 36 %
8 02-11-2019 01:18:17 11.4 C 36 %
9 02-11-2019 01:28:17 11.4 C 36 %
10 02-11-2019 01:38:17 11.4 C 36 %
11 02-11-2019 01:48:17 11.4 C 36 %
12 02-11-2019 01:58:17 11.3 C 36 %
13 02-11-2019 02:08:17 11.4 C 36 %
14 02-11-2019 02:18:17 11.3 C 36 %
15 02-11-2019 02:28:17 11.3 C 36 %
16 02-11-2019 02:38:17 11.3 C 36 %
17 02-11-2019 02:48:17 11.6 C 36 %
18 02-11-2019 02:58:17 11.6 C 36 %
19 02-11-2019 03:08:17 11.3 C 36 %
20 02-11-2019 03:18:17 11.7 C 36 %
21 02-11-2019 03:28:17 12 C 36 %
22 02-11-2019 03:38:17 11.6 C 36 %
23 02-11-2019 03:48:17 11.4 C 35 %
24 02-11-2019 03:58:17 11.3 C 35 %
25 02-11-2019 04:08:17 11.5 C 35 %
Sensor: Nr:Datum:Temp:Feuchte:
Aussen-T/F 26 02-11-2019 04:18:17 11.3 C 36 %
27 02-11-2019 04:28:17 11.6 C 36 %
28 02-11-2019 04:38:17 11.7 C 36 %
29 02-11-2019 04:48:17 11.5 C 36 %
30 02-11-2019 04:58:17 12 C 36 %
31 02-11-2019 05:08:17 11.9 C 36 %
32 02-11-2019 05:18:17 12 C 36 %
33 02-11-2019 05:28:17 12.1 C 36 %
34 02-11-2019 05:38:17 12.1 C 36 %
35 02-11-2019 05:48:17 12.1 C 36 %
36 02-11-2019 05:58:17 12.1 C 36 %
37 02-11-2019 06:08:18 12.3 C 36 %
38 02-11-2019 06:18:17 12.4 C 36 %
39 02-11-2019 06:28:17 12.5 C 36 %
40 02-11-2019 06:38:17 12.8 C 38 %
41 02-11-2019 06:48:17 13.4 C 36 %
42 02-11-2019 06:58:17 13.1 C 34 %
43 02-11-2019 07:08:17 12.8 C 34 %
44 02-11-2019 07:18:17 12.8 C 34 %
45 02-11-2019 07:28:17 12.8 C 34 %
46 02-11-2019 07:38:18 13 C 34 %
47 02-11-2019 07:48:17 13.1 C 34 %
48 02-11-2019 07:58:17 13.2 C 34 %
49 02-11-2019 08:08:17 13.2 C 33 %
50 02-11-2019 08:18:17 13.2 C 33 %
Sensor: Nr:Datum:Temp:Feuchte:
Aussen-T/F 51 02-11-2019 08:28:17 13.4 C 34 %
52 02-11-2019 08:38:17 13.4 C 34 %
53 02-11-2019 08:48:18 13.4 C 33 %
54 02-11-2019 08:58:18 13.6 C 33 %
55 02-11-2019 09:08:17 14.1 C 32 %
56 02-11-2019 09:18:17 14.2 C 31 %
57 02-11-2019 09:28:17 14.7 C 25 %
58 02-11-2019 09:38:17 15 C 21 %
59 02-11-2019 09:48:18 15.6 C 20 %
60 02-11-2019 09:58:18 15 C 20 %
61 02-11-2019 10:08:17 15 C 21 %
62 02-11-2019 10:18:17 15 C 21 %
63 02-11-2019 10:28:17 15 C 21 %
64 02-11-2019 10:38:17 14.3 C 25 %
65 02-11-2019 10:48:17 15.1 C 21 %
66 02-11-2019 10:58:17 15.6 C 20 %
67 02-11-2019 11:08:17 15.7 C 20 %
68 02-11-2019 11:18:17 15.7 C 20 %
69 02-11-2019 11:28:17 16 C 20 %
70 02-11-2019 11:38:17 16.2 C 20 %
71 02-11-2019 11:48:17 16.2 C 20 %
72 02-11-2019 11:58:17 16.3 C 20 %
73 02-11-2019 12:08:17 16.5 C 20 %
74 02-11-2019 12:18:17 16.6 C 20 %
75 02-11-2019 12:28:17 16.3 C 20 %
Sensor: Nr:Datum:Temp:Feuchte:
Aussen-T/F 76 02-11-2019 12:38:17 16.4 C 20 %
77 02-11-2019 12:48:17 16.6 C 20 %
78 02-11-2019 12:58:17 16.6 C 20 %
79 02-11-2019 13:08:17 16.2 C 20 %
80 02-11-2019 13:18:17 16.6 C 20 %
81 02-11-2019 13:28:17 16.4 C 20 %
82 02-11-2019 13:38:17 16.2 C 20 %
83 02-11-2019 13:48:18 16.1 C 20 %
84 02-11-2019 13:58:18 16.1 C 20 %
85 02-11-2019 14:08:17 16.2 C 20 %
86 02-11-2019 14:18:17 16.6 C 20 %
87 02-11-2019 14:28:17 16.4 C 20 %
88 02-11-2019 14:38:17 16.1 C 20 %
89 02-11-2019 14:48:18 16.1 C 20 %
90 02-11-2019 14:58:18 15.6 C 20 %
91 02-11-2019 15:08:17 15.3 C 20 %
92 02-11-2019 15:18:17 15 C 20 %
93 02-11-2019 15:28:17 14.8 C 20 %
94 02-11-2019 15:38:17 14.5 C 20 %
95 02-11-2019 15:48:17 14.5 C 20 %
96 02-11-2019 15:58:17 14.5 C 20 %
97 02-11-2019 16:08:17 14.3 C 20 %
98 02-11-2019 16:18:17 14.4 C 20 %
99 02-11-2019 16:28:17 14.5 C 20 %
100 02-11-2019 16:38:17 14.3 C 20 %
Sensor: Nr:Datum:Temp:Feuchte:
Aussen-T/F 101 02-11-2019 16:48:17 14.7 C 20 %
102 02-11-2019 16:58:17 14.3 C 20 %
103 02-11-2019 17:08:17 14.6 C 20 %
104 02-11-2019 17:18:17 14.1 C 20 %
105 02-11-2019 17:28:17 12.2 C 20 %
106 02-11-2019 17:38:17 11.7 C 27 %
107 02-11-2019 17:48:17 11.6 C 25 %
108 02-11-2019 17:58:18 11.5 C 25 %
109 02-11-2019 18:08:17 11.3 C 26 %
110 02-11-2019 18:18:17 11 C 27 %
111 02-11-2019 18:28:17 10.7 C 28 %
112 02-11-2019 18:38:17 10.7 C 30 %
113 02-11-2019 18:48:17 10.7 C 30 %
114 02-11-2019 18:58:17 10.7 C 30 %
115 02-11-2019 19:08:17 10.6 C 30 %
116 02-11-2019 19:18:17 10.8 C 30 %
117 02-11-2019 19:28:17 11 C 29 %
118 02-11-2019 19:38:17 11 C 26 %
119 02-11-2019 19:48:17 10.7 C 28 %
120 02-11-2019 19:58:17 10.7 C 30 %
121 02-11-2019 20:08:18 10.5 C 29 %
122 02-11-2019 20:18:17 10.7 C 27 %
123 02-11-2019 20:28:17 10.7 C 27 %
124 02-11-2019 20:38:17 10.8 C 26 %
125 02-11-2019 20:48:17 11.1 C 25 %
Sensor: Nr:Datum:Temp:Feuchte:
Aussen-T/F 126 02-11-2019 20:58:17 10.6 C 26 %
127 02-11-2019 21:08:18 10.7 C 25 %
128 02-11-2019 21:18:18 10.7 C 23 %
129 02-11-2019 21:28:18 10.5 C 23 %
130 02-11-2019 21:38:17 10.4 C 22 %
131 02-11-2019 21:48:17 10.5 C 23 %
132 02-11-2019 21:58:17 10.2 C 25 %
133 02-11-2019 22:08:17 10.2 C 25 %
134 02-11-2019 22:18:17 10.5 C 22 %
135 02-11-2019 22:28:17 10.4 C 22 %
136 02-11-2019 22:38:17 10.1 C 25 %
137 02-11-2019 22:48:18 10.1 C 23 %
138 02-11-2019 22:58:18 9.8 C 26 %
139 02-11-2019 23:08:17 9.6 C 27 %
140 02-11-2019 23:18:17 9.6 C 27 %
141 02-11-2019 23:28:17 9.8 C 26 %
142 02-11-2019 23:38:17 10.6 C 20 %
143 02-11-2019 23:48:17 10.9 C 20 %
144 02-11-2019 23:58:17 10.2 C 20 %
145 03-11-2019 00:08:17 9.8 C 21 %
146 03-11-2019 00:18:18 9.6 C 25 %
147 03-11-2019 00:28:18 9.6 C 25 %
148 03-11-2019 00:38:17 9.2 C 26 %
149 03-11-2019 00:48:17 9.3 C 26 %
150 03-11-2019 00:58:17 9.3 C 26 %
Sensor: Nr:Datum:Temp:Feuchte:
Aussen-T/F 151 03-11-2019 01:08:17 9.7 C 26 %
152 03-11-2019 01:18:17 9.8 C 25 %
153 03-11-2019 01:28:17 9.9 C 25 %
154 03-11-2019 01:38:17 10 C 25 %
155 03-11-2019 01:48:17 9.7 C 26 %
156 03-11-2019 01:58:17 9.7 C 26 %
157 03-11-2019 02:08:17 9.3 C 27 %
158 03-11-2019 02:18:17 9.3 C 27 %
159 03-11-2019 02:28:17 8.9 C 30 %
160 03-11-2019 02:38:17 9 C 30 %
161 03-11-2019 02:48:17 9.2 C 30 %
162 03-11-2019 02:58:17 9.2 C 30 %
163 03-11-2019 03:08:17 9 C 33 %
164 03-11-2019 03:18:17 9.2 C 31 %
165 03-11-2019 03:28:17 9.2 C 31 %
166 03-11-2019 03:38:17 9.1 C 33 %
167 03-11-2019 03:48:18 9.2 C 35 %
168 03-11-2019 03:58:18 9.3 C 34 %
169 03-11-2019 04:08:17 9.5 C 32 %
170 03-11-2019 04:18:17 9.5 C 33 %
171 03-11-2019 04:28:17 9.4 C 35 %
172 03-11-2019 04:38:17 9.4 C 36 %
173 03-11-2019 04:48:17 9.3 C 36 %
174 03-11-2019 04:58:17 9.3 C 36 %
175 03-11-2019 05:08:18 9.4 C 37 %
Sensor: Nr:Datum:Temp:Feuchte:
Aussen-T/F 176 03-11-2019 05:18:17 9.4 C 36 %
177 03-11-2019 05:28:17 9.4 C 36 %
178 03-11-2019 05:38:17 9.4 C 37 %
179 03-11-2019 05:48:18 9.4 C 37 %
180 03-11-2019 05:58:18 9.5 C 37 %
181 03-11-2019 06:08:17 9.5 C 37 %
182 03-11-2019 06:18:17 9.6 C 37 %
183 03-11-2019 06:28:17 9.7 C 36 %
184 03-11-2019 06:38:17 9.7 C 36 %
185 03-11-2019 06:48:17 9.6 C 36 %
186 03-11-2019 06:58:18 9.7 C 36 %
187 03-11-2019 07:08:17 9.7 C 36 %
188 03-11-2019 07:18:17 9.6 C 36 %
189 03-11-2019 07:28:17 9.5 C 38 %
190 03-11-2019 07:38:17 9.6 C 38 %
191 03-11-2019 07:48:17 9.4 C 37 %
192 03-11-2019 07:58:17 9.3 C 37 %
193 03-11-2019 08:08:17 9.6 C 38 %
194 03-11-2019 08:18:17 9.8 C 38 %
195 03-11-2019 08:28:17 9.9 C 38 %
196 03-11-2019 08:38:17 9.9 C 38 %
197 03-11-2019 08:48:17 10.1 C 37 %
198 03-11-2019 08:58:17 10.4 C 37 %
199 03-11-2019 09:08:17 10.6 C 37 %
200 03-11-2019 09:18:17 10.7 C 37 %
Sensor: Nr:Datum:Temp:Feuchte:
Aussen-T/F 201 03-11-2019 09:28:17 10.8 C 36 %
202 03-11-2019 09:38:17 10.8 C 36 %
203 03-11-2019 09:48:17 11.4 C 34 %
204 03-11-2019 09:58:17 11.8 C 30 %
205 03-11-2019 10:08:17 12.1 C 26 %
206 03-11-2019 10:18:17 12.1 C 26 %
207 03-11-2019 10:28:17 12.4 C 26 %
208 03-11-2019 10:38:18 12.3 C 26 %
209 03-11-2019 10:48:17 12.5 C 25 %
210 03-11-2019 10:58:17 12.6 C 25 %
211 03-11-2019 11:08:17 13.2 C 21 %
212 03-11-2019 11:18:17 14 C 20 %
213 03-11-2019 11:28:17 14 C 20 %
214 03-11-2019 11:38:17 14.3 C 20 %
215 03-11-2019 11:48:17 14.2 C 20 %
216 03-11-2019 11:58:17 14.9 C 20 %
217 03-11-2019 12:08:17 15 C 20 %
218 03-11-2019 12:18:17 15.2 C 20 %
219 03-11-2019 12:28:17 15.4 C 20 %
220 03-11-2019 12:38:17 15.5 C 20 %
221 03-11-2019 12:48:17 16.8 C 20 %
222 03-11-2019 12:58:17 15.8 C 20 %
223 03-11-2019 13:08:17 16.3 C 20 %
224 03-11-2019 13:18:17 16.4 C 20 %
225 03-11-2019 13:28:17 15.6 C 20 %
Sensor: Nr:Datum:Temp:Feuchte:
Aussen-T/F 226 03-11-2019 13:38:17 16 C 20 %
227 03-11-2019 13:48:17 16.4 C 20 %
228 03-11-2019 13:58:17 16.5 C 20 %
229 03-11-2019 14:08:17 16.8 C 20 %
230 03-11-2019 14:18:17 15.8 C 20 %
231 03-11-2019 14:28:17 15.9 C 20 %
232 03-11-2019 14:38:17 15.8 C 20 %
233 03-11-2019 14:48:17 16 C 20 %
234 03-11-2019 14:58:17 15.9 C 20 %
235 03-11-2019 15:08:17 15.6 C 20 %
236 03-11-2019 15:18:17 14.9 C 20 %
237 03-11-2019 15:28:17 14.8 C 20 %
238 03-11-2019 15:38:17 14.6 C 20 %
239 03-11-2019 15:48:17 14.2 C 20 %
240 03-11-2019 15:58:17 14 C 20 %
241 03-11-2019 16:08:17 13.8 C 20 %
242 03-11-2019 16:18:17 13.7 C 20 %
243 03-11-2019 16:28:17 13.5 C 20 %
244 03-11-2019 16:38:17 13.5 C 20 %
245 03-11-2019 16:48:17 12.9 C 25 %
246 03-11-2019 16:58:17 12.8 C 25 %
247 03-11-2019 17:08:18 12.6 C 25 %
248 03-11-2019 17:18:17 12.6 C 25 %
249 03-11-2019 17:28:17 11.9 C 30 %
250 03-11-2019 17:38:17 11.8 C 31 %
Sensor: Nr:Datum:Temp:Feuchte:
Aussen-T/F 251 03-11-2019 17:48:17 11.7 C 33 %
252 03-11-2019 17:58:17 11.7 C 35 %
253 03-11-2019 18:08:17 11.7 C 35 %
254 03-11-2019 18:18:17 11.4 C 37 %
255 03-11-2019 18:28:17 11.5 C 37 %
256 03-11-2019 18:38:18 11.5 C 37 %
257 03-11-2019 18:48:17 11.4 C 37 %
258 03-11-2019 18:58:17 11.3 C 37 %
259 03-11-2019 19:08:17 11.2 C 37 %
260 03-11-2019 19:18:17 11.1 C 37 %
261 03-11-2019 19:28:17 11 C 37 %
262 03-11-2019 19:38:17 10.7 C 37 %
263 03-11-2019 19:48:18 10.5 C 37 %
264 03-11-2019 19:58:18 10.4 C 37 %
265 03-11-2019 20:08:17 10.4 C 37 %
266 03-11-2019 20:18:17 10.4 C 37 %
267 03-11-2019 20:28:17 10.4 C 37 %
268 03-11-2019 20:38:17 10.4 C 37 %
269 03-11-2019 20:48:18 10.4 C 37 %
270 03-11-2019 20:58:18 10.2 C 37 %
271 03-11-2019 21:08:17 10.3 C 37 %
272 03-11-2019 21:18:17 10.3 C 35 %
273 03-11-2019 21:28:17 10.4 C 34 %
274 03-11-2019 21:38:17 10.4 C 32 %
275 03-11-2019 21:48:18 10.4 C 32 %
Sensor: Nr:Datum:Temp:Feuchte:
Aussen-T/F 276 03-11-2019 21:58:18 10.4 C 32 %
277 03-11-2019 22:08:17 10.5 C 31 %
278 03-11-2019 22:18:17 10.3 C 31 %
279 03-11-2019 22:28:17 10.4 C 32 %
280 03-11-2019 22:38:17 10.3 C 34 %
281 03-11-2019 22:48:17 10.1 C 34 %
282 03-11-2019 22:58:17 9.8 C 36 %
283 03-11-2019 23:08:18 10 C 36 %
284 03-11-2019 23:18:17 10.1 C 35 %
285 03-11-2019 23:28:18 10.5 C 32 %
286 03-11-2019 23:38:17 11.1 C 26 %
287 03-11-2019 23:48:17 11.1 C 26 %
288 03-11-2019 23:58:17 11.2 C 26 %
289 04-11-2019 00:08:17 10.7 C 28 %
290 04-11-2019 00:18:17 10.6 C 29 %
291 04-11-2019 00:28:17 10.7 C 25 %
292 04-11-2019 00:38:18 10.8 C 25 %
293 04-11-2019 00:48:17 10.7 C 25 %
294 04-11-2019 00:58:17 10.9 C 25 %
295 04-11-2019 01:08:17 10.7 C 25 %
296 04-11-2019 01:18:17 10.8 C 25 %
297 04-11-2019 01:28:17 10.8 C 25 %
298 04-11-2019 01:38:17 10.2 C 27 %
299 04-11-2019 01:48:17 10 C 29 %
300 04-11-2019 01:58:18 9.7 C 33 %
Sensor: Nr:Datum:Temp:Feuchte:
Aussen-T/F 301 04-11-2019 02:08:17 9.6 C 32 %
302 04-11-2019 02:18:17 8.9 C 35 %
303 04-11-2019 02:28:17 9 C 35 %
304 04-11-2019 02:38:17 9 C 35 %
305 04-11-2019 02:48:18 9.3 C 30 %
306 04-11-2019 02:58:18 9.5 C 29 %
307 04-11-2019 03:08:17 9.8 C 27 %
308 04-11-2019 03:18:17 9.6 C 28 %
309 04-11-2019 03:28:17 9.3 C 31 %
310 04-11-2019 03:38:17 9.3 C 32 %
311 04-11-2019 03:48:17 9.3 C 35 %
312 04-11-2019 03:58:17 9.3 C 35 %
313 04-11-2019 04:08:17 9.3 C 35 %
314 04-11-2019 04:18:17 9.6 C 31 %
315 04-11-2019 04:28:17 9.7 C 33 %
316 04-11-2019 04:38:17 9.5 C 35 %
317 04-11-2019 04:48:17 9.5 C 37 %
318 04-11-2019 04:58:17 9.5 C 36 %
319 04-11-2019 05:08:17 9.5 C 36 %
320 04-11-2019 05:18:17 9.7 C 36 %
321 04-11-2019 05:28:17 10.1 C 30 %
322 04-11-2019 05:38:17 10.1 C 30 %
323 04-11-2019 05:48:17 9.7 C 31 %
324 04-11-2019 05:58:17 9.1 C 32 %
325 04-11-2019 06:08:18 8.9 C 37 %
Sensor: Nr:Datum:Temp:Feuchte:
Aussen-T/F 326 04-11-2019 06:18:17 8.8 C 37 %
327 04-11-2019 06:28:17 8.8 C 36 %
328 04-11-2019 06:38:17 9.1 C 35 %
329 04-11-2019 06:48:18 9 C 35 %
330 04-11-2019 06:58:18 8.6 C 34 %
331 04-11-2019 07:08:17 8.6 C 35 %
332 04-11-2019 07:18:17 8.4 C 32 %
333 04-11-2019 07:28:17 8.4 C 34 %
334 04-11-2019 07:38:17 9 C 30 %
335 04-11-2019 07:48:17 9 C 30 %
336 04-11-2019 07:58:17 8.5 C 31 %
337 04-11-2019 08:08:18 8.7 C 33 %
338 04-11-2019 08:18:17 8.7 C 35 %
339 04-11-2019 08:28:17 8.7 C 35 %
340 04-11-2019 08:38:17 9.4 C 35 %
341 04-11-2019 08:48:17 9.6 C 34 %
342 04-11-2019 08:58:17 9.6 C 33 %
343 04-11-2019 09:08:17 9.5 C 26 %
344 04-11-2019 09:18:17 9.5 C 28 %
345 04-11-2019 09:28:17 9.6 C 28 %
346 04-11-2019 09:38:17 9.7 C 29 %
347 04-11-2019 09:48:17 10 C 26 %
348 04-11-2019 09:58:17 10.5 C 25 %
349 04-11-2019 10:08:17 11.1 C 23 %
350 04-11-2019 10:18:17 11.1 C 22 %
Sensor: Nr:Datum:Temp:Feuchte:
Aussen-T/F 351 04-11-2019 10:28:17 11.1 C 22 %
352 04-11-2019 10:38:17 10.6 C 25 %
353 04-11-2019 10:48:17 10.4 C 26 %
354 04-11-2019 10:58:17 10.4 C 26 %
355 04-11-2019 11:08:17 10.5 C 28 %
356 04-11-2019 11:18:17 10.2 C 29 %
357 04-11-2019 11:28:17 10.4 C 30 %
358 04-11-2019 11:38:17 10.7 C 28 %
359 04-11-2019 11:48:17 10.7 C 26 %
360 04-11-2019 11:58:17 10.9 C 26 %
361 04-11-2019 12:08:17 10.9 C 26 %
362 04-11-2019 12:18:17 10.9 C 26 %
363 04-11-2019 12:28:17 11 C 26 %
364 04-11-2019 12:38:17 10.9 C 26 %
365 04-11-2019 12:48:17 11 C 27 %
366 04-11-2019 12:58:17 11.1 C 25 %
367 04-11-2019 13:08:18 11.4 C 25 %
368 04-11-2019 13:18:17 11.9 C 24 %
369 04-11-2019 13:28:17 12.2 C 21 %
370 04-11-2019 13:38:17 12.1 C 22 %
371 04-11-2019 13:48:17 12.5 C 20 %
372 04-11-2019 13:58:17 12.3 C 20 %
373 04-11-2019 14:08:17 12.1 C 20 %
374 04-11-2019 14:18:17 12.2 C 20 %
375 04-11-2019 14:28:17 12.7 C 20 %
Sensor: Nr:Datum:Temp:Feuchte:
Aussen-T/F 376 04-11-2019 14:38:17 13.1 C 20 %
377 04-11-2019 14:48:17 13.8 C 20 %
378 04-11-2019 14:58:17 12.8 C 20 %
379 04-11-2019 15:08:17 13.7 C 20 %
380 04-11-2019 15:18:17 13.4 C 20 %
381 04-11-2019 15:28:17 12.9 C 20 %
382 04-11-2019 15:38:17 13.7 C 20 %
383 04-11-2019 15:48:18 14.2 C 20 %
384 04-11-2019 15:58:18 13.6 C 20 %
385 04-11-2019 16:08:17 12 C 20 %
386 04-11-2019 16:18:17 11.5 C 20 %
387 04-11-2019 16:28:17 11.1 C 20 %
388 04-11-2019 16:38:17 10.4 C 25 %
389 04-11-2019 16:48:17 10 C 26 %
390 04-11-2019 16:58:17 10.1 C 28 %
391 04-11-2019 17:08:17 9.8 C 27 %
392 04-11-2019 17:18:17 9.9 C 28 %
393 04-11-2019 17:28:17 9.8 C 28 %
394 04-11-2019 17:38:17 9.8 C 29 %
395 04-11-2019 17:48:18 9.6 C 30 %
396 04-11-2019 17:58:18 9.5 C 31 %
397 04-11-2019 18:08:17 9.1 C 31 %
398 04-11-2019 18:18:17 9 C 32 %
399 04-11-2019 18:28:17 8.5 C 35 %
400 04-11-2019 18:38:17 8.4 C 35 %
Sensor: Nr:Datum:Temp:Feuchte:
Aussen-T/F 401 04-11-2019 18:48:17 8.2 C 38 %
402 04-11-2019 18:58:17 8.4 C 38 %
403 04-11-2019 19:08:17 8.6 C 35 %
404 04-11-2019 19:18:17 8.6 C 35 %
405 04-11-2019 19:28:17 8.2 C 35 %
406 04-11-2019 19:38:17 8.2 C 35 %
407 04-11-2019 19:48:18 8.4 C 37 %
408 04-11-2019 19:58:18 8.4 C 37 %
409 04-11-2019 20:08:17 8.9 C 36 %
410 04-11-2019 20:18:17 9.1 C 35 %
411 04-11-2019 20:28:17 9 C 37 %
412 04-11-2019 20:38:17 9.1 C 38 %
413 04-11-2019 20:48:17 9.1 C 39 %
414 04-11-2019 20:58:17 8.9 C 39 %
415 04-11-2019 21:08:18 8.7 C 39 %
416 04-11-2019 21:18:17 8.6 C 39 %
417 04-11-2019 21:28:17 8.4 C 39 %
418 04-11-2019 21:38:17 8.2 C 38 %
419 04-11-2019 21:48:17 7.7 C 39 %
420 04-11-2019 21:58:17 7.5 C 39 %
421 04-11-2019 22:08:17 7.5 C 39 %
422 04-11-2019 22:18:17 7.2 C 39 %
423 04-11-2019 22:28:17 7.3 C 39 %
424 04-11-2019 22:38:17 7.5 C 40 %
425 04-11-2019 22:48:17 7.5 C 39 %
Sensor: Nr:Datum:Temp:Feuchte:
Aussen-T/F 426 04-11-2019 22:58:17 7.9 C 40 %
427 04-11-2019 23:08:17 8.1 C 39 %
428 04-11-2019 23:18:17 8.4 C 39 %
429 04-11-2019 23:28:17 8.5 C 38 %
430 04-11-2019 23:38:17 9 C 35 %
431 04-11-2019 23:48:17 9.5 C 27 %
432 04-11-2019 23:58:17 9.5 C 26 %
433 05-11-2019 00:08:17 9.2 C 27 %
434 05-11-2019 00:18:17 9 C 27 %
435 05-11-2019 00:28:17 9 C 27 %
436 05-11-2019 00:38:18 8.8 C 29 %
437 05-11-2019 00:48:17 9.1 C 27 %
438 05-11-2019 00:58:17 9.1 C 26 %
439 05-11-2019 01:08:17 9.1 C 26 %
440 05-11-2019 01:18:17 8.7 C 27 %
441 05-11-2019 01:28:17 9 C 26 %
442 05-11-2019 01:38:17 8.7 C 27 %
443 05-11-2019 01:48:17 8.7 C 28 %
444 05-11-2019 01:58:17 9 C 27 %
445 05-11-2019 02:08:17 8.8 C 28 %
446 05-11-2019 02:18:17 8.7 C 28 %
447 05-11-2019 02:28:17 8.5 C 31 %
448 05-11-2019 02:38:17 8.5 C 32 %
449 05-11-2019 02:48:17 8.9 C 27 %
450 05-11-2019 02:58:17 8.8 C 28 %
Sensor: Nr:Datum:Temp:Feuchte:
Aussen-T/F 451 05-11-2019 03:08:17 8.7 C 28 %
452 05-11-2019 03:18:17 9.1 C 26 %
453 05-11-2019 03:28:17 9 C 25 %
454 05-11-2019 03:38:17 8.8 C 27 %
455 05-11-2019 03:48:17 9 C 25 %
456 05-11-2019 03:58:17 8.8 C 26 %
457 05-11-2019 04:08:18 9.2 C 25 %
458 05-11-2019 04:18:17 9 C 25 %
459 05-11-2019 04:28:17 9.3 C 23 %
460 05-11-2019 04:38:17 9.3 C 23 %
461 05-11-2019 04:48:17 9 C 25 %
462 05-11-2019 04:58:17 9.2 C 25 %
463 05-11-2019 05:08:17 9.1 C 25 %
464 05-11-2019 05:18:17 9.4 C 21 %
465 05-11-2019 05:28:17 8.7 C 26 %
466 05-11-2019 05:38:17 8.7 C 27 %
467 05-11-2019 05:48:17 8.7 C 26 %
468 05-11-2019 05:58:17 8.6 C 27 %
469 05-11-2019 06:08:17 8.5 C 27 %
470 05-11-2019 06:18:17 8.7 C 26 %
471 05-11-2019 06:28:17 8.8 C 26 %
472 05-11-2019 06:38:17 8.8 C 26 %
473 05-11-2019 06:48:17 8.7 C 27 %
474 05-11-2019 06:58:17 9 C 25 %
475 05-11-2019 07:08:18 9.2 C 25 %
Sensor: Nr:Datum:Temp:Feuchte:
Aussen-T/F 476 05-11-2019 07:18:17 9 C 25 %
477 05-11-2019 07:28:17 8.7 C 26 %
478 05-11-2019 07:38:17 8.2 C 27 %
479 05-11-2019 07:48:17 8.2 C 27 %
480 05-11-2019 07:58:17 7.9 C 30 %
481 05-11-2019 08:08:17 8.2 C 28 %
482 05-11-2019 08:18:17 8.4 C 28 %
483 05-11-2019 08:28:17 8.8 C 26 %
484 05-11-2019 08:38:18 8.5 C 26 %
485 05-11-2019 08:48:17 9 C 25 %
486 05-11-2019 08:58:17 9 C 25 %
487 05-11-2019 09:08:17 8.7 C 26 %
488 05-11-2019 09:18:17 9.1 C 21 %
489 05-11-2019 09:28:17 8.7 C 26 %
490 05-11-2019 09:38:17 9.2 C 25 %
491 05-11-2019 09:48:18 9.8 C 20 %
492 05-11-2019 09:58:18 10.4 C 20 %
493 05-11-2019 10:08:17 10.6 C 20 %
494 05-11-2019 10:18:17 10.3 C 20 %
495 05-11-2019 10:28:17 10.6 C 20 %
496 05-11-2019 10:38:17 10.6 C 20 %
497 05-11-2019 10:48:18 10.7 C 20 %
498 05-11-2019 10:58:18 10.6 C 20 %
499 05-11-2019 11:08:17 10.5 C 20 %
500 05-11-2019 11:18:17 11 C 20 %
Sensor: Nr:Datum:Temp:Feuchte:
Aussen-T/F 501 05-11-2019 11:28:17 11.7 C 20 %
502 05-11-2019 11:38:17 11.7 C 20 %
503 05-11-2019 11:48:17 11.7 C 20 %
504 05-11-2019 11:58:17 11.6 C 20 %
505 05-11-2019 12:08:18 11.7 C 20 %
506 05-11-2019 12:18:17 11.8 C 20 %
507 05-11-2019 12:28:17 12.2 C 20 %
508 05-11-2019 12:38:17 12.1 C 20 %
509 05-11-2019 12:48:17 11.5 C 20 %
510 05-11-2019 12:58:17 11.7 C 20 %
511 05-11-2019 13:08:17 11.8 C 20 %
512 05-11-2019 13:18:17 11.7 C 20 %
513 05-11-2019 13:28:17 12.5 C 20 %
514 05-11-2019 13:38:17 12.2 C 20 %
515 05-11-2019 13:48:17 12.3 C 20 %
516 05-11-2019 13:58:17 12.3 C 20 %
517 05-11-2019 14:08:17 12.4 C 20 %
518 05-11-2019 14:18:17 12.2 C 20 %
519 05-11-2019 14:28:17 12 C 20 %
520 05-11-2019 14:38:17 11.9 C 20 %
521 05-11-2019 14:48:17 12.1 C 20 %
522 05-11-2019 14:58:17 12.2 C 20 %
523 05-11-2019 15:08:17 12.1 C 20 %
524 05-11-2019 15:18:17 11.3 C 20 %
525 05-11-2019 15:28:17 10.8 C 20 %
Sensor: Nr:Datum:Temp:Feuchte:
Aussen-T/F 526 05-11-2019 15:38:17 11 C 20 %
527 05-11-2019 15:48:17 11 C 20 %
528 05-11-2019 15:58:17 11.1 C 20 %
529 05-11-2019 16:08:17 11 C 20 %
530 05-11-2019 16:18:17 9.8 C 25 %
531 05-11-2019 16:28:17 9.4 C 25 %
532 05-11-2019 16:38:17 9.5 C 25 %
533 05-11-2019 16:48:17 9.5 C 25 %
534 05-11-2019 16:58:17 9.2 C 29 %
535 05-11-2019 17:08:17 9.3 C 29 %
536 05-11-2019 17:18:17 9.3 C 30 %
537 05-11-2019 17:28:17 9 C 31 %
538 05-11-2019 17:38:17 8.8 C 32 %
539 05-11-2019 17:48:17 8.4 C 35 %
540 05-11-2019 17:58:17 8.5 C 32 %
541 05-11-2019 18:08:18 8.4 C 33 %
542 05-11-2019 18:18:17 8.5 C 34 %
543 05-11-2019 18:28:17 7.9 C 34 %
544 05-11-2019 18:38:17 7.8 C 35 %
545 05-11-2019 18:48:17 7.8 C 36 %
546 05-11-2019 18:58:17 7.7 C 36 %
547 05-11-2019 19:08:18 7.6 C 37 %
548 05-11-2019 19:18:17 7.6 C 37 %
549 05-11-2019 19:28:17 7.7 C 37 %
550 05-11-2019 19:38:17 7.8 C 38 %
Sensor: Nr:Datum:Temp:Feuchte:
Aussen-T/F 551 05-11-2019 19:48:17 8 C 37 %
552 05-11-2019 19:58:17 8.1 C 36 %
553 05-11-2019 20:08:18 7.7 C 35 %
554 05-11-2019 20:18:17 7.9 C 36 %
555 05-11-2019 20:28:17 7.9 C 35 %
556 05-11-2019 20:38:17 7.5 C 35 %
557 05-11-2019 20:48:17 7.1 C 35 %
558 05-11-2019 20:58:17 7.1 C 37 %
559 05-11-2019 21:08:18 7.1 C 38 %
560 05-11-2019 21:18:17 7.3 C 39 %
561 05-11-2019 21:28:17 7.3 C 38 %
562 05-11-2019 21:38:17 7.2 C 38 %
563 05-11-2019 21:48:17 7.3 C 38 %
564 05-11-2019 21:58:17 7.2 C 38 %
565 05-11-2019 22:08:18 7.2 C 38 %
566 05-11-2019 22:18:17 7.2 C 38 %
567 05-11-2019 22:28:18 7.3 C 38 %
568 05-11-2019 22:38:17 7.4 C 38 %
569 05-11-2019 22:48:17 7.4 C 38 %
570 05-11-2019 22:58:17 7.4 C 38 %
571 05-11-2019 23:08:17 7.4 C 38 %
572 05-11-2019 23:18:17 7.4 C 38 %
573 05-11-2019 23:28:17 7.3 C 37 %
574 05-11-2019 23:38:17 7.3 C 38 %
575 05-11-2019 23:48:17 7.5 C 38 %
Sensor: Nr:Datum:Temp:Feuchte:
Aussen-T/F 576 05-11-2019 23:58:17 7.9 C 37 %
577 06-11-2019 00:08:17 7.8 C 36 %
578 06-11-2019 00:18:17 7.7 C 36 %
579 06-11-2019 00:28:17 7.6 C 36 %
580 06-11-2019 00:38:17 7.8 C 37 %
581 06-11-2019 00:48:17 7.8 C 37 %
582 06-11-2019 00:58:17 7.9 C 36 %
583 06-11-2019 01:08:17 7.9 C 35 %
584 06-11-2019 01:18:17 8 C 35 %
585 06-11-2019 01:28:17 7.6 C 35 %
586 06-11-2019 01:38:17 7.3 C 37 %
587 06-11-2019 01:48:17 7.4 C 38 %
588 06-11-2019 01:58:17 7.3 C 38 %
589 06-11-2019 02:08:17 7.5 C 39 %
590 06-11-2019 02:18:17 7.7 C 39 %
591 06-11-2019 02:28:17 7.6 C 39 %
592 06-11-2019 02:38:17 7.6 C 39 %
593 06-11-2019 02:48:17 7.6 C 39 %
594 06-11-2019 02:58:17 7.5 C 39 %
595 06-11-2019 03:08:18 7.1 C 37 %
596 06-11-2019 03:18:18 6.9 C 39 %
597 06-11-2019 03:28:18 6.9 C 40 %
598 06-11-2019 03:38:17 6.6 C 39 %
599 06-11-2019 03:48:17 6.5 C 39 %
600 06-11-2019 03:58:17 6.4 C 39 %
Sensor: Nr:Datum:Temp:Feuchte:
Aussen-T/F 601 06-11-2019 04:08:17 6.7 C 40 %
602 06-11-2019 04:18:17 6.8 C 40 %
603 06-11-2019 04:28:17 7 C 39 %
604 06-11-2019 04:38:17 6.8 C 39 %
605 06-11-2019 04:48:17 6.9 C 39 %
606 06-11-2019 04:58:17 6.6 C 39 %
607 06-11-2019 05:08:17 6.7 C 39 %
608 06-11-2019 05:18:17 6.8 C 39 %
609 06-11-2019 05:28:17 6.8 C 39 %
610 06-11-2019 05:38:17 6.8 C 39 %
611 06-11-2019 05:48:18 6.8 C 39 %
612 06-11-2019 05:58:18 6.9 C 39 %
613 06-11-2019 06:08:17 7.1 C 39 %
614 06-11-2019 06:18:17 7.1 C 39 %
615 06-11-2019 06:28:17 7.3 C 38 %
616 06-11-2019 06:38:18 7.3 C 37 %
617 06-11-2019 06:48:17 7.3 C 37 %
618 06-11-2019 06:58:17 7.2 C 36 %
619 06-11-2019 07:08:17 7.1 C 36 %
620 06-11-2019 07:18:17 7.1 C 36 %
621 06-11-2019 07:28:17 6.8 C 37 %
622 06-11-2019 07:38:17 6.8 C 38 %
623 06-11-2019 07:48:17 6.9 C 38 %
624 06-11-2019 07:58:17 7 C 38 %
625 06-11-2019 08:08:17 7.1 C 38 %
Sensor: Nr:Datum:Temp:Feuchte:
Aussen-T/F 626 06-11-2019 08:18:17 7.3 C 38 %
627 06-11-2019 08:28:17 7.4 C 38 %
628 06-11-2019 08:38:18 7.8 C 38 %
629 06-11-2019 08:48:17 8 C 36 %
630 06-11-2019 08:58:17 8.1 C 35 %
631 06-11-2019 09:08:17 8.4 C 31 %
632 06-11-2019 09:18:17 8.4 C 31 %
633 06-11-2019 09:28:17 8.6 C 30 %
634 06-11-2019 09:38:17 8.8 C 29 %
635 06-11-2019 09:48:17 9 C 27 %
636 06-11-2019 09:58:17 9.2 C 26 %
637 06-11-2019 10:08:17 9.3 C 25 %
638 06-11-2019 10:18:17 9.6 C 25 %
639 06-11-2019 10:28:17 9.6 C 25 %
640 06-11-2019 10:38:18 9.5 C 25 %
641 06-11-2019 10:48:17 9.5 C 25 %
642 06-11-2019 10:58:17 9.4 C 25 %
643 06-11-2019 11:08:17 9.4 C 25 %
644 06-11-2019 11:18:17 9.5 C 26 %
645 06-11-2019 11:28:17 9.4 C 26 %
646 06-11-2019 11:38:17 9.5 C 27 %
647 06-11-2019 11:48:17 9.5 C 27 %
648 06-11-2019 11:58:17 9.7 C 27 %
649 06-11-2019 12:08:17 9.9 C 26 %
650 06-11-2019 12:18:17 9.7 C 26 %
Sensor: Nr:Datum:Temp:Feuchte:
Aussen-T/F 651 06-11-2019 12:28:17 9.6 C 27 %
652 06-11-2019 12:38:17 9.7 C 27 %
653 06-11-2019 12:48:17 10 C 25 %
654 06-11-2019 12:58:17 10.2 C 25 %
655 06-11-2019 13:08:18 10.3 C 25 %
656 06-11-2019 13:18:17 10.5 C 23 %
657 06-11-2019 13:28:17 10.2 C 23 %
658 06-11-2019 13:38:17 10.3 C 23 %
659 06-11-2019 13:48:17 10.3 C 23 %
660 06-11-2019 13:58:17 10.1 C 25 %
661 06-11-2019 14:08:18 9.8 C 25 %
662 06-11-2019 14:18:17 9.6 C 26 %
663 06-11-2019 14:28:17 9.5 C 28 %
664 06-11-2019 14:38:17 9.6 C 27 %
665 06-11-2019 14:48:17 9.6 C 28 %
666 06-11-2019 14:58:17 9.4 C 28 %
667 06-11-2019 15:08:18 9.6 C 28 %
668 06-11-2019 15:18:17 9.5 C 30 %
669 06-11-2019 15:28:17 9.4 C 31 %
670 06-11-2019 15:38:17 9.3 C 32 %
671 06-11-2019 15:48:17 9.2 C 32 %
672 06-11-2019 15:58:17 9.2 C 35 %
673 06-11-2019 16:08:18 9.2 C 35 %
674 06-11-2019 16:18:17 9.1 C 35 %
675 06-11-2019 16:28:17 9.1 C 36 %
Sensor: Nr:Datum:Temp:Feuchte:
Aussen-T/F 676 06-11-2019 16:38:17 9 C 36 %
677 06-11-2019 16:48:17 8.9 C 37 %
678 06-11-2019 16:58:17 8.9 C 37 %
679 06-11-2019 17:08:17 8.9 C 38 %
680 06-11-2019 17:18:17 8.7 C 38 %
681 06-11-2019 17:28:17 8.8 C 38 %
682 06-11-2019 17:38:17 8.8 C 39 %
683 06-11-2019 17:48:18 8.7 C 39 %
684 06-11-2019 17:58:18 8.8 C 39 %
685 06-11-2019 18:08:17 8.8 C 39 %
686 06-11-2019 18:18:17 8.8 C 39 %
687 06-11-2019 18:28:17 8.8 C 39 %
688 06-11-2019 18:38:17 8.8 C 39 %
689 06-11-2019 18:48:17 8.8 C 39 %
690 06-11-2019 18:58:17 8.8 C 39 %
691 06-11-2019 19:08:17 8.7 C 39 %
692 06-11-2019 19:18:17 8.7 C 38 %
693 06-11-2019 19:28:17 8.6 C 38 %
694 06-11-2019 19:38:17 8.6 C 38 %
695 06-11-2019 19:48:18 8.6 C 38 %
696 06-11-2019 19:58:18 8.5 C 38 %
697 06-11-2019 20:08:17 8.4 C 38 %
698 06-11-2019 20:18:17 8.4 C 38 %
699 06-11-2019 20:28:17 8.4 C 38 %
700 06-11-2019 20:38:17 8.3 C 38 %
Sensor: Nr:Datum:Temp:Feuchte:
Aussen-T/F 701 06-11-2019 20:48:17 8.2 C 38 %
702 06-11-2019 20:58:17 8.3 C 38 %
703 06-11-2019 21:08:17 8.3 C 38 %
704 06-11-2019 21:18:17 8.3 C 38 %
705 06-11-2019 21:28:17 8.3 C 38 %
706 06-11-2019 21:38:17 8.3 C 38 %
707 06-11-2019 21:48:18 8.2 C 38 %
708 06-11-2019 21:58:18 8.2 C 38 %
709 06-11-2019 22:08:17 8.2 C 38 %
710 06-11-2019 22:18:17 8.3 C 38 %
711 06-11-2019 22:28:17 8.2 C 38 %
712 06-11-2019 22:38:17 8.2 C 38 %
713 06-11-2019 22:48:17 8.2 C 38 %
714 06-11-2019 22:58:18 8.2 C 38 %
715 06-11-2019 23:08:17 8.2 C 38 %
716 06-11-2019 23:18:17 8.1 C 38 %
717 06-11-2019 23:28:17 8.2 C 38 %
718 06-11-2019 23:38:17 8.2 C 38 %
719 06-11-2019 23:48:17 8.2 C 38 %
720 06-11-2019 23:58:17 8 C 38 %
721 07-11-2019 00:08:17 7.9 C 39 %
722 07-11-2019 00:18:17 7.8 C 39 %
723 07-11-2019 00:28:17 7.8 C 39 %
724 07-11-2019 00:38:17 7.6 C 39 %
725 07-11-2019 00:48:17 7.6 C 39 %
Sensor: Nr:Datum:Temp:Feuchte:
Aussen-T/F 726 07-11-2019 00:58:17 7.6 C 39 %
727 07-11-2019 01:08:17 7.5 C 39 %
728 07-11-2019 01:18:17 7.4 C 39 %
729 07-11-2019 01:28:17 7.3 C 39 %
730 07-11-2019 01:38:17 7.3 C 39 %
731 07-11-2019 01:48:18 7.2 C 39 %
732 07-11-2019 01:58:18 7.3 C 39 %
733 07-11-2019 02:08:17 7.3 C 39 %
734 07-11-2019 02:18:17 7.4 C 39 %
735 07-11-2019 02:28:17 7.4 C 39 %
736 07-11-2019 02:38:17 7.4 C 39 %
737 07-11-2019 02:48:17 7.4 C 39 %
738 07-11-2019 02:58:17 7.5 C 38 %
739 07-11-2019 03:08:17 7.4 C 38 %
740 07-11-2019 03:18:17 7.2 C 38 %
741 07-11-2019 03:28:17 7.1 C 38 %
742 07-11-2019 03:38:17 6.9 C 39 %
743 07-11-2019 03:48:17 6.9 C 39 %
744 07-11-2019 03:58:18 6.8 C 39 %
745 07-11-2019 04:08:17 6.7 C 39 %
746 07-11-2019 04:18:17 6.9 C 39 %
747 07-11-2019 04:28:17 6.8 C 39 %
748 07-11-2019 04:38:17 6.9 C 39 %
749 07-11-2019 04:48:17 6.8 C 39 %
750 07-11-2019 04:58:17 7 C 38 %
Sensor: Nr:Datum:Temp:Feuchte:
Aussen-T/F 751 07-11-2019 05:08:17 7 C 38 %
752 07-11-2019 05:18:17 6.8 C 39 %
753 07-11-2019 05:28:17 6.7 C 39 %
754 07-11-2019 05:38:17 6.7 C 39 %
755 07-11-2019 05:48:17 6.7 C 39 %
756 07-11-2019 05:58:17 6.7 C 39 %
757 07-11-2019 06:08:17 6.7 C 39 %
758 07-11-2019 06:18:17 6.7 C 39 %
759 07-11-2019 06:28:17 6.7 C 39 %
760 07-11-2019 06:38:17 6.7 C 39 %
761 07-11-2019 06:48:17 6.7 C 39 %
762 07-11-2019 06:58:17 6.8 C 39 %
763 07-11-2019 07:08:18 6.8 C 39 %
764 07-11-2019 07:18:17 6.9 C 39 %
765 07-11-2019 07:28:17 6.9 C 39 %
766 07-11-2019 07:38:17 6.9 C 39 %
767 07-11-2019 07:48:17 7.1 C 38 %
768 07-11-2019 07:58:17 7.3 C 38 %
769 07-11-2019 08:08:17 7.5 C 38 %
770 07-11-2019 08:18:17 7.6 C 38 %
771 07-11-2019 08:28:17 7.6 C 38 %
772 07-11-2019 08:38:18 7.8 C 38 %
773 07-11-2019 08:48:17 7.9 C 38 %
774 07-11-2019 08:58:17 8.1 C 37 %
775 07-11-2019 09:08:17 8 C 37 %
Sensor: Nr:Datum:Temp:Feuchte:
Aussen-T/F 776 07-11-2019 09:18:17 8.2 C 36 %
777 07-11-2019 09:28:17 8.5 C 36 %
778 07-11-2019 09:38:17 8.5 C 36 %
779 07-11-2019 09:48:17 8.5 C 36 %
780 07-11-2019 09:58:17 8.5 C 36 %
781 07-11-2019 10:08:17 9.1 C 35 %
782 07-11-2019 10:18:17 9.4 C 36 %
783 07-11-2019 10:28:17 9.5 C 36 %
784 07-11-2019 10:38:17 9.7 C 35 %
785 07-11-2019 10:48:18 9.3 C 28 %
786 07-11-2019 10:58:18 9.3 C 29 %
787 07-11-2019 11:08:17 9.4 C 29 %
788 07-11-2019 11:18:17 9.2 C 29 %
789 07-11-2019 11:28:17 9.2 C 30 %
790 07-11-2019 11:38:17 9 C 29 %
791 07-11-2019 11:48:18 8.9 C 29 %
792 07-11-2019 11:58:18 8.7 C 28 %
793 07-11-2019 12:08:17 8.7 C 33 %
794 07-11-2019 12:18:17 8.9 C 34 %
795 07-11-2019 12:28:17 8.9 C 34 %
796 07-11-2019 12:38:17 8.6 C 28 %
797 07-11-2019 12:48:17 8.9 C 26 %
798 07-11-2019 12:58:17 8.9 C 25 %
799 07-11-2019 13:08:17 9.7 C 25 %
800 07-11-2019 13:18:17 9.5 C 23 %
Sensor: Nr:Datum:Temp:Feuchte:
Aussen-T/F 801 07-11-2019 13:28:17 9.4 C 26 %
802 07-11-2019 13:38:17 10.2 C 21 %
803 07-11-2019 13:48:17 9.8 C 20 %
804 07-11-2019 13:58:17 9.2 C 21 %
805 07-11-2019 14:08:17 8.9 C 25 %
806 07-11-2019 14:18:17 8.8 C 25 %
807 07-11-2019 14:28:17 8.8 C 25 %
808 07-11-2019 14:38:17 9.3 C 25 %
809 07-11-2019 14:48:18 9.7 C 23 %
810 07-11-2019 14:58:18 9.9 C 21 %
811 07-11-2019 15:08:17 9.6 C 21 %
812 07-11-2019 15:18:17 9.8 C 21 %
813 07-11-2019 15:28:17 10.1 C 20 %
814 07-11-2019 15:38:17 9.7 C 25 %
815 07-11-2019 15:48:17 9.3 C 29 %
816 07-11-2019 15:58:17 9.5 C 23 %
817 07-11-2019 16:08:17 9.7 C 20 %
818 07-11-2019 16:18:17 9.6 C 20 %
819 07-11-2019 16:28:17 9.3 C 20 %
820 07-11-2019 16:38:18 9.1 C 20 %
821 07-11-2019 16:48:17 9 C 20 %
822 07-11-2019 16:58:17 8.8 C 20 %
823 07-11-2019 17:08:17 8.4 C 20 %
824 07-11-2019 17:18:17 7.1 C 30 %
825 07-11-2019 17:28:18 8.2 C 20 %
Sensor: Nr:Datum:Temp:Feuchte:
Aussen-T/F 826 07-11-2019 17:38:17 8 C 20 %
827 07-11-2019 17:48:17 7.8 C 20 %
828 07-11-2019 17:58:17 7.1 C 23 %
829 07-11-2019 18:08:17 6.6 C 27 %
830 07-11-2019 18:18:17 6 C 30 %
831 07-11-2019 18:28:17 5.6 C 36 %
832 07-11-2019 18:38:17 5.5 C 38 %
833 07-11-2019 18:48:18 5.6 C 38 %
834 07-11-2019 18:58:18 5.6 C 38 %
835 07-11-2019 19:08:17 6 C 40 %
836 07-11-2019 19:18:17 6.4 C 39 %
837 07-11-2019 19:28:17 6.1 C 33 %
838 07-11-2019 19:38:17 5.8 C 34 %
839 07-11-2019 19:48:18 5.3 C 35 %
840 07-11-2019 19:58:18 5.1 C 36 %
841 07-11-2019 20:08:17 5.1 C 36 %
842 07-11-2019 20:18:17 5.6 C 40 %
843 07-11-2019 20:28:17 5.5 C 38 %
844 07-11-2019 20:38:17 5.3 C 36 %
845 07-11-2019 20:48:17 5.2 C 36 %
846 07-11-2019 20:58:17 4.9 C 37 %
847 07-11-2019 21:08:17 4.5 C 38 %
848 07-11-2019 21:18:17 4.5 C 39 %
849 07-11-2019 21:28:17 4.5 C 39 %
850 07-11-2019 21:38:18 4.5 C 39 %
Sensor: Nr:Datum:Temp:Feuchte:
Aussen-T/F 851 07-11-2019 21:48:17 4.8 C 40 %
852 07-11-2019 21:58:17 4.5 C 38 %
853 07-11-2019 22:08:17 4.5 C 38 %
854 07-11-2019 22:18:17 4 C 38 %
855 07-11-2019 22:28:17 3.6 C 40 %
856 07-11-2019 22:38:17 3.5 C 40 %
857 07-11-2019 22:48:17 3.3 C 40 %
858 07-11-2019 22:58:17 3.7 C 41 %
859 07-11-2019 23:08:18 4.1 C 40 %
860 07-11-2019 23:18:17 4.5 C 40 %
861 07-11-2019 23:28:18 4.5 C 37 %
862 07-11-2019 23:38:17 4.5 C 35 %
863 07-11-2019 23:48:17 4.3 C 35 %
864 07-11-2019 23:58:17 4.1 C 35 %
865 08-11-2019 00:08:17 3.9 C 37 %
866 08-11-2019 00:18:17 3.7 C 38 %
867 08-11-2019 00:28:17 3.7 C 39 %
868 08-11-2019 00:38:17 3.5 C 40 %
869 08-11-2019 00:48:18 3.3 C 40 %
870 08-11-2019 00:58:18 3.2 C 40 %
871 08-11-2019 01:08:17 3.3 C 41 %
872 08-11-2019 01:18:17 3.3 C 41 %
873 08-11-2019 01:28:17 3.2 C 40 %
874 08-11-2019 01:38:17 3.1 C 40 %
875 08-11-2019 01:48:18 2.9 C 40 %
Sensor: Nr:Datum:Temp:Feuchte:
Aussen-T/F 876 08-11-2019 01:58:18 2.4 C 40 %
877 08-11-2019 02:08:17 2 C 40 %
878 08-11-2019 02:18:17 2 C 40 %
879 08-11-2019 02:28:17 1.9 C 42 %
880 08-11-2019 02:38:17 2.1 C 41 %
881 08-11-2019 02:48:18 1.8 C 42 %
882 08-11-2019 02:58:18 1.8 C 42 %
883 08-11-2019 03:08:17 2 C 41 %
884 08-11-2019 03:18:17 2 C 41 %
885 08-11-2019 03:28:17 1.8 C 42 %
886 08-11-2019 03:38:17 2.3 C 41 %
887 08-11-2019 03:48:18 2.1 C 41 %
888 08-11-2019 03:58:18 1.7 C 41 %
889 08-11-2019 04:08:17 1.7 C 41 %
890 08-11-2019 04:18:17 1.4 C 41 %
891 08-11-2019 04:28:17 1.4 C 41 %
892 08-11-2019 04:38:17 1.2 C 41 %
893 08-11-2019 04:48:17 1.2 C 41 %
894 08-11-2019 04:58:17 1.3 C 41 %
895 08-11-2019 05:08:17 1.2 C 41 %
896 08-11-2019 05:18:17 1.2 C 41 %
897 08-11-2019 05:28:17 1.1 C 41 %
898 08-11-2019 05:38:17 1.1 C 41 %
899 08-11-2019 05:48:17 1.3 C 41 %
900 08-11-2019 05:58:17 1.3 C 41 %
Sensor: Nr:Datum:Temp:Feuchte:
Aussen-T/F 901 08-11-2019 06:08:17 1.4 C 41 %
902 08-11-2019 06:18:17 1.4 C 41 %
903 08-11-2019 06:28:17 1.4 C 41 %
904 08-11-2019 06:38:18 1.3 C 41 %
905 08-11-2019 06:48:17 1.2 C 41 %
906 08-11-2019 06:58:17 1.1 C 41 %
907 08-11-2019 07:08:17 1.2 C 41 %
908 08-11-2019 07:18:17 1.5 C 41 %
909 08-11-2019 07:28:17 1.3 C 41 %
910 08-11-2019 07:38:17 1.2 C 41 %
911 08-11-2019 07:48:18 1.3 C 41 %
912 08-11-2019 07:58:18 1.8 C 41 %
913 08-11-2019 08:08:17 2.1 C 41 %
914 08-11-2019 08:18:17 2.3 C 41 %
915 08-11-2019 08:28:17 2.6 C 41 %
916 08-11-2019 08:38:17 2.9 C 41 %
917 08-11-2019 08:48:18 3.1 C 40 %
918 08-11-2019 08:58:18 3.1 C 40 %
919 08-11-2019 09:08:17 3.3 C 40 %
920 08-11-2019 09:18:18 3 C 40 %
921 08-11-2019 09:28:18 3.3 C 40 %
922 08-11-2019 09:38:17 3.3 C 40 %
923 08-11-2019 09:48:17 3.5 C 40 %
924 08-11-2019 09:58:17 3.7 C 40 %
925 08-11-2019 10:08:17 3.8 C 40 %
Sensor: Nr:Datum:Temp:Feuchte:
Aussen-T/F 926 08-11-2019 10:18:17 4.1 C 39 %
927 08-11-2019 10:28:17 4.6 C 39 %
928 08-11-2019 10:38:17 4.6 C 39 %
929 08-11-2019 10:48:18 5.1 C 37 %
930 08-11-2019 10:58:18 4.9 C 37 %
931 08-11-2019 11:08:17 5.1 C 37 %
932 08-11-2019 11:18:17 5.4 C 35 %
933 08-11-2019 11:28:17 5.3 C 33 %
934 08-11-2019 11:38:17 5.6 C 35 %
935 08-11-2019 11:48:18 5.6 C 34 %
936 08-11-2019 11:58:18 5.7 C 34 %
937 08-11-2019 12:08:17 5.7 C 32 %
938 08-11-2019 12:18:17 6 C 32 %
939 08-11-2019 12:28:17 6.4 C 32 %
940 08-11-2019 12:38:17 6.4 C 31 %
941 08-11-2019 12:48:18 6.5 C 28 %
942 08-11-2019 12:58:18 6.8 C 30 %
943 08-11-2019 13:08:17 7 C 28 %
944 08-11-2019 13:18:17 7.3 C 30 %
945 08-11-2019 13:28:17 6.9 C 27 %
946 08-11-2019 13:38:17 7.1 C 28 %
947 08-11-2019 13:48:17 7.3 C 26 %
948 08-11-2019 13:58:17 7.5 C 27 %
949 08-11-2019 14:08:18 7.5 C 26 %
950 08-11-2019 14:18:17 7.7 C 27 %
Sensor: Nr:Datum:Temp:Feuchte:
Aussen-T/F 951 08-11-2019 14:28:17 7.6 C 27 %
952 08-11-2019 14:38:17 7.6 C 27 %
953 08-11-2019 14:48:17 7.5 C 27 %
954 08-11-2019 14:58:17 7.5 C 29 %
955 08-11-2019 15:08:17 7.5 C 30 %
956 08-11-2019 15:18:17 7.4 C 30 %
957 08-11-2019 15:28:17 7.4 C 31 %
958 08-11-2019 15:38:17 7.3 C 30 %
959 08-11-2019 15:48:17 7.2 C 31 %
960 08-11-2019 15:58:17 7.1 C 32 %
961 08-11-2019 16:08:18 7.1 C 31 %
962 08-11-2019 16:18:17 6.8 C 33 %
963 08-11-2019 16:28:17 6.6 C 34 %
964 08-11-2019 16:38:17 6.4 C 35 %
965 08-11-2019 16:48:17 6.3 C 36 %
966 08-11-2019 16:58:17 6.2 C 36 %
967 08-11-2019 17:08:18 6.1 C 36 %
968 08-11-2019 17:18:17 6 C 36 %
969 08-11-2019 17:28:17 5.9 C 36 %
970 08-11-2019 17:38:17 5.9 C 36 %
971 08-11-2019 17:48:17 5.9 C 36 %
972 08-11-2019 17:58:17 5.8 C 38 %
973 08-11-2019 18:08:17 5.8 C 39 %
974 08-11-2019 18:18:17 5.8 C 39 %
975 08-11-2019 18:28:17 5.8 C 40 %
Sensor: Nr:Datum:Temp:Feuchte:
Aussen-T/F 976 08-11-2019 18:38:17 5.8 C 40 %
977 08-11-2019 18:48:17 5.8 C 40 %
978 08-11-2019 18:58:17 5.7 C 40 %
979 08-11-2019 19:08:18 5.8 C 40 %
980 08-11-2019 19:18:17 5.6 C 39 %
981 08-11-2019 19:28:17 5.6 C 39 %
982 08-11-2019 19:38:17 5.3 C 39 %
983 08-11-2019 19:48:17 5.4 C 40 %
984 08-11-2019 19:58:17 5.4 C 40 %
985 08-11-2019 20:08:18 5.4 C 40 %
986 08-11-2019 20:18:17 5.4 C 40 %
987 08-11-2019 20:28:17 5.3 C 40 %
988 08-11-2019 20:38:17 5.4 C 40 %
989 08-11-2019 20:48:17 5.3 C 40 %
990 08-11-2019 20:58:17 5.1 C 39 %
991 08-11-2019 21:08:17 4.8 C 39 %
992 08-11-2019 21:18:18 4.5 C 40 %
993 08-11-2019 21:28:18 4.3 C 40 %
994 08-11-2019 21:38:17 4.5 C 40 %
995 08-11-2019 21:48:17 4.5 C 40 %
996 08-11-2019 21:58:17 4.5 C 40 %
997 08-11-2019 22:08:17 4.3 C 40 %
998 08-11-2019 22:19:17 4.4 C 40 %
999 08-11-2019 22:28:17 4.6 C 40 %
1000 08-11-2019 22:38:17 4.7 C 40 %
Sensor: Nr:Datum:Temp:Feuchte:
Aussen-T/F 1001 08-11-2019 22:49:17 4.7 C 40 %
1002 08-11-2019 22:59:17 4.8 C 40 %
1003 08-11-2019 23:08:18 4.6 C 40 %
1004 08-11-2019 23:18:17 4.6 C 40 %
1005 08-11-2019 23:28:18 4.7 C 40 %
1006 08-11-2019 23:38:17 4.7 C 40 %
1007 08-11-2019 23:49:17 4.6 C 40 %
1008 08-11-2019 23:59:17 4.6 C 40 %
1009 09-11-2019 00:09:17 4.6 C 40 %
1010 09-11-2019 00:19:17 4.5 C 40 %
1011 09-11-2019 00:29:17 4.5 C 40 %
1012 09-11-2019 00:39:17 4.5 C 40 %
1013 09-11-2019 00:48:17 4.5 C 40 %
1014 09-11-2019 00:58:17 4.5 C 40 %
1015 09-11-2019 01:08:17 4.4 C 40 %
1016 09-11-2019 01:18:17 4.4 C 40 %
1017 09-11-2019 01:28:17 4.3 C 40 %
1018 09-11-2019 01:38:17 4.3 C 39 %
1019 09-11-2019 01:49:17 4.2 C 39 %
1020 09-11-2019 01:59:17 4.2 C 39 %
1021 09-11-2019 02:09:18 4.3 C 39 %
1022 09-11-2019 02:19:17 4.3 C 39 %
1023 09-11-2019 02:29:17 4.3 C 38 %
1024 09-11-2019 02:39:17 4.3 C 38 %
1025 09-11-2019 02:49:17 4.3 C 38 %
Sensor: Nr:Datum:Temp:Feuchte:
Aussen-T/F 1026 09-11-2019 02:59:17 4.3 C 38 %
1027 09-11-2019 03:09:18 4.3 C 38 %
1028 09-11-2019 03:19:17 4.3 C 38 %
1029 09-11-2019 03:29:17 4.4 C 38 %
1030 09-11-2019 03:39:17 4.5 C 38 %
1031 09-11-2019 03:49:17 4.5 C 37 %
1032 09-11-2019 03:59:17 4.6 C 37 %
1033 09-11-2019 04:09:18 4.6 C 37 %
1034 09-11-2019 04:19:17 4.5 C 37 %
1035 09-11-2019 04:29:17 4.5 C 37 %
1036 09-11-2019 04:39:17 3.6 C 39 %
1037 09-11-2019 04:49:17 3.5 C 40 %
1038 09-11-2019 04:59:17 3.6 C 40 %
1039 09-11-2019 05:09:17 4 C 40 %
1040 09-11-2019 05:19:17 4.2 C 39 %
1041 09-11-2019 05:29:17 4.5 C 36 %
1042 09-11-2019 05:39:17 4.5 C 36 %
1043 09-11-2019 05:49:17 4.6 C 36 %
1044 09-11-2019 05:59:17 4.4 C 33 %
1045 09-11-2019 06:09:17 4.1 C 31 %
1046 09-11-2019 06:19:17 3.9 C 31 %
1047 09-11-2019 06:29:17 3.8 C 30 %
1048 09-11-2019 06:39:17 3.6 C 31 %
1049 09-11-2019 06:49:17 3.5 C 31 %
1050 09-11-2019 06:59:17 3.2 C 32 %
Sensor: Nr:Datum:Temp:Feuchte:
Aussen-T/F 1051 09-11-2019 07:09:17 2.8 C 35 %
1052 09-11-2019 07:19:17 2.8 C 36 %
1053 09-11-2019 07:29:17 2.8 C 37 %
1054 09-11-2019 07:39:17 2.6 C 38 %
1055 09-11-2019 07:49:18 2.3 C 39 %
1056 09-11-2019 07:59:18 2.3 C 40 %
1057 09-11-2019 08:09:17 2.1 C 40 %
1058 09-11-2019 08:19:17 2.2 C 40 %
1059 09-11-2019 08:29:17 2.4 C 41 %
1060 09-11-2019 08:39:17 2.7 C 41 %
1061 09-11-2019 08:49:18 2.8 C 41 %
1062 09-11-2019 08:59:18 3.6 C 41 %
1063 09-11-2019 09:09:17 3.7 C 40 %
1064 09-11-2019 09:19:17 4 C 37 %
1065 09-11-2019 09:29:17 4.7 C 32 %
1066 09-11-2019 09:39:17 4.8 C 28 %
1067 09-11-2019 09:49:18 5 C 26 %
1068 09-11-2019 09:59:18 5 C 25 %
1069 09-11-2019 10:09:17 5.2 C 25 %
1070 09-11-2019 10:19:17 5.2 C 25 %
1071 09-11-2019 10:29:17 6 C 25 %
1072 09-11-2019 10:39:17 5.8 C 23 %
1073 09-11-2019 10:49:17 5.5 C 23 %
1074 09-11-2019 10:59:17 5.7 C 25 %
1075 09-11-2019 11:09:17 5.4 C 25 %
Sensor: Nr:Datum:Temp:Feuchte:
Aussen-T/F 1076 09-11-2019 11:19:17 5.3 C 23 %
1077 09-11-2019 11:29:17 5.5 C 23 %
1078 09-11-2019 11:39:17 5.5 C 23 %
1079 09-11-2019 11:49:18 5.6 C 23 %
1080 09-11-2019 11:59:18 5.6 C 23 %
1081 09-11-2019 12:09:17 5.6 C 23 %
1082 09-11-2019 12:19:17 5.8 C 23 %
1083 09-11-2019 12:29:17 6 C 23 %
1084 09-11-2019 12:39:17 6.5 C 20 %
1085 09-11-2019 12:49:18 6.5 C 20 %
1086 09-11-2019 12:59:18 6.8 C 20 %
1087 09-11-2019 13:09:17 6.5 C 20 %
1088 09-11-2019 13:19:17 6.8 C 20 %
1089 09-11-2019 13:29:17 6.9 C 20 %
1090 09-11-2019 13:39:17 7.2 C 20 %
1091 09-11-2019 13:49:17 6.9 C 20 %
1092 09-11-2019 13:59:17 6.6 C 20 %
1093 09-11-2019 14:09:17 6.6 C 20 %
1094 09-11-2019 14:19:17 6.6 C 20 %
1095 09-11-2019 14:29:17 6.5 C 20 %
1096 09-11-2019 14:39:17 6.5 C 20 %
1097 09-11-2019 14:49:17 6.5 C 20 %
1098 09-11-2019 14:59:17 6.5 C 21 %
1099 09-11-2019 15:09:17 6.2 C 23 %
1100 09-11-2019 15:19:17 5.7 C 26 %
Sensor: Nr:Datum:Temp:Feuchte:
Aussen-T/F 1101 09-11-2019 15:29:17 5.6 C 29 %
1102 09-11-2019 15:39:17 5.6 C 30 %
1103 09-11-2019 15:49:17 5.6 C 30 %
1104 09-11-2019 15:59:17 5.7 C 29 %
1105 09-11-2019 16:09:18 6 C 27 %
1106 09-11-2019 16:19:17 5.9 C 29 %
1107 09-11-2019 16:29:17 5.8 C 29 %
1108 09-11-2019 16:39:17 5.7 C 30 %
1109 09-11-2019 16:49:17 5.6 C 31 %
1110 09-11-2019 16:59:17 5.6 C 30 %
1111 09-11-2019 17:09:17 5.7 C 30 %
1112 09-11-2019 17:19:17 5.7 C 30 %
1113 09-11-2019 17:29:17 5.4 C 30 %
1114 09-11-2019 17:39:17 5.2 C 30 %
1115 09-11-2019 17:49:18 5 C 31 %
1116 09-11-2019 17:59:18 5.1 C 30 %
1117 09-11-2019 18:09:17 5.1 C 29 %
1118 09-11-2019 18:19:17 4.7 C 30 %
1119 09-11-2019 18:29:17 4.3 C 35 %
1120 09-11-2019 18:39:17 4.1 C 36 %
1121 09-11-2019 18:49:17 3.8 C 38 %
1122 09-11-2019 18:59:17 3.6 C 39 %
1123 09-11-2019 19:09:17 4.3 C 39 %
1124 09-11-2019 19:19:17 4.7 C 32 %
1125 09-11-2019 19:29:17 4.7 C 29 %
Sensor: Nr:Datum:Temp:Feuchte:
Aussen-T/F 1126 09-11-2019 19:39:17 4.6 C 28 %
1127 09-11-2019 19:49:17 4.3 C 30 %
1128 09-11-2019 19:59:17 3.9 C 30 %
1129 09-11-2019 20:09:18 3.4 C 31 %
1130 09-11-2019 20:19:17 2.5 C 33 %
1131 09-11-2019 20:29:17 2.5 C 37 %
1132 09-11-2019 20:39:17 2.7 C 39 %
1133 09-11-2019 20:49:17 2.5 C 39 %
1134 09-11-2019 20:59:17 2.4 C 40 %
1135 09-11-2019 21:09:17 2.4 C 40 %
1136 09-11-2019 21:19:17 2.4 C 40 %
1137 09-11-2019 21:29:17 2.1 C 40 %
1138 09-11-2019 21:39:17 2.1 C 40 %
1139 09-11-2019 21:49:17 2.2 C 41 %
1140 09-11-2019 21:59:17 2 C 41 %
1141 09-11-2019 22:09:17 1.6 C 41 %
1142 09-11-2019 22:19:17 1.2 C 41 %
1143 09-11-2019 22:29:17 1.3 C 42 %
1144 09-11-2019 22:39:17 1.5 C 42 %
1145 09-11-2019 22:49:18 1.4 C 42 %
1146 09-11-2019 22:59:18 1.2 C 42 %
1147 09-11-2019 23:09:17 1 C 41 %
1148 09-11-2019 23:19:17 0.7 C 43 %
1149 09-11-2019 23:29:17 0.6 C 43 %
1150 09-11-2019 23:39:17 0.7 C 43 %
Sensor: Nr:Datum:Temp:Feuchte:
Aussen-T/F 1151 09-11-2019 23:49:17 0.7 C 43 %
1152 09-11-2019 23:59:17 0.2 C 43 %
1153 10-11-2019 00:09:18 0.1 C 43 %
1154 10-11-2019 00:19:17 -0.1 C 43 %
1155 10-11-2019 00:29:17 -0.1 C 42 %
1156 10-11-2019 00:39:17 -0.1 C 43 %
1157 10-11-2019 00:49:17 0.1 C 43 %
1158 10-11-2019 00:59:17 0 C 43 %
1159 10-11-2019 01:09:17 0.4 C 43 %
1160 10-11-2019 01:19:17 0.8 C 43 %
1161 10-11-2019 01:29:17 0.9 C 43 %
1162 10-11-2019 01:39:17 1 C 42 %
1163 10-11-2019 01:49:17 1 C 42 %
1164 10-11-2019 01:59:17 0.8 C 43 %
1165 10-11-2019 02:09:18 1 C 42 %
1166 10-11-2019 02:19:17 0.7 C 43 %
1167 10-11-2019 02:29:17 0.6 C 43 %
1168 10-11-2019 02:39:17 0.7 C 43 %
1169 10-11-2019 02:49:17 0.8 C 43 %
1170 10-11-2019 02:59:17 0.8 C 43 %
1171 10-11-2019 03:09:17 0.6 C 43 %
1172 10-11-2019 03:19:17 0.5 C 43 %
1173 10-11-2019 03:29:17 0.6 C 43 %
1174 10-11-2019 03:39:17 0.5 C 43 %
1175 10-11-2019 03:49:17 0.6 C 43 %
Sensor: Nr:Datum:Temp:Feuchte:
Aussen-T/F 1176 10-11-2019 03:59:18 0.5 C 43 %
1177 10-11-2019 04:09:17 0.4 C 43 %
1178 10-11-2019 04:19:17 0.3 C 42 %
1179 10-11-2019 04:29:17 0.4 C 42 %
1180 10-11-2019 04:39:17 0.4 C 42 %
1181 10-11-2019 04:49:18 0.3 C 42 %
1182 10-11-2019 04:59:18 0.5 C 42 %
1183 10-11-2019 05:09:17 0.5 C 43 %
1184 10-11-2019 05:19:17 0.8 C 43 %
1185 10-11-2019 05:29:17 0.9 C 43 %
1186 10-11-2019 05:39:17 0.9 C 43 %
1187 10-11-2019 05:49:17 0.9 C 43 %
1188 10-11-2019 05:59:17 0.9 C 43 %
1189 10-11-2019 06:09:17 0.9 C 43 %
1190 10-11-2019 06:19:17 1.1 C 41 %
1191 10-11-2019 06:29:17 0.8 C 42 %
1192 10-11-2019 06:39:17 0.9 C 42 %
1193 10-11-2019 06:49:17 0.9 C 42 %
1194 10-11-2019 06:59:17 0.9 C 42 %
1195 10-11-2019 07:09:17 0.9 C 42 %
1196 10-11-2019 07:19:18 0.9 C 43 %
1197 10-11-2019 07:29:18 0.9 C 42 %
1198 10-11-2019 07:39:17 0.9 C 42 %
1199 10-11-2019 07:49:17 0.9 C 42 %
1200 10-11-2019 07:59:17 1 C 41 %
Sensor: Nr:Datum:Temp:Feuchte:
Aussen-T/F 1201 10-11-2019 08:09:17 1.1 C 41 %
1202 10-11-2019 08:19:17 1.2 C 42 %
1203 10-11-2019 08:29:17 1.3 C 41 %
1204 10-11-2019 08:39:17 1.3 C 42 %
1205 10-11-2019 08:49:17 1.4 C 41 %
1206 10-11-2019 08:59:17 1.6 C 41 %
1207 10-11-2019 09:09:18 1.6 C 41 %
1208 10-11-2019 09:19:17 1.8 C 41 %
1209 10-11-2019 09:29:18 1.7 C 41 %
1210 10-11-2019 09:39:17 2 C 40 %
1211 10-11-2019 09:49:17 2.1 C 40 %
1212 10-11-2019 09:59:17 2.3 C 39 %
1213 10-11-2019 10:09:17 2.3 C 38 %
1214 10-11-2019 10:19:17 2.4 C 38 %
1215 10-11-2019 10:29:17 2.4 C 36 %
1216 10-11-2019 10:39:18 2.8 C 36 %
1217 10-11-2019 10:49:17 3.1 C 35 %
1218 10-11-2019 10:59:17 2.8 C 32 %
1219 10-11-2019 11:09:17 3.2 C 33 %
1220 10-11-2019 11:19:17 3.4 C 33 %
1221 10-11-2019 11:29:17 3.5 C 33 %
1222 10-11-2019 11:39:17 3.7 C 33 %
1223 10-11-2019 11:49:17 3.6 C 30 %
1224 10-11-2019 11:59:17 3.5 C 30 %
1225 10-11-2019 12:09:17 3.4 C 30 %
Sensor: Nr:Datum:Temp:Feuchte:
Aussen-T/F 1226 10-11-2019 12:19:17 3.6 C 30 %
1227 10-11-2019 12:29:17 3.6 C 28 %
1228 10-11-2019 12:39:17 3.5 C 27 %
1229 10-11-2019 12:49:17 3.6 C 26 %
1230 10-11-2019 12:59:17 3.6 C 26 %
1231 10-11-2019 13:09:17 3.6 C 26 %
1232 10-11-2019 13:19:17 3.8 C 26 %
1233 10-11-2019 13:29:17 4.1 C 26 %
1234 10-11-2019 13:39:17 4.1 C 25 %
1235 10-11-2019 13:49:17 4.2 C 25 %
1236 10-11-2019 13:59:17 4.1 C 25 %
1237 10-11-2019 14:09:17 4.2 C 25 %
1238 10-11-2019 14:19:17 4.1 C 25 %
1239 10-11-2019 14:29:17 4.3 C 25 %
1240 10-11-2019 14:39:17 4.4 C 25 %
1241 10-11-2019 14:49:17 4.4 C 23 %
1242 10-11-2019 14:59:17 4.5 C 23 %
1243 10-11-2019 15:09:18 4.5 C 23 %
1244 10-11-2019 15:19:17 4.5 C 25 %
1245 10-11-2019 15:29:17 4.5 C 25 %
1246 10-11-2019 15:39:17 4.5 C 25 %
1247 10-11-2019 15:49:17 4.3 C 25 %
1248 10-11-2019 15:59:17 4.3 C 26 %
1249 10-11-2019 16:09:17 4.2 C 25 %
1250 10-11-2019 16:19:17 4.1 C 26 %
Sensor: Nr:Datum:Temp:Feuchte:
Aussen-T/F 1251 10-11-2019 16:29:17 4.1 C 26 %
1252 10-11-2019 16:39:17 4 C 27 %
1253 10-11-2019 16:49:18 3.9 C 28 %
1254 10-11-2019 16:59:18 3.8 C 28 %
1255 10-11-2019 17:09:17 3.7 C 29 %
1256 10-11-2019 17:19:17 3.7 C 29 %
1257 10-11-2019 17:29:17 3.7 C 30 %
1258 10-11-2019 17:39:17 3.7 C 30 %
1259 10-11-2019 17:49:18 3.7 C 30 %
1260 10-11-2019 17:59:18 3.6 C 30 %
1261 10-11-2019 18:09:17 3.7 C 30 %
1262 10-11-2019 18:19:17 3.7 C 30 %
1263 10-11-2019 18:29:17 3.6 C 30 %
1264 10-11-2019 18:39:17 3.6 C 30 %
1265 10-11-2019 18:49:18 3.6 C 30 %
1266 10-11-2019 18:59:18 3.5 C 31 %
1267 10-11-2019 19:09:17 3.5 C 31 %
1268 10-11-2019 19:19:17 3.4 C 31 %
1269 10-11-2019 19:29:17 3.4 C 32 %
1270 10-11-2019 19:39:17 3.4 C 32 %
1271 10-11-2019 19:49:17 3.4 C 32 %
1272 10-11-2019 19:59:17 3.4 C 33 %
1273 10-11-2019 20:09:17 3.5 C 34 %
1274 10-11-2019 20:19:17 3.6 C 34 %
1275 10-11-2019 20:29:17 3.6 C 33 %
Sensor: Nr:Datum:Temp:Feuchte:
Aussen-T/F 1276 10-11-2019 20:39:17 3.6 C 33 %
1277 10-11-2019 20:49:17 3.7 C 34 %
1278 10-11-2019 20:59:17 3.7 C 34 %
1279 10-11-2019 21:09:18 3.7 C 34 %
1280 10-11-2019 21:19:17 3.7 C 32 %
1281 10-11-2019 21:29:17 3.7 C 32 %
1282 10-11-2019 21:39:17 3.6 C 32 %
1283 10-11-2019 21:49:17 3.6 C 33 %
1284 10-11-2019 21:59:17 3.6 C 33 %
1285 10-11-2019 22:09:17 3.6 C 32 %
1286 10-11-2019 22:19:17 3.6 C 33 %
1287 10-11-2019 22:29:17 3.7 C 34 %
1288 10-11-2019 22:39:17 3.7 C 35 %
1289 10-11-2019 22:49:17 3.8 C 32 %
1290 10-11-2019 22:59:17 3.9 C 31 %
1291 10-11-2019 23:09:17 3.9 C 31 %
1292 10-11-2019 23:19:17 3.8 C 30 %
1293 10-11-2019 23:29:17 3.8 C 29 %
1294 10-11-2019 23:39:17 3.8 C 30 %
1295 10-11-2019 23:49:17 3.8 C 29 %
1296 10-11-2019 23:59:17 3.8 C 29 %
1297 11-11-2019 00:09:17 3.8 C 28 %
1298 11-11-2019 00:19:17 3.7 C 27 %
1299 11-11-2019 00:29:17 3.6 C 27 %
1300 11-11-2019 00:39:17 3.5 C 28 %
Sensor: Nr:Datum:Temp:Feuchte:
Aussen-T/F 1301 11-11-2019 00:49:17 3.5 C 27 %
1302 11-11-2019 00:59:17 3.4 C 27 %
1303 11-11-2019 01:09:17 3.2 C 27 %
1304 11-11-2019 01:19:17 3.2 C 27 %
1305 11-11-2019 01:29:17 3.1 C 28 %
1306 11-11-2019 01:39:17 3.1 C 28 %
1307 11-11-2019 01:49:17 3 C 28 %
1308 11-11-2019 01:59:17 3 C 28 %
1309 11-11-2019 02:09:17 3.1 C 28 %
1310 11-11-2019 02:19:17 3 C 29 %
1311 11-11-2019 02:29:17 3 C 28 %
1312 11-11-2019 02:39:17 3.1 C 28 %
1313 11-11-2019 02:49:17 2.8 C 28 %
1314 11-11-2019 02:59:17 2.8 C 29 %
1315 11-11-2019 03:09:17 2.7 C 30 %
1316 11-11-2019 03:19:17 2.7 C 29 %
1317 11-11-2019 03:29:17 2.7 C 29 %
1318 11-11-2019 03:39:17 2.6 C 29 %
1319 11-11-2019 03:49:17 2.5 C 28 %
1320 11-11-2019 03:59:17 2.5 C 28 %
1321 11-11-2019 04:09:17 2.4 C 29 %
1322 11-11-2019 04:19:17 2.4 C 30 %
1323 11-11-2019 04:29:17 2.4 C 30 %
1324 11-11-2019 04:39:17 2.4 C 30 %
1325 11-11-2019 04:49:17 2.5 C 30 %
Sensor: Nr:Datum:Temp:Feuchte:
Aussen-T/F 1326 11-11-2019 04:59:17 2.5 C 30 %
1327 11-11-2019 05:09:17 2.6 C 30 %
1328 11-11-2019 05:19:17 2.6 C 30 %
1329 11-11-2019 05:29:17 2.6 C 30 %
1330 11-11-2019 05:39:17 2.6 C 30 %
1331 11-11-2019 05:49:17 2.7 C 30 %
1332 11-11-2019 05:59:17 2.6 C 30 %
1333 11-11-2019 06:09:17 2.7 C 29 %
1334 11-11-2019 06:19:17 2.7 C 29 %
1335 11-11-2019 06:29:17 2.6 C 30 %
1336 11-11-2019 06:39:17 2.7 C 30 %
1337 11-11-2019 06:49:17 2.7 C 30 %
1338 11-11-2019 06:59:17 2.7 C 31 %
1339 11-11-2019 07:09:17 2.7 C 31 %
1340 11-11-2019 07:19:18 2.7 C 31 %
1341 11-11-2019 07:29:18 2.8 C 31 %
1342 11-11-2019 07:39:17 2.9 C 32 %
1343 11-11-2019 07:49:17 3 C 31 %
1344 11-11-2019 07:59:17 3.2 C 30 %
1345 11-11-2019 08:09:17 3.5 C 26 %
1346 11-11-2019 08:19:17 3.7 C 25 %
1347 11-11-2019 08:29:17 3.9 C 25 %
1348 11-11-2019 08:39:17 4.2 C 21 %
1349 11-11-2019 08:49:17 4.4 C 20 %
1350 11-11-2019 08:59:17 4.7 C 20 %
Sensor: Nr:Datum:Temp:Feuchte:
Aussen-T/F 1351 11-11-2019 09:09:17 4.7 C 20 %
1352 11-11-2019 09:19:17 4.5 C 20 %
1353 11-11-2019 09:29:17 4.9 C 20 %
1354 11-11-2019 09:39:17 5.2 C 20 %
1355 11-11-2019 09:49:17 5.4 C 20 %
1356 11-11-2019 09:59:17 5.2 C 20 %
1357 11-11-2019 10:09:17 5.2 C 20 %
1358 11-11-2019 10:19:17 5.2 C 20 %
1359 11-11-2019 10:29:17 5 C 20 %
1360 11-11-2019 10:39:17 5.1 C 20 %
1361 11-11-2019 10:49:17 4.8 C 20 %
1362 11-11-2019 10:59:17 5.3 C 20 %
1363 11-11-2019 11:09:17 5.2 C 20 %
1364 11-11-2019 11:19:17 5.6 C 20 %
1365 11-11-2019 11:29:17 5.9 C 20 %
1366 11-11-2019 11:39:17 5.9 C 20 %
1367 11-11-2019 11:49:17 6 C 20 %
1368 11-11-2019 11:59:17 5.8 C 20 %
1369 11-11-2019 12:09:17 6.4 C 20 %
1370 11-11-2019 12:19:17 6.2 C 20 %
1371 11-11-2019 12:29:17 6.4 C 20 %
1372 11-11-2019 12:39:17 6.5 C 20 %
1373 11-11-2019 12:49:17 6.5 C 20 %
1374 11-11-2019 12:59:17 7.1 C 20 %
1375 11-11-2019 13:09:17 7.2 C 20 %
Sensor: Nr:Datum:Temp:Feuchte:
Aussen-T/F 1376 11-11-2019 13:19:17 7.2 C 20 %
1377 11-11-2019 13:29:17 6.5 C 20 %
1378 11-11-2019 13:39:17 6.7 C 20 %
1379 11-11-2019 13:49:17 6.5 C 20 %
1380 11-11-2019 13:59:17 6.4 C 20 %
1381 11-11-2019 14:09:17 6.2 C 20 %
1382 11-11-2019 14:19:17 6.2 C 20 %
1383 11-11-2019 14:29:17 6.3 C 20 %
1384 11-11-2019 14:39:17 5.8 C 20 %
1385 11-11-2019 14:49:17 5.4 C 20 %
1386 11-11-2019 14:59:17 5.3 C 20 %
1387 11-11-2019 15:09:17 5.5 C 20 %
1388 11-11-2019 15:19:17 5.5 C 20 %
1389 11-11-2019 15:29:17 5.3 C 20 %
1390 11-11-2019 15:39:17 5.1 C 20 %
1391 11-11-2019 15:49:17 4.9 C 20 %
1392 11-11-2019 15:59:17 4.8 C 20 %
1393 11-11-2019 16:09:17 4.7 C 21 %
1394 11-11-2019 16:19:17 4.7 C 20 %
1395 11-11-2019 16:29:17 4.6 C 23 %
1396 11-11-2019 16:39:17 4.6 C 23 %
1397 11-11-2019 16:49:17 4.6 C 23 %
1398 11-11-2019 16:59:17 4.5 C 23 %
1399 11-11-2019 17:09:17 4.5 C 21 %
1400 11-11-2019 17:19:17 4.5 C 23 %
Sensor: Nr:Datum:Temp:Feuchte:
Aussen-T/F 1401 11-11-2019 17:29:17 4.4 C 23 %
1402 11-11-2019 17:39:17 4.3 C 23 %
1403 11-11-2019 17:49:17 4.1 C 25 %
1404 11-11-2019 17:59:17 4.1 C 25 %
1405 11-11-2019 18:09:17 3.9 C 26 %
1406 11-11-2019 18:19:17 4 C 25 %
1407 11-11-2019 18:29:17 4.1 C 25 %
1408 11-11-2019 18:39:17 4 C 26 %
1409 11-11-2019 18:49:17 3.9 C 30 %
1410 11-11-2019 18:59:17 3.9 C 31 %
1411 11-11-2019 19:09:17 3.9 C 35 %
1412 11-11-2019 19:19:17 3.8 C 36 %
1413 11-11-2019 19:29:17 3.9 C 39 %
1414 11-11-2019 19:39:17 3.9 C 40 %
1415 11-11-2019 19:49:17 3.8 C 40 %
1416 11-11-2019 19:59:17 3.8 C 41 %
1417 11-11-2019 20:09:17 3.8 C 41 %
1418 11-11-2019 20:19:17 3.8 C 41 %
1419 11-11-2019 20:29:17 3.8 C 40 %
1420 11-11-2019 20:39:18 3.9 C 40 %
1421 11-11-2019 20:49:17 3.9 C 40 %
1422 11-11-2019 20:59:17 4 C 39 %
1423 11-11-2019 21:09:17 4.1 C 39 %
1424 11-11-2019 21:19:17 4.2 C 37 %
1425 11-11-2019 21:29:17 4.2 C 37 %
Sensor: Nr:Datum:Temp:Feuchte:
Aussen-T/F 1426 11-11-2019 21:39:17 4.3 C 37 %
1427 11-11-2019 21:49:17 4.4 C 36 %
1428 11-11-2019 21:59:17 4.4 C 36 %
1429 11-11-2019 22:09:17 4.4 C 36 %
1430 11-11-2019 22:19:17 4.4 C 36 %
1431 11-11-2019 22:29:17 4.3 C 35 %
1432 11-11-2019 22:39:17 4.4 C 37 %
1433 11-11-2019 22:49:17 4.4 C 38 %
1434 11-11-2019 22:59:17 4.4 C 39 %
1435 11-11-2019 23:09:17 4.5 C 39 %
1436 11-11-2019 23:19:17 4.5 C 39 %
1437 11-11-2019 23:29:17 4.5 C 39 %
1438 11-11-2019 23:39:17 4.5 C 39 %
1439 11-11-2019 23:49:17 4.5 C 38 %
1440 11-11-2019 23:59:17 4.2 C 38 %
1441 12-11-2019 00:09:17 4.3 C 40 %
1442 12-11-2019 00:19:17 4.4 C 40 %
1443 12-11-2019 00:29:17 4.3 C 40 %
1444 12-11-2019 00:39:17 4.5 C 39 %
1445 12-11-2019 00:49:17 3.8 C 38 %
1446 12-11-2019 00:59:17 4 C 40 %
1447 12-11-2019 01:09:17 4.5 C 37 %
1448 12-11-2019 01:19:17 4.8 C 35 %
1449 12-11-2019 01:29:17 4.7 C 32 %
1450 12-11-2019 01:39:17 5 C 28 %
Sensor: Nr:Datum:Temp:Feuchte:
Aussen-T/F 1451 12-11-2019 01:49:17 4.9 C 28 %
1452 12-11-2019 01:59:17 5 C 27 %
1453 12-11-2019 02:09:17 5.2 C 25 %
1454 12-11-2019 02:19:17 4.9 C 30 %
1455 12-11-2019 02:29:17 4.7 C 31 %
1456 12-11-2019 02:39:17 4.7 C 32 %
1457 12-11-2019 02:49:17 5.1 C 26 %
1458 12-11-2019 02:59:17 5 C 28 %
1459 12-11-2019 03:09:17 5.1 C 26 %
1460 12-11-2019 03:19:17 5 C 26 %
1461 12-11-2019 03:29:17 4.8 C 28 %
1462 12-11-2019 03:39:17 4.9 C 27 %
1463 12-11-2019 03:49:17 4.8 C 27 %
1464 12-11-2019 03:59:17 4.8 C 28 %
1465 12-11-2019 04:09:17 4.8 C 29 %
1466 12-11-2019 04:19:17 5.1 C 25 %
1467 12-11-2019 04:29:17 5 C 25 %
1468 12-11-2019 04:39:17 5.2 C 23 %
1469 12-11-2019 04:49:17 5 C 25 %
1470 12-11-2019 04:59:17 4.9 C 26 %
1471 12-11-2019 05:09:17 4.7 C 26 %
1472 12-11-2019 05:19:17 4.5 C 30 %
1473 12-11-2019 05:29:17 4.5 C 31 %
1474 12-11-2019 05:39:17 4.4 C 31 %
1475 12-11-2019 05:49:17 4.4 C 30 %
Sensor: Nr:Datum:Temp:Feuchte:
Aussen-T/F 1476 12-11-2019 05:59:17 4.5 C 30 %
1477 12-11-2019 06:09:17 4.6 C 30 %
1478 12-11-2019 06:19:18 4.8 C 29 %
1479 12-11-2019 06:29:18 4.9 C 26 %
1480 12-11-2019 06:39:17 4.7 C 26 %
1481 12-11-2019 06:49:17 4.8 C 26 %
1482 12-11-2019 06:59:17 4.9 C 26 %
1483 12-11-2019 07:09:17 4.9 C 25 %
1484 12-11-2019 07:19:17 5 C 25 %
1485 12-11-2019 07:29:17 5 C 23 %
1486 12-11-2019 07:39:17 5.2 C 21 %
1487 12-11-2019 07:49:17 5.5 C 23 %
1488 12-11-2019 07:59:17 5 C 23 %
1489 12-11-2019 08:09:17 5.1 C 25 %
1490 12-11-2019 08:19:17 5.1 C 25 %
1491 12-11-2019 08:29:17 5.2 C 25 %
1492 12-11-2019 08:39:17 5.4 C 20 %
1493 12-11-2019 08:49:17 5.3 C 21 %
1494 12-11-2019 08:59:17 5.6 C 20 %
1495 12-11-2019 09:09:17 6 C 20 %
1496 12-11-2019 09:19:17 6.3 C 20 %
1497 12-11-2019 09:29:17 6.4 C 20 %
1498 12-11-2019 09:39:17 7.2 C 20 %
1499 12-11-2019 09:49:17 7.1 C 20 %
1500 12-11-2019 09:59:17 7.2 C 20 %
Sensor: Nr:Datum:Temp:Feuchte:
Aussen-T/F 1501 12-11-2019 10:09:17 7.5 C 20 %
1502 12-11-2019 10:19:17 7.8 C 20 %
1503 12-11-2019 10:29:17 7.8 C 20 %
1504 12-11-2019 10:39:17 7.9 C 20 %
1505 12-11-2019 10:49:17 8.3 C 20 %
1506 12-11-2019 10:59:17 8.2 C 20 %
1507 12-11-2019 11:09:17 8.1 C 20 %
1508 12-11-2019 11:19:17 8 C 20 %
1509 12-11-2019 11:29:17 7.5 C 20 %
1510 12-11-2019 11:39:17 7.1 C 20 %
1511 12-11-2019 11:49:17 7 C 20 %
1512 12-11-2019 11:59:17 7.1 C 20 %
1513 12-11-2019 12:09:17 7.6 C 20 %
1514 12-11-2019 12:19:17 7.8 C 20 %
1515 12-11-2019 12:29:17 8.4 C 20 %
1516 12-11-2019 12:39:17 7.9 C 20 %
1517 12-11-2019 12:49:17 7.6 C 20 %
1518 12-11-2019 12:59:17 7.7 C 20 %
1519 12-11-2019 13:09:17 7.8 C 20 %
1520 12-11-2019 13:19:17 7.5 C 20 %
1521 12-11-2019 13:29:17 7.5 C 20 %
1522 12-11-2019 13:39:17 7.3 C 20 %
1523 12-11-2019 13:49:17 7.3 C 20 %
1524 12-11-2019 13:59:17 7.5 C 20 %
1525 12-11-2019 14:09:17 7.5 C 20 %
Sensor: Nr:Datum:Temp:Feuchte:
Aussen-T/F 1526 12-11-2019 14:19:17 7.9 C 20 %
1527 12-11-2019 14:29:17 7.8 C 20 %
1528 12-11-2019 14:39:17 7.6 C 20 %
1529 12-11-2019 14:49:17 7.6 C 20 %
1530 12-11-2019 14:59:17 7.7 C 20 %
1531 12-11-2019 15:09:17 7.8 C 20 %
1532 12-11-2019 15:19:17 7.8 C 20 %
1533 12-11-2019 15:29:17 7.8 C 20 %
1534 12-11-2019 15:39:17 7.4 C 20 %
1535 12-11-2019 15:49:17 7.2 C 20 %
1536 12-11-2019 15:59:17 7.2 C 20 %
1537 12-11-2019 16:09:17 7.1 C 20 %
1538 12-11-2019 16:19:17 7 C 20 %
1539 12-11-2019 16:29:17 6.9 C 20 %
1540 12-11-2019 16:39:17 6.8 C 20 %
1541 12-11-2019 16:49:17 6.4 C 20 %
1542 12-11-2019 16:59:17 6.4 C 20 %
1543 12-11-2019 17:09:17 6.3 C 20 %
1544 12-11-2019 17:19:17 6 C 20 %
1545 12-11-2019 17:29:17 6 C 20 %
1546 12-11-2019 17:39:17 6.1 C 20 %
1547 12-11-2019 17:49:17 5.7 C 20 %
1548 12-11-2019 17:59:17 5.5 C 20 %
1549 12-11-2019 18:09:17 4.8 C 26 %
1550 12-11-2019 18:19:17 4.7 C 26 %
Sensor: Nr:Datum:Temp:Feuchte:
Aussen-T/F 1551 12-11-2019 18:29:17 5.1 C 21 %
1552 12-11-2019 18:39:17 4.9 C 26 %
1553 12-11-2019 18:49:17 4.6 C 25 %
1554 12-11-2019 18:59:17 4.8 C 23 %
1555 12-11-2019 19:09:18 4.4 C 25 %
1556 12-11-2019 19:19:17 3.7 C 28 %
1557 12-11-2019 19:29:17 3.2 C 30 %
1558 12-11-2019 19:39:17 3 C 31 %
1559 12-11-2019 19:49:18 2.8 C 32 %
1560 12-11-2019 19:59:18 2.5 C 34 %
1561 12-11-2019 20:09:17 2.5 C 34 %
1562 12-11-2019 20:19:17 2.2 C 33 %
1563 12-11-2019 20:29:17 1.8 C 36 %
1564 12-11-2019 20:39:17 1.5 C 37 %
1565 12-11-2019 20:49:17 1.7 C 41 %
1566 12-11-2019 20:59:17 2.6 C 42 %
1567 12-11-2019 21:09:17 3.2 C 35 %
1568 12-11-2019 21:19:17 2.7 C 32 %
1569 12-11-2019 21:29:17 2.1 C 33 %
1570 12-11-2019 21:39:17 2.4 C 36 %
1571 12-11-2019 21:49:17 2.6 C 35 %
1572 12-11-2019 21:59:17 3.3 C 32 %
1573 12-11-2019 22:09:17 3.4 C 32 %
1574 12-11-2019 22:19:17 3.6 C 31 %
1575 12-11-2019 22:29:17 4 C 27 %
Sensor: Nr:Datum:Temp:Feuchte:
Aussen-T/F 1576 12-11-2019 22:39:17 4.2 C 26 %
1577 12-11-2019 22:49:17 4.2 C 26 %
1578 12-11-2019 22:59:17 4.3 C 26 %
1579 12-11-2019 23:09:17 4.4 C 23 %
1580 12-11-2019 23:19:17 4.3 C 23 %
1581 12-11-2019 23:29:17 4.3 C 23 %
1582 12-11-2019 23:39:17 4.3 C 25 %
1583 12-11-2019 23:49:17 4.4 C 25 %
1584 12-11-2019 23:59:17 4.4 C 21 %
1585 13-11-2019 00:09:17 4.4 C 21 %
1586 13-11-2019 00:19:17 4.4 C 21 %
1587 13-11-2019 00:29:17 4.3 C 23 %
1588 13-11-2019 00:39:17 4.3 C 21 %
1589 13-11-2019 00:49:17 4.3 C 21 %
1590 13-11-2019 00:59:17 4.2 C 25 %
1591 13-11-2019 01:09:17 4.1 C 25 %
1592 13-11-2019 01:19:17 4 C 25 %
1593 13-11-2019 01:29:17 3.7 C 25 %
1594 13-11-2019 01:39:17 3.6 C 26 %
1595 13-11-2019 01:49:17 2.8 C 29 %
1596 13-11-2019 01:59:17 2.4 C 31 %
1597 13-11-2019 02:09:17 2.3 C 32 %
1598 13-11-2019 02:19:17 2.2 C 32 %
1599 13-11-2019 02:29:17 2.1 C 31 %
1600 13-11-2019 02:39:17 2.8 C 29 %
Sensor: Nr:Datum:Temp:Feuchte:
Aussen-T/F 1601 13-11-2019 02:49:17 3.1 C 28 %
1602 13-11-2019 02:59:17 3.9 C 21 %
1603 13-11-2019 03:09:17 3.9 C 20 %
1604 13-11-2019 03:19:17 4 C 20 %
1605 13-11-2019 03:29:17 3.8 C 21 %
1606 13-11-2019 03:39:17 4 C 20 %
1607 13-11-2019 03:49:17 3.9 C 23 %
1608 13-11-2019 03:59:17 4 C 20 %
1609 13-11-2019 04:09:17 4.1 C 20 %
1610 13-11-2019 04:19:17 3.9 C 21 %
1611 13-11-2019 04:29:17 3.8 C 23 %
1612 13-11-2019 04:39:17 4.2 C 20 %
1613 13-11-2019 04:49:17 4 C 20 %
1614 13-11-2019 04:59:17 3.9 C 21 %
1615 13-11-2019 05:09:17 3.6 C 25 %
1616 13-11-2019 05:19:17 3.8 C 25 %
1617 13-11-2019 05:29:17 3.7 C 26 %
1618 13-11-2019 05:39:17 3.8 C 26 %
1619 13-11-2019 05:49:17 3.8 C 26 %
1620 13-11-2019 05:59:17 3.8 C 26 %
1621 13-11-2019 06:09:17 3.8 C 26 %
1622 13-11-2019 06:19:17 3.9 C 25 %
1623 13-11-2019 06:29:17 3.9 C 25 %
1624 13-11-2019 06:39:17 3.9 C 25 %
1625 13-11-2019 06:49:17 3.2 C 25 %
Sensor: Nr:Datum:Temp:Feuchte:
Aussen-T/F 1626 13-11-2019 06:59:17 3.1 C 30 %
1627 13-11-2019 07:09:17 3.3 C 30 %
1628 13-11-2019 07:19:17 3.3 C 30 %
1629 13-11-2019 07:29:17 3.7 C 27 %
1630 13-11-2019 07:39:17 3.7 C 27 %
1631 13-11-2019 07:49:17 3.8 C 26 %
1632 13-11-2019 07:59:17 3.9 C 26 %
1633 13-11-2019 08:09:17 4 C 25 %
1634 13-11-2019 08:19:17 4.2 C 25 %
1635 13-11-2019 08:29:17 4.3 C 21 %
1636 13-11-2019 08:39:17 4.5 C 20 %
1637 13-11-2019 08:49:17 4.5 C 21 %
1638 13-11-2019 08:59:17 4.5 C 21 %
1639 13-11-2019 09:09:17 4.7 C 21 %
1640 13-11-2019 09:19:17 5.1 C 20 %
1641 13-11-2019 09:29:17 5.5 C 20 %
1642 13-11-2019 09:39:17 5.6 C 20 %
1643 13-11-2019 09:49:17 5.6 C 20 %
1644 13-11-2019 09:59:17 5.5 C 20 %
1645 13-11-2019 10:09:17 5.6 C 20 %
1646 13-11-2019 10:19:17 5.7 C 20 %
1647 13-11-2019 10:29:17 5.8 C 20 %
1648 13-11-2019 10:39:17 5.9 C 20 %
1649 13-11-2019 10:49:17 5.7 C 20 %
1650 13-11-2019 10:59:17 5.7 C 20 %
Sensor: Nr:Datum:Temp:Feuchte:
Aussen-T/F 1651 13-11-2019 11:09:17 5.6 C 20 %
1652 13-11-2019 11:19:17 5.8 C 20 %
1653 13-11-2019 11:29:17 6 C 20 %
1654 13-11-2019 11:39:17 6.1 C 20 %
1655 13-11-2019 11:49:17 6.1 C 20 %
1656 13-11-2019 11:59:17 6.6 C 20 %
1657 13-11-2019 12:09:17 6.5 C 20 %
1658 13-11-2019 12:19:17 6.6 C 20 %
1659 13-11-2019 12:29:17 6.8 C 20 %
1660 13-11-2019 12:39:17 6.7 C 20 %
1661 13-11-2019 12:49:17 6.4 C 20 %
1662 13-11-2019 12:59:17 6.7 C 20 %
1663 13-11-2019 13:09:17 6.8 C 20 %
1664 13-11-2019 13:19:17 6.7 C 20 %
1665 13-11-2019 13:29:17 6.4 C 20 %
1666 13-11-2019 13:39:17 6.5 C 20 %
1667 13-11-2019 13:49:17 6.4 C 20 %
1668 13-11-2019 13:59:17 6.3 C 20 %
1669 13-11-2019 14:09:17 6.3 C 20 %
1670 13-11-2019 14:19:17 6.3 C 20 %
1671 13-11-2019 14:29:17 6.2 C 20 %
1672 13-11-2019 14:39:17 6.2 C 20 %
1673 13-11-2019 14:49:17 6.2 C 20 %
1674 13-11-2019 14:59:17 6.3 C 20 %
1675 13-11-2019 15:09:17 6.3 C 20 %
Sensor: Nr:Datum:Temp:Feuchte:
Aussen-T/F 1676 13-11-2019 15:19:17 6.3 C 20 %
1677 13-11-2019 15:29:17 6.2 C 20 %
1678 13-11-2019 15:39:17 6.2 C 20 %
1679 13-11-2019 15:49:17 6.2 C 20 %
1680 13-11-2019 15:59:17 6.2 C 20 %
1681 13-11-2019 16:09:17 6.2 C 20 %
1682 13-11-2019 16:19:17 6.2 C 20 %
1683 13-11-2019 16:29:17 6.1 C 20 %
1684 13-11-2019 16:39:17 6 C 20 %
1685 13-11-2019 16:49:17 6 C 20 %
1686 13-11-2019 16:59:17 6 C 20 %
1687 13-11-2019 17:09:17 6 C 20 %
1688 13-11-2019 17:19:17 6 C 20 %
1689 13-11-2019 17:29:17 5.9 C 20 %
1690 13-11-2019 17:39:17 6 C 20 %
1691 13-11-2019 17:49:17 5.9 C 20 %
1692 13-11-2019 17:59:17 5.9 C 20 %
1693 13-11-2019 18:09:17 5.8 C 20 %
1694 13-11-2019 18:19:17 5.8 C 20 %
1695 13-11-2019 18:29:17 5.9 C 20 %
1696 13-11-2019 18:39:17 5.8 C 20 %
1697 13-11-2019 18:49:17 5.7 C 20 %
1698 13-11-2019 18:59:17 5.6 C 21 %
1699 13-11-2019 19:09:18 5.6 C 21 %
1700 13-11-2019 19:19:17 5.6 C 23 %
Sensor: Nr:Datum:Temp:Feuchte:
Aussen-T/F 1701 13-11-2019 19:29:17 5.6 C 20 %
1702 13-11-2019 19:39:17 5.6 C 21 %
1703 13-11-2019 19:49:17 5.8 C 20 %
1704 13-11-2019 19:59:17 5.8 C 20 %
1705 13-11-2019 20:09:17 5.8 C 20 %
1706 13-11-2019 20:19:17 5.9 C 20 %
1707 13-11-2019 20:29:17 5.8 C 20 %
1708 13-11-2019 20:39:17 5.8 C 20 %
1709 13-11-2019 20:49:17 5.8 C 20 %
1710 13-11-2019 20:59:17 5.6 C 20 %
1711 13-11-2019 21:09:17 5.5 C 23 %
1712 13-11-2019 21:19:17 5.4 C 25 %
1713 13-11-2019 21:29:17 4.8 C 27 %
1714 13-11-2019 21:39:17 4.8 C 27 %
1715 13-11-2019 21:49:17 4.7 C 28 %
1716 13-11-2019 21:59:17 4.7 C 29 %
1717 13-11-2019 22:09:17 4.2 C 28 %
1718 13-11-2019 22:19:17 3.8 C 32 %
1719 13-11-2019 22:29:17 3.8 C 33 %
1720 13-11-2019 22:39:17 3.8 C 33 %
1721 13-11-2019 22:49:17 4.1 C 32 %
1722 13-11-2019 22:59:17 4 C 31 %
1723 13-11-2019 23:09:17 4.1 C 29 %
1724 13-11-2019 23:19:17 3.4 C 33 %
1725 13-11-2019 23:29:17 3.6 C 33 %
Sensor: Nr:Datum:Temp:Feuchte:
Aussen-T/F 1726 13-11-2019 23:39:17 3.6 C 33 %
1727 13-11-2019 23:49:17 3.9 C 33 %
1728 13-11-2019 23:59:17 4.2 C 30 %
1729 14-11-2019 00:09:17 4.4 C 30 %
1730 14-11-2019 00:19:17 4.5 C 31 %
1731 14-11-2019 00:29:17 4.7 C 30 %
1732 14-11-2019 00:39:17 4.6 C 30 %
1733 14-11-2019 00:49:17 4.7 C 31 %
1734 14-11-2019 00:59:17 4.4 C 30 %
1735 14-11-2019 01:09:17 3.7 C 31 %
1736 14-11-2019 01:19:17 3.8 C 37 %
1737 14-11-2019 01:29:17 3.7 C 37 %
1738 14-11-2019 01:39:17 3.8 C 39 %
1739 14-11-2019 01:49:17 3.8 C 38 %
1740 14-11-2019 01:59:17 3.9 C 39 %
1741 14-11-2019 02:09:17 4 C 37 %
1742 14-11-2019 02:19:17 4 C 35 %
1743 14-11-2019 02:29:17 4.1 C 36 %
1744 14-11-2019 02:39:17 4.4 C 35 %
1745 14-11-2019 02:49:17 4.5 C 33 %
1746 14-11-2019 02:59:17 4.8 C 31 %
1747 14-11-2019 03:09:17 5 C 29 %
1748 14-11-2019 03:19:17 4.8 C 30 %
1749 14-11-2019 03:29:17 5 C 30 %
1750 14-11-2019 03:39:17 5.1 C 29 %
Sensor: Nr:Datum:Temp:Feuchte:
Aussen-T/F 1751 14-11-2019 03:49:17 5.2 C 28 %
1752 14-11-2019 03:59:17 5.1 C 28 %
1753 14-11-2019 04:09:17 5.2 C 29 %
1754 14-11-2019 04:19:17 5.1 C 29 %
1755 14-11-2019 04:29:17 4.6 C 31 %
1756 14-11-2019 04:39:17 4.5 C 32 %
1757 14-11-2019 04:49:17 4.6 C 33 %
1758 14-11-2019 04:59:17 4.2 C 31 %
1759 14-11-2019 05:09:17 3.4 C 33 %
1760 14-11-2019 05:19:17 3.3 C 40 %
1761 14-11-2019 05:29:17 3.7 C 41 %
1762 14-11-2019 05:39:18 4.1 C 40 %
1763 14-11-2019 05:49:17 4.4 C 38 %
1764 14-11-2019 05:59:17 4.4 C 36 %
1765 14-11-2019 06:09:17 3.6 C 34 %
1766 14-11-2019 06:19:17 3.5 C 36 %
1767 14-11-2019 06:29:17 3.5 C 36 %
1768 14-11-2019 06:39:17 3.9 C 38 %
1769 14-11-2019 06:49:17 4.2 C 36 %
1770 14-11-2019 06:59:17 4.6 C 30 %
1771 14-11-2019 07:09:17 4.6 C 30 %
1772 14-11-2019 07:19:17 4.8 C 26 %
1773 14-11-2019 07:29:17 4.8 C 25 %
1774 14-11-2019 07:39:17 4.5 C 26 %
1775 14-11-2019 07:49:17 4.5 C 26 %
Sensor: Nr:Datum:Temp:Feuchte:
Aussen-T/F 1776 14-11-2019 07:59:17 4.5 C 26 %
1777 14-11-2019 08:09:17 4.2 C 26 %
1778 14-11-2019 08:19:17 4.2 C 26 %
1779 14-11-2019 08:29:17 4.6 C 26 %
1780 14-11-2019 08:39:17 4.7 C 25 %
1781 14-11-2019 08:49:17 4.6 C 25 %
1782 14-11-2019 08:59:17 4.5 C 26 %
1783 14-11-2019 09:09:17 5 C 21 %
1784 14-11-2019 09:19:17 5 C 21 %
1785 14-11-2019 09:29:17 5.4 C 20 %
1786 14-11-2019 09:39:17 5.6 C 20 %
1787 14-11-2019 09:49:17 5.6 C 20 %
1788 14-11-2019 09:59:17 5.9 C 20 %
1789 14-11-2019 10:09:17 6.1 C 20 %
1790 14-11-2019 10:19:17 6.3 C 20 %
1791 14-11-2019 10:29:17 6.5 C 20 %
1792 14-11-2019 10:39:17 6.7 C 20 %
1793 14-11-2019 10:49:17 7.1 C 20 %
1794 14-11-2019 10:59:17 7.2 C 20 %
1795 14-11-2019 11:09:17 7.4 C 20 %
1796 14-11-2019 11:19:17 7.9 C 20 %
1797 14-11-2019 11:29:17 8.2 C 20 %
1798 14-11-2019 11:39:17 8.2 C 20 %
1799 14-11-2019 11:49:17 8.2 C 20 %
1800 14-11-2019 11:59:17 8.9 C 20 %
Sensor: Nr:Datum:Temp:Feuchte:
Aussen-T/F 1801 14-11-2019 12:09:17 9.3 C 20 %
1802 14-11-2019 12:19:17 9.1 C 20 %
1803 14-11-2019 12:29:17 9 C 20 %
1804 14-11-2019 12:39:17 8.6 C 20 %
1805 14-11-2019 12:49:17 8.3 C 20 %
1806 14-11-2019 12:59:17 8.3 C 20 %
1807 14-11-2019 13:09:17 8.6 C 20 %
1808 14-11-2019 13:19:17 8.8 C 20 %
1809 14-11-2019 13:29:17 8.6 C 20 %
1810 14-11-2019 13:39:17 8.7 C 20 %
1811 14-11-2019 13:49:17 9.1 C 20 %
1812 14-11-2019 13:59:17 9.6 C 20 %
1813 14-11-2019 14:09:17 9.4 C 20 %
1814 14-11-2019 14:19:17 9.2 C 20 %
1815 14-11-2019 14:29:17 9 C 20 %
1816 14-11-2019 14:39:17 8.9 C 20 %
1817 14-11-2019 14:49:17 8.5 C 20 %
1818 14-11-2019 14:59:17 8.1 C 20 %
1819 14-11-2019 15:09:17 7.9 C 20 %
1820 14-11-2019 15:19:17 7.8 C 20 %
1821 14-11-2019 15:29:17 7.3 C 20 %
1822 14-11-2019 15:39:17 6.9 C 20 %
1823 14-11-2019 15:49:17 6.7 C 20 %
1824 14-11-2019 15:59:17 6.5 C 20 %
1825 14-11-2019 16:09:17 6.5 C 20 %
Sensor: Nr:Datum:Temp:Feuchte:
Aussen-T/F 1826 14-11-2019 16:19:17 6 C 20 %
1827 14-11-2019 16:29:17 5.6 C 20 %
1828 14-11-2019 16:39:17 5.2 C 20 %
1829 14-11-2019 16:49:17 4.8 C 20 %
1830 14-11-2019 16:59:17 4.6 C 20 %
1831 14-11-2019 17:09:17 4.4 C 20 %
1832 14-11-2019 17:19:17 4.3 C 20 %
1833 14-11-2019 17:29:17 3.9 C 20 %
1834 14-11-2019 17:39:17 3.8 C 20 %
1835 14-11-2019 17:49:17 3.8 C 20 %
1836 14-11-2019 17:59:17 3.8 C 20 %
1837 14-11-2019 18:09:17 4.1 C 20 %
1838 14-11-2019 18:19:17 3.9 C 20 %
1839 14-11-2019 18:29:17 3.8 C 20 %
1840 14-11-2019 18:39:17 3.9 C 20 %
1841 14-11-2019 18:49:17 3.3 C 20 %
1842 14-11-2019 18:59:17 3.4 C 20 %
1843 14-11-2019 19:09:17 3.2 C 20 %
1844 14-11-2019 19:19:17 2.6 C 25 %
1845 14-11-2019 19:29:17 2.7 C 25 %
1846 14-11-2019 19:39:17 2.7 C 25 %
1847 14-11-2019 19:49:17 2.6 C 25 %
1848 14-11-2019 19:59:18 2.7 C 26 %
1849 14-11-2019 20:09:17 2.4 C 26 %
1850 14-11-2019 20:19:17 2.3 C 30 %
Sensor: Nr:Datum:Temp:Feuchte:
Aussen-T/F 1851 14-11-2019 20:29:17 2.4 C 27 %
1852 14-11-2019 20:39:17 2.6 C 26 %
1853 14-11-2019 20:49:17 2.5 C 26 %
1854 14-11-2019 20:59:17 2 C 27 %
1855 14-11-2019 21:09:17 1.6 C 32 %
1856 14-11-2019 21:19:17 1.6 C 36 %
1857 14-11-2019 21:29:17 1.7 C 35 %
1858 14-11-2019 21:39:17 1.6 C 35 %
1859 14-11-2019 21:49:17 1.4 C 35 %
1860 14-11-2019 21:59:17 1.4 C 36 %
1861 14-11-2019 22:09:17 1.6 C 37 %
1862 14-11-2019 22:19:17 1.5 C 36 %
1863 14-11-2019 22:29:17 1.5 C 37 %
1864 14-11-2019 22:39:17 1.6 C 39 %
1865 14-11-2019 22:49:17 1.6 C 39 %
1866 14-11-2019 22:59:17 1.9 C 40 %
1867 14-11-2019 23:09:17 2 C 38 %
1868 14-11-2019 23:19:17 2 C 37 %
1869 14-11-2019 23:29:17 2 C 36 %
1870 14-11-2019 23:39:17 2.2 C 36 %
1871 14-11-2019 23:49:17 2.1 C 36 %
1872 14-11-2019 23:59:17 2.1 C 36 %
1873 15-11-2019 00:09:17 2.1 C 36 %
1874 15-11-2019 00:19:17 2.2 C 35 %
1875 15-11-2019 00:29:17 2.3 C 36 %
Sensor: Nr:Datum:Temp:Feuchte:
Aussen-T/F 1876 15-11-2019 00:39:17 2.5 C 36 %
1877 15-11-2019 00:49:17 2.8 C 33 %
1878 15-11-2019 00:59:17 3 C 31 %
1879 15-11-2019 01:09:17 3.2 C 30 %
1880 15-11-2019 01:19:17 2.9 C 31 %
1881 15-11-2019 01:29:17 2.8 C 32 %
1882 15-11-2019 01:39:17 3.1 C 30 %
1883 15-11-2019 01:49:17 3.2 C 30 %
1884 15-11-2019 01:59:17 3.1 C 30 %
1885 15-11-2019 02:09:17 2.7 C 30 %
1886 15-11-2019 02:19:17 2.6 C 31 %
1887 15-11-2019 02:29:17 2.6 C 31 %
1888 15-11-2019 02:39:17 2.7 C 30 %
1889 15-11-2019 02:49:17 2.8 C 31 %
1890 15-11-2019 02:59:17 3.2 C 30 %
1891 15-11-2019 03:09:17 2.9 C 30 %
1892 15-11-2019 03:19:17 2.7 C 30 %
1893 15-11-2019 03:29:17 2.5 C 30 %
1894 15-11-2019 03:39:17 2.3 C 30 %
1895 15-11-2019 03:49:17 2.2 C 30 %
1896 15-11-2019 03:59:17 2.2 C 31 %
1897 15-11-2019 04:09:17 2.2 C 31 %
1898 15-11-2019 04:19:17 2.6 C 30 %
1899 15-11-2019 04:29:17 3.1 C 26 %
1900 15-11-2019 04:39:17 3.2 C 25 %
Sensor: Nr:Datum:Temp:Feuchte:
Aussen-T/F 1901 15-11-2019 04:49:17 3 C 25 %
1902 15-11-2019 04:59:17 3.1 C 25 %
1903 15-11-2019 05:09:17 2.8 C 27 %
1904 15-11-2019 05:19:17 2.6 C 26 %
1905 15-11-2019 05:29:17 2.7 C 25 %
1906 15-11-2019 05:39:17 2.5 C 27 %
1907 15-11-2019 05:49:17 2.6 C 25 %
1908 15-11-2019 05:59:17 3.2 C 23 %
1909 15-11-2019 06:09:17 3.3 C 20 %
1910 15-11-2019 06:19:17 3.4 C 20 %
1911 15-11-2019 06:29:17 3.3 C 20 %
1912 15-11-2019 06:39:17 3.4 C 20 %
1913 15-11-2019 06:49:17 3.4 C 20 %
1914 15-11-2019 06:59:17 3.1 C 20 %
1915 15-11-2019 07:09:17 3 C 20 %
1916 15-11-2019 07:19:17 2.9 C 21 %
1917 15-11-2019 07:29:17 3 C 21 %
1918 15-11-2019 07:39:17 2.9 C 23 %
1919 15-11-2019 07:49:17 2.8 C 25 %
1920 15-11-2019 07:59:17 3.2 C 20 %
1921 15-11-2019 08:09:17 3.3 C 20 %
1922 15-11-2019 08:19:17 3.3 C 20 %
1923 15-11-2019 08:29:17 3.3 C 20 %
1924 15-11-2019 08:39:17 3.3 C 20 %
1925 15-11-2019 08:49:17 3.1 C 23 %
Sensor: Nr:Datum:Temp:Feuchte:
Aussen-T/F 1926 15-11-2019 08:59:17 3.3 C 21 %
1927 15-11-2019 09:09:17 3.3 C 21 %
1928 15-11-2019 09:19:17 3.6 C 20 %
1929 15-11-2019 09:29:17 4.1 C 20 %
1930 15-11-2019 09:39:17 4.5 C 20 %
1931 15-11-2019 09:49:17 4.4 C 20 %
1932 15-11-2019 09:59:17 4.6 C 20 %
1933 15-11-2019 10:09:17 4.9 C 20 %
1934 15-11-2019 10:19:17 5.2 C 20 %
1935 15-11-2019 10:29:17 5.5 C 20 %
1936 15-11-2019 10:39:17 5.4 C 20 %
1937 15-11-2019 10:49:17 5.5 C 20 %
1938 15-11-2019 10:59:17 5.8 C 20 %
1939 15-11-2019 11:09:17 5.9 C 20 %
1940 15-11-2019 11:19:17 5.3 C 20 %
1941 15-11-2019 11:29:17 5.2 C 20 %
1942 15-11-2019 11:39:17 5.8 C 20 %
1943 15-11-2019 11:49:17 6.1 C 20 %
1944 15-11-2019 11:59:17 6.4 C 20 %
1945 15-11-2019 12:09:17 6.5 C 20 %
1946 15-11-2019 12:19:17 6.5 C 20 %
1947 15-11-2019 12:29:17 6.3 C 20 %
1948 15-11-2019 12:39:17 6.3 C 20 %
1949 15-11-2019 12:49:17 6.4 C 20 %
1950 15-11-2019 12:59:17 6.5 C 20 %
Sensor: Nr:Datum:Temp:Feuchte:
Aussen-T/F 1951 15-11-2019 13:09:17 6.8 C 20 %
1952 15-11-2019 13:19:17 6.9 C 20 %
1953 15-11-2019 13:29:17 7 C 20 %
1954 15-11-2019 13:39:17 7.4 C 20 %
1955 15-11-2019 13:49:17 7.4 C 20 %
1956 15-11-2019 13:59:17 7.3 C 20 %
1957 15-11-2019 14:09:17 7.5 C 20 %
1958 15-11-2019 14:19:17 7.6 C 20 %
1959 15-11-2019 14:29:17 7.7 C 20 %
1960 15-11-2019 14:39:17 7.5 C 20 %
1961 15-11-2019 14:49:17 7.8 C 20 %
1962 15-11-2019 14:59:17 8 C 20 %
1963 15-11-2019 15:09:17 7.8 C 20 %
1964 15-11-2019 15:19:17 7.7 C 20 %
1965 15-11-2019 15:29:17 7.6 C 20 %
1966 15-11-2019 15:39:17 7.3 C 20 %
1967 15-11-2019 15:49:17 7.1 C 20 %
1968 15-11-2019 15:59:17 6.8 C 20 %
1969 15-11-2019 16:09:17 6.7 C 20 %
1970 15-11-2019 16:19:17 5.5 C 20 %
1971 15-11-2019 16:29:17 5 C 20 %
1972 15-11-2019 16:39:17 4.4 C 20 %
1973 15-11-2019 16:49:17 4 C 23 %
1974 15-11-2019 16:59:17 3.9 C 26 %
1975 15-11-2019 17:09:17 3.8 C 27 %
Sensor: Nr:Datum:Temp:Feuchte:
Aussen-T/F 1976 15-11-2019 17:19:17 3.9 C 27 %
1977 15-11-2019 17:29:17 3.8 C 28 %
1978 15-11-2019 17:39:17 4 C 27 %
1979 15-11-2019 17:49:17 3.8 C 28 %
1980 15-11-2019 17:59:17 3.8 C 29 %
1981 15-11-2019 18:09:17 3.8 C 29 %
1982 15-11-2019 18:19:17 4.3 C 27 %
1983 15-11-2019 18:29:17 4.2 C 26 %
1984 15-11-2019 18:39:17 4.1 C 27 %
1985 15-11-2019 18:49:17 4 C 28 %
1986 15-11-2019 18:59:17 4 C 28 %
1987 15-11-2019 19:09:17 3.9 C 31 %
1988 15-11-2019 19:19:17 3.6 C 31 %
1989 15-11-2019 19:29:17 3.7 C 32 %
1990 15-11-2019 19:39:17 3.6 C 31 %
1991 15-11-2019 19:49:17 3.7 C 32 %
1992 15-11-2019 19:59:17 3.7 C 32 %
1993 15-11-2019 20:09:17 3.4 C 33 %
1994 15-11-2019 20:19:17 3.3 C 34 %
1995 15-11-2019 20:29:17 3.2 C 35 %
1996 15-11-2019 20:39:17 3.5 C 32 %
1997 15-11-2019 20:49:17 3.2 C 32 %
1998 15-11-2019 20:59:17 3.5 C 32 %
1999 15-11-2019 21:09:17 3.5 C 31 %
2000 15-11-2019 21:19:17 3.5 C 31 %
Sensor: Nr:Datum:Temp:Feuchte:
Aussen-T/F 2001 15-11-2019 21:29:17 3.2 C 31 %
2002 15-11-2019 21:39:17 3 C 34 %
2003 15-11-2019 21:49:17 2.9 C 36 %
2004 15-11-2019 21:59:17 3 C 36 %
2005 15-11-2019 22:09:17 2.8 C 36 %
2006 15-11-2019 22:19:17 2.6 C 37 %
2007 15-11-2019 22:29:17 2.6 C 39 %
2008 15-11-2019 22:39:17 2.7 C 39 %
2009 15-11-2019 22:49:17 2.7 C 39 %
2010 15-11-2019 22:59:17 2.5 C 38 %
2011 15-11-2019 23:09:17 2.6 C 39 %
2012 15-11-2019 23:19:17 2.7 C 39 %
2013 15-11-2019 23:29:17 2.6 C 38 %
2014 15-11-2019 23:39:17 2.5 C 38 %
2015 15-11-2019 23:49:17 2.5 C 40 %
2016 15-11-2019 23:59:17 2.3 C 40 %
2017 16-11-2019 00:09:17 2.3 C 40 %
2018 16-11-2019 00:19:17 2.3 C 40 %
2019 16-11-2019 00:29:17 2.3 C 40 %
2020 16-11-2019 00:39:17 2.3 C 40 %
2021 16-11-2019 00:49:17 2.4 C 40 %
2022 16-11-2019 00:59:17 2.3 C 40 %
2023 16-11-2019 01:09:17 2.3 C 40 %
2024 16-11-2019 01:19:17 2.2 C 40 %
2025 16-11-2019 01:29:17 2.2 C 40 %
Sensor: Nr:Datum:Temp:Feuchte:
Aussen-T/F 2026 16-11-2019 01:39:17 2.2 C 40 %
2027 16-11-2019 01:49:17 2.3 C 40 %
2028 16-11-2019 01:59:17 2.3 C 40 %
2029 16-11-2019 02:09:17 2.3 C 40 %
2030 16-11-2019 02:19:17 2.3 C 40 %
2031 16-11-2019 02:29:17 2.2 C 40 %
2032 16-11-2019 02:39:17 2.1 C 39 %
2033 16-11-2019 02:49:17 2.1 C 40 %
2034 16-11-2019 02:59:17 2 C 40 %
2035 16-11-2019 03:09:17 2 C 40 %
2036 16-11-2019 03:19:17 1.9 C 41 %
2037 16-11-2019 03:29:17 1.5 C 40 %
2038 16-11-2019 03:39:18 1.3 C 40 %
2039 16-11-2019 03:49:17 1.3 C 41 %
2040 16-11-2019 03:59:17 1.3 C 41 %
2041 16-11-2019 04:09:17 1.1 C 41 %
2042 16-11-2019 04:19:17 0.8 C 41 %
2043 16-11-2019 04:29:17 0.3 C 40 %
2044 16-11-2019 04:39:17 0 C 41 %
2045 16-11-2019 04:49:17 -0.2 C 41 %
2046 16-11-2019 04:59:17 -0.1 C 42 %
2047 16-11-2019 05:09:17 -0.4 C 42 %
2048 16-11-2019 05:19:17 -0.5 C 42 %
2049 16-11-2019 05:29:17 -0.7 C 42 %
2050 16-11-2019 05:39:17 -0.6 C 42 %
Sensor: Nr:Datum:Temp:Feuchte:
Aussen-T/F 2051 16-11-2019 05:49:17 -0.8 C 42 %
2052 16-11-2019 05:59:17 -1 C 42 %
2053 16-11-2019 06:09:17 -1 C 42 %
2054 16-11-2019 06:19:17 -1.1 C 42 %
2055 16-11-2019 06:29:17 -1 C 43 %
2056 16-11-2019 06:39:17 -1 C 43 %
2057 16-11-2019 06:49:17 -1.4 C 42 %
2058 16-11-2019 06:59:17 -1.5 C 42 %
2059 16-11-2019 07:09:17 -1.5 C 42 %
2060 16-11-2019 07:19:17 -1.6 C 42 %
2061 16-11-2019 07:29:17 -1.4 C 43 %
2062 16-11-2019 07:39:17 -1 C 43 %
2063 16-11-2019 07:49:17 -0.9 C 43 %
2064 16-11-2019 07:59:17 -0.7 C 43 %
2065 16-11-2019 08:09:17 -0.7 C 43 %
2066 16-11-2019 08:19:17 -0.7 C 43 %
2067 16-11-2019 08:29:17 -0.6 C 43 %
2068 16-11-2019 08:39:17 -0.5 C 43 %
2069 16-11-2019 08:49:17 -0.4 C 43 %
2070 16-11-2019 08:59:17 -0.3 C 43 %
2071 16-11-2019 09:09:17 -0.4 C 43 %
2072 16-11-2019 09:19:17 -0.5 C 43 %
2073 16-11-2019 09:29:17 -0.5 C 43 %
2074 16-11-2019 09:39:17 -0.4 C 43 %
2075 16-11-2019 09:49:17 -0.4 C 43 %
Sensor: Nr:Datum:Temp:Feuchte:
Aussen-T/F 2076 16-11-2019 09:59:17 -0.2 C 43 %
2077 16-11-2019 10:09:17 0.2 C 43 %
2078 16-11-2019 10:19:17 0.6 C 43 %
2079 16-11-2019 10:29:17 0.6 C 41 %
2080 16-11-2019 10:39:17 0.3 C 40 %
2081 16-11-2019 10:49:17 0.5 C 40 %
2082 16-11-2019 10:59:17 0.6 C 39 %
2083 16-11-2019 11:09:17 0.7 C 38 %
2084 16-11-2019 11:19:17 1.1 C 36 %
2085 16-11-2019 11:29:17 1.6 C 32 %
2086 16-11-2019 11:39:17 2.4 C 32 %
2087 16-11-2019 11:49:17 2.1 C 30 %
2088 16-11-2019 11:59:17 1.8 C 31 %
2089 16-11-2019 12:09:17 1.6 C 32 %
2090 16-11-2019 12:19:17 1.6 C 33 %
2091 16-11-2019 12:29:17 2.3 C 31 %
2092 16-11-2019 12:39:17 2.5 C 30 %
2093 16-11-2019 12:49:17 2.6 C 32 %
2094 16-11-2019 12:59:17 2.6 C 33 %
2095 16-11-2019 13:09:17 2.5 C 35 %
2096 16-11-2019 13:19:17 2.6 C 36 %
2097 16-11-2019 13:29:17 3.2 C 36 %
2098 16-11-2019 13:39:17 3.7 C 35 %
2099 16-11-2019 13:49:17 4 C 32 %
2100 16-11-2019 13:59:17 3.9 C 32 %
Sensor: Nr:Datum:Temp:Feuchte:
Aussen-T/F 2101 16-11-2019 14:09:17 3.7 C 32 %
2102 16-11-2019 14:19:17 3.7 C 33 %
2103 16-11-2019 14:29:17 3.7 C 32 %
2104 16-11-2019 14:39:17 3.9 C 32 %
2105 16-11-2019 14:49:17 3.9 C 31 %
2106 16-11-2019 14:59:17 4 C 30 %
2107 16-11-2019 15:09:17 4.4 C 29 %
2108 16-11-2019 15:19:17 4.7 C 29 %
2109 16-11-2019 15:29:17 4.6 C 29 %
2110 16-11-2019 15:39:17 4.4 C 28 %
2111 16-11-2019 15:49:17 4.5 C 28 %
2112 16-11-2019 15:59:17 4.2 C 28 %
2113 16-11-2019 16:09:17 4 C 29 %
2114 16-11-2019 16:19:17 4.3 C 26 %
2115 16-11-2019 16:29:17 3.8 C 27 %
2116 16-11-2019 16:39:17 3.5 C 30 %
2117 16-11-2019 16:49:17 3.6 C 31 %
2118 16-11-2019 16:59:17 3.4 C 32 %
2119 16-11-2019 17:09:17 3.5 C 32 %
2120 16-11-2019 17:19:17 3.3 C 32 %
2121 16-11-2019 17:29:17 2.6 C 36 %
2122 16-11-2019 17:39:17 2.2 C 36 %
2123 16-11-2019 17:49:17 2.3 C 39 %
2124 16-11-2019 17:59:17 2.2 C 40 %
2125 16-11-2019 18:09:17 2 C 39 %
Sensor: Nr:Datum:Temp:Feuchte:
Aussen-T/F 2126 16-11-2019 18:19:17 2.2 C 40 %
2127 16-11-2019 18:29:17 2 C 40 %
2128 16-11-2019 18:39:17 1.9 C 40 %
2129 16-11-2019 18:49:17 1.7 C 40 %
2130 16-11-2019 18:59:17 1.6 C 40 %
2131 16-11-2019 19:09:17 1.4 C 40 %
2132 16-11-2019 19:19:17 1.3 C 41 %
2133 16-11-2019 19:29:17 1 C 41 %
2134 16-11-2019 19:39:17 1.1 C 42 %
2135 16-11-2019 19:49:17 0.7 C 42 %
2136 16-11-2019 19:59:17 0.5 C 42 %
2137 16-11-2019 20:09:17 0.5 C 43 %
2138 16-11-2019 20:19:17 0.6 C 43 %
2139 16-11-2019 20:29:17 0.7 C 44 %
2140 16-11-2019 20:39:17 0.7 C 44 %
2141 16-11-2019 20:49:17 0.6 C 43 %
2142 16-11-2019 20:59:17 0.6 C 43 %
2143 16-11-2019 21:09:17 1.1 C 43 %
2144 16-11-2019 21:19:17 0.3 C 43 %
2145 16-11-2019 21:29:17 0.1 C 43 %
2146 16-11-2019 21:39:17 0 C 43 %
2147 16-11-2019 21:49:17 -0.2 C 42 %
2148 16-11-2019 21:59:17 -0.3 C 43 %
2149 16-11-2019 22:09:17 0 C 43 %
2150 16-11-2019 22:19:17 -0.5 C 43 %
Sensor: Nr:Datum:Temp:Feuchte:
Aussen-T/F 2151 16-11-2019 22:29:17 -0.7 C 42 %
2152 16-11-2019 22:39:17 -0.9 C 42 %
2153 16-11-2019 22:49:17 -0.9 C 42 %
2154 16-11-2019 22:59:17 -1 C 42 %
2155 16-11-2019 23:09:17 -1.2 C 42 %
2156 16-11-2019 23:19:17 -1 C 42 %
2157 16-11-2019 23:29:17 -1.3 C 42 %
2158 16-11-2019 23:39:17 -1.3 C 42 %
2159 16-11-2019 23:49:17 -1.6 C 42 %
2160 16-11-2019 23:59:17 -1.6 C 42 %
2161 17-11-2019 00:09:17 -1.6 C 42 %
2162 17-11-2019 00:19:17 -1.3 C 43 %
2163 17-11-2019 00:29:17 -1.6 C 42 %
2164 17-11-2019 00:39:17 -1.9 C 42 %
2165 17-11-2019 00:49:17 -1.9 C 42 %
2166 17-11-2019 00:59:17 -2 C 41 %
2167 17-11-2019 01:09:17 -2.2 C 41 %
2168 17-11-2019 01:19:17 -1.4 C 42 %
2169 17-11-2019 01:29:17 -2 C 41 %
2170 17-11-2019 01:39:17 -1.7 C 42 %
2171 17-11-2019 01:49:17 -1.3 C 42 %
2172 17-11-2019 01:59:17 -1.2 C 42 %
2173 17-11-2019 02:09:17 -1 C 43 %
2174 17-11-2019 02:19:17 -1 C 43 %
2175 17-11-2019 02:29:17 -0.5 C 43 %
Sensor: Nr:Datum:Temp:Feuchte:
Aussen-T/F 2176 17-11-2019 02:39:17 -0.3 C 43 %
2177 17-11-2019 02:49:17 -0.2 C 43 %
2178 17-11-2019 02:59:17 -0.2 C 43 %
2179 17-11-2019 03:09:17 0 C 43 %
2180 17-11-2019 03:19:17 0.1 C 43 %
2181 17-11-2019 03:29:17 0.2 C 43 %
2182 17-11-2019 03:39:17 0.3 C 43 %
2183 17-11-2019 03:49:17 0.5 C 43 %
2184 17-11-2019 03:59:17 0.5 C 43 %
2185 17-11-2019 04:09:17 0.7 C 43 %
2186 17-11-2019 04:19:17 0.8 C 43 %
2187 17-11-2019 04:29:17 0.9 C 43 %
2188 17-11-2019 04:39:17 0.9 C 43 %
2189 17-11-2019 04:49:17 0.8 C 43 %
2190 17-11-2019 04:59:17 0.8 C 43 %
2191 17-11-2019 05:09:17 0.8 C 43 %
2192 17-11-2019 05:19:17 0.8 C 43 %
2193 17-11-2019 05:29:17 1 C 42 %
2194 17-11-2019 05:39:17 0.8 C 43 %
2195 17-11-2019 05:49:17 0.8 C 43 %
2196 17-11-2019 05:59:17 0.8 C 43 %
2197 17-11-2019 06:09:17 0.8 C 43 %
2198 17-11-2019 06:19:17 0.8 C 43 %
2199 17-11-2019 06:29:17 0.8 C 43 %
2200 17-11-2019 06:39:17 0.9 C 43 %
Sensor: Nr:Datum:Temp:Feuchte:
Aussen-T/F 2201 17-11-2019 06:49:17 1 C 41 %
2202 17-11-2019 06:59:17 0.9 C 43 %
2203 17-11-2019 07:09:17 1 C 41 %
2204 17-11-2019 07:19:17 1 C 41 %
2205 17-11-2019 07:29:17 1 C 41 %
2206 17-11-2019 07:39:17 1.1 C 41 %
2207 17-11-2019 07:49:17 1.1 C 41 %
2208 17-11-2019 07:59:17 1.1 C 41 %
2209 17-11-2019 08:09:17 1.2 C 41 %
2210 17-11-2019 08:19:17 1.2 C 41 %
2211 17-11-2019 08:29:17 1.2 C 41 %
2212 17-11-2019 08:39:17 1.3 C 41 %
2213 17-11-2019 08:49:17 1.4 C 41 %
2214 17-11-2019 08:59:17 1.5 C 42 %
2215 17-11-2019 09:09:17 1.5 C 42 %
2216 17-11-2019 09:19:17 1.8 C 42 %
2217 17-11-2019 09:29:17 2 C 41 %
2218 17-11-2019 09:39:17 2.1 C 41 %
2219 17-11-2019 09:49:17 2.1 C 41 %
2220 17-11-2019 09:59:17 2.3 C 41 %
2221 17-11-2019 10:09:17 2.5 C 42 %
2222 17-11-2019 10:19:17 2.6 C 42 %
2223 17-11-2019 10:29:17 2.6 C 42 %
2224 17-11-2019 10:39:17 2.7 C 41 %
2225 17-11-2019 10:49:17 2.8 C 41 %
Sensor: Nr:Datum:Temp:Feuchte:
Aussen-T/F 2226 17-11-2019 10:59:17 3 C 41 %
2227 17-11-2019 11:09:17 3.2 C 40 %
2228 17-11-2019 11:19:17 3.3 C 40 %
2229 17-11-2019 11:29:17 3.5 C 39 %
2230 17-11-2019 11:39:17 3.5 C 39 %
2231 17-11-2019 11:49:17 3.5 C 39 %
2232 17-11-2019 11:59:17 3.7 C 38 %
2233 17-11-2019 12:09:17 3.9 C 38 %
2234 17-11-2019 12:19:17 3.8 C 38 %
2235 17-11-2019 12:29:17 3.9 C 38 %
2236 17-11-2019 12:39:17 4 C 37 %
2237 17-11-2019 12:49:17 4.1 C 37 %
2238 17-11-2019 12:59:17 4.4 C 37 %
2239 17-11-2019 13:09:17 4.5 C 36 %
2240 17-11-2019 13:19:17 4.6 C 33 %
2241 17-11-2019 13:29:17 4.7 C 32 %
2242 17-11-2019 13:39:17 4.7 C 32 %
2243 17-11-2019 13:49:17 4.8 C 32 %
2244 17-11-2019 13:59:17 4.8 C 32 %
2245 17-11-2019 14:09:17 4.9 C 33 %
2246 17-11-2019 14:19:17 4.9 C 31 %
2247 17-11-2019 14:29:17 5.1 C 31 %
2248 17-11-2019 14:39:17 4.6 C 29 %
2249 17-11-2019 14:49:17 4.4 C 31 %
2250 17-11-2019 14:59:17 4.3 C 35 %
Sensor: Nr:Datum:Temp:Feuchte:
Aussen-T/F 2251 17-11-2019 15:09:17 4.3 C 35 %
2252 17-11-2019 15:19:17 4.2 C 37 %
2253 17-11-2019 15:29:17 4.1 C 37 %
2254 17-11-2019 15:39:18 4.2 C 38 %
2255 17-11-2019 15:49:17 4 C 38 %
2256 17-11-2019 15:59:17 4 C 37 %
2257 17-11-2019 16:09:17 4 C 38 %
2258 17-11-2019 16:19:17 4 C 38 %
2259 17-11-2019 16:29:17 3.8 C 40 %
2260 17-11-2019 16:39:17 3.8 C 40 %
2261 17-11-2019 16:49:17 3.8 C 39 %
2262 17-11-2019 16:59:17 3.7 C 40 %
2263 17-11-2019 17:09:17 3.7 C 40 %
2264 17-11-2019 17:19:17 3.6 C 40 %
2265 17-11-2019 17:29:17 3.6 C 40 %
2266 17-11-2019 17:39:17 3.6 C 40 %
2267 17-11-2019 17:49:17 3.6 C 41 %
2268 17-11-2019 17:59:17 3.7 C 41 %
2269 17-11-2019 18:09:17 3.8 C 41 %
2270 17-11-2019 18:19:17 3.9 C 42 %
2271 17-11-2019 18:29:17 3.9 C 42 %
2272 17-11-2019 18:39:17 3.9 C 41 %
2273 17-11-2019 18:49:17 3.9 C 41 %
2274 17-11-2019 18:59:17 3.8 C 41 %
2275 17-11-2019 19:09:17 3.8 C 40 %
Sensor: Nr:Datum:Temp:Feuchte:
Aussen-T/F 2276 17-11-2019 19:19:17 3.8 C 41 %
2277 17-11-2019 19:29:17 3.8 C 41 %
2278 17-11-2019 19:39:17 3.8 C 41 %
2279 17-11-2019 19:49:17 3.9 C 41 %
2280 17-11-2019 19:59:17 3.9 C 41 %
2281 17-11-2019 20:09:17 3.9 C 41 %
2282 17-11-2019 20:19:17 3.9 C 41 %
2283 17-11-2019 20:29:17 3.9 C 41 %
2284 17-11-2019 20:39:17 3.9 C 41 %
2285 17-11-2019 20:49:17 4 C 40 %
2286 17-11-2019 20:59:17 4 C 40 %
2287 17-11-2019 21:09:17 3.9 C 41 %
2288 17-11-2019 21:19:17 4 C 40 %
2289 17-11-2019 21:29:17 3.9 C 41 %
2290 17-11-2019 21:39:17 3.9 C 41 %
2291 17-11-2019 21:49:17 3.9 C 41 %
2292 17-11-2019 21:59:17 3.9 C 41 %
2293 17-11-2019 22:09:17 3.9 C 41 %
2294 17-11-2019 22:19:17 3.9 C 41 %
2295 17-11-2019 22:29:17 3.9 C 41 %
2296 17-11-2019 22:39:17 3.9 C 41 %
2297 17-11-2019 22:49:17 3.9 C 41 %
2298 17-11-2019 22:59:17 3.8 C 41 %
2299 17-11-2019 23:09:17 3.8 C 41 %
2300 17-11-2019 23:19:17 3.8 C 41 %
Sensor: Nr:Datum:Temp:Feuchte:
Aussen-T/F 2301 17-11-2019 23:29:17 3.8 C 41 %
2302 17-11-2019 23:39:17 3.8 C 41 %
2303 17-11-2019 23:49:17 3.7 C 41 %
2304 17-11-2019 23:59:17 3.6 C 41 %
2305 18-11-2019 00:09:17 3.6 C 40 %
2306 18-11-2019 00:19:17 3.6 C 40 %
2307 18-11-2019 00:29:17 3.5 C 40 %
2308 18-11-2019 00:39:17 3.5 C 40 %
2309 18-11-2019 00:49:17 3.4 C 40 %
2310 18-11-2019 00:59:17 3.4 C 39 %
2311 18-11-2019 01:09:17 3.4 C 39 %
2312 18-11-2019 01:19:17 3.4 C 38 %
2313 18-11-2019 01:29:17 3.4 C 38 %
2314 18-11-2019 01:39:17 3.3 C 38 %
2315 18-11-2019 01:49:17 3.4 C 39 %
2316 18-11-2019 01:59:17 3.4 C 39 %
2317 18-11-2019 02:09:17 3.4 C 40 %
2318 18-11-2019 02:19:17 3.3 C 40 %
2319 18-11-2019 02:29:17 3.4 C 40 %
2320 18-11-2019 02:39:17 3.4 C 40 %
2321 18-11-2019 02:49:17 3.4 C 40 %
2322 18-11-2019 02:59:17 3.3 C 40 %
2323 18-11-2019 03:09:17 3.3 C 40 %
2324 18-11-2019 03:19:17 3.4 C 41 %
2325 18-11-2019 03:29:17 3.4 C 41 %
Sensor: Nr:Datum:Temp:Feuchte:
Aussen-T/F 2326 18-11-2019 03:39:17 3.3 C 40 %
2327 18-11-2019 03:49:17 3.4 C 40 %
2328 18-11-2019 03:59:17 3.4 C 40 %
2329 18-11-2019 04:09:17 3.4 C 40 %
2330 18-11-2019 04:19:17 3.3 C 40 %
2331 18-11-2019 04:29:17 3.4 C 40 %
2332 18-11-2019 04:39:18 3.3 C 40 %
2333 18-11-2019 04:49:17 3.3 C 40 %
2334 18-11-2019 04:59:17 3.3 C 40 %
2335 18-11-2019 05:09:17 3.4 C 40 %
2336 18-11-2019 05:19:18 3.3 C 40 %
2337 18-11-2019 05:29:18 3.3 C 40 %
2338 18-11-2019 05:39:17 3.3 C 41 %
2339 18-11-2019 05:49:17 3.3 C 40 %
2340 18-11-2019 05:59:17 3.3 C 41 %
2341 18-11-2019 06:09:17 3.3 C 41 %
2342 18-11-2019 06:19:17 3.3 C 41 %
2343 18-11-2019 06:29:17 3.2 C 41 %
2344 18-11-2019 06:39:17 3.2 C 41 %
2345 18-11-2019 06:49:17 3.2 C 41 %
2346 18-11-2019 06:59:17 3.2 C 41 %
2347 18-11-2019 07:09:17 3.2 C 41 %
2348 18-11-2019 07:19:18 3.2 C 41 %
2349 18-11-2019 07:29:18 3.2 C 41 %
2350 18-11-2019 07:39:18 3.3 C 41 %
Sensor: Nr:Datum:Temp:Feuchte:
Aussen-T/F 2351 18-11-2019 07:49:17 3.3 C 41 %
2352 18-11-2019 07:59:17 3.3 C 41 %
2353 18-11-2019 08:09:17 3.3 C 41 %
2354 18-11-2019 08:19:17 3.3 C 41 %
2355 18-11-2019 08:29:17 3.4 C 41 %
2356 18-11-2019 08:39:18 3.4 C 41 %
2357 18-11-2019 08:49:18 3.4 C 41 %
2358 18-11-2019 08:59:18 3.4 C 41 %
2359 18-11-2019 09:09:17 3.5 C 41 %
2360 18-11-2019 09:19:17 3.6 C 41 %
2361 18-11-2019 09:29:17 3.6 C 40 %
2362 18-11-2019 09:39:17 3.7 C 40 %
2363 18-11-2019 09:49:17 3.9 C 38 %
2364 18-11-2019 09:59:17 4.1 C 37 %
2365 18-11-2019 10:09:17 4.1 C 35 %
2366 18-11-2019 10:19:31 4.2 C 35 %
2367 18-11-2019 10:29:31 4.1 C 35 %
2368 18-11-2019 10:39:17 4.1 C 35 %
2369 18-11-2019 10:49:17 4.2 C 36 %
2370 18-11-2019 10:59:17 4.1 C 35 %
2371 18-11-2019 11:09:17 4.1 C 35 %
2372 18-11-2019 11:19:17 4.2 C 35 %
2373 18-11-2019 11:29:17 4.3 C 34 %
2374 18-11-2019 11:39:17 4.4 C 34 %
2375 18-11-2019 11:49:17 4.7 C 33 %
Sensor: Nr:Datum:Temp:Feuchte:
Aussen-T/F 2376 18-11-2019 11:59:17 5 C 29 %
2377 18-11-2019 12:09:17 4.9 C 30 %
2378 18-11-2019 12:19:17 5 C 28 %
2379 18-11-2019 12:29:17 4.8 C 30 %
2380 18-11-2019 12:39:17 4.8 C 30 %
2381 18-11-2019 12:49:17 4.8 C 30 %
2382 18-11-2019 12:59:17 4.8 C 30 %
2383 18-11-2019 13:09:17 4.7 C 30 %
2384 18-11-2019 13:19:17 4.7 C 31 %
2385 18-11-2019 13:29:17 4.8 C 30 %
2386 18-11-2019 13:39:17 4.8 C 30 %
2387 18-11-2019 13:49:17 4.8 C 29 %
2388 18-11-2019 13:59:17 4.8 C 30 %
2389 18-11-2019 14:09:17 4.8 C 28 %
2390 18-11-2019 14:19:17 4.8 C 30 %
2391 18-11-2019 14:29:17 4.8 C 30 %
2392 18-11-2019 14:39:17 4.8 C 30 %
2393 18-11-2019 14:49:17 4.6 C 30 %
2394 18-11-2019 14:59:17 4.5 C 30 %
2395 18-11-2019 15:09:17 4.5 C 31 %
2396 18-11-2019 15:19:18 4.5 C 31 %
2397 18-11-2019 15:29:18 4.5 C 30 %
2398 18-11-2019 15:39:17 4.5 C 30 %
2399 18-11-2019 15:49:17 4.4 C 30 %
2400 18-11-2019 15:59:17 4.3 C 30 %
Sensor: Nr:Datum:Temp:Feuchte:
Aussen-T/F 2401 18-11-2019 16:09:17 4.2 C 31 %
2402 18-11-2019 16:19:17 4.1 C 31 %
2403 18-11-2019 16:29:17 4.1 C 30 %
2404 18-11-2019 16:39:17 4.1 C 31 %
2405 18-11-2019 16:49:17 4.1 C 32 %
2406 18-11-2019 16:59:17 4.1 C 30 %
2407 18-11-2019 17:09:17 4.1 C 30 %
2408 18-11-2019 17:19:17 4.1 C 30 %
2409 18-11-2019 17:29:17 4 C 31 %
2410 18-11-2019 17:39:17 4 C 31 %
2411 18-11-2019 17:49:17 4 C 31 %
2412 18-11-2019 17:59:17 3.9 C 33 %
2413 18-11-2019 18:09:17 3.9 C 34 %
2414 18-11-2019 18:19:17 3.8 C 34 %
2415 18-11-2019 18:29:17 3.8 C 35 %
2416 18-11-2019 18:39:17 3.7 C 34 %
2417 18-11-2019 18:49:17 3.5 C 36 %
2418 18-11-2019 18:59:17 3.5 C 35 %
2419 18-11-2019 19:09:17 3.3 C 34 %
2420 18-11-2019 19:19:17 3.2 C 34 %
2421 18-11-2019 19:29:17 3 C 36 %
2422 18-11-2019 19:39:17 2.9 C 36 %
2423 18-11-2019 19:49:17 2.7 C 36 %
2424 18-11-2019 19:59:17 2.7 C 36 %
2425 18-11-2019 20:09:17 2.4 C 36 %
Sensor: Nr:Datum:Temp:Feuchte:
Aussen-T/F 2426 18-11-2019 20:19:17 2.3 C 37 %
2427 18-11-2019 20:29:17 2.2 C 36 %
2428 18-11-2019 20:39:17 2 C 37 %
2429 18-11-2019 20:49:17 1.9 C 39 %
2430 18-11-2019 20:59:17 1.8 C 38 %
2431 18-11-2019 21:09:17 1.6 C 40 %
2432 18-11-2019 21:19:17 1.5 C 39 %
2433 18-11-2019 21:29:17 1.5 C 40 %
2434 18-11-2019 21:39:17 1.5 C 40 %
2435 18-11-2019 21:49:17 1.6 C 40 %
2436 18-11-2019 21:59:17 1.8 C 40 %
2437 18-11-2019 22:09:17 2 C 38 %
2438 18-11-2019 22:19:17 2 C 38 %
2439 18-11-2019 22:29:17 2.2 C 36 %
2440 18-11-2019 22:39:17 2.2 C 36 %
2441 18-11-2019 22:49:17 2.2 C 36 %
2442 18-11-2019 22:59:17 2.2 C 36 %
2443 18-11-2019 23:09:17 2.2 C 36 %
2444 18-11-2019 23:19:17 2.4 C 36 %
2445 18-11-2019 23:29:17 2.6 C 36 %
2446 18-11-2019 23:39:17 2.7 C 35 %
2447 18-11-2019 23:49:17 2.7 C 35 %
2448 18-11-2019 23:59:17 2.8 C 36 %
2449 19-11-2019 00:09:17 2.9 C 36 %
2450 19-11-2019 00:19:17 2.9 C 36 %
Sensor: Nr:Datum:Temp:Feuchte:
Aussen-T/F 2451 19-11-2019 00:29:17 3 C 36 %
2452 19-11-2019 00:39:17 3 C 35 %
2453 19-11-2019 00:49:18 3 C 35 %
2454 19-11-2019 00:59:18 3 C 36 %
2455 19-11-2019 01:09:17 3.2 C 36 %
2456 19-11-2019 01:19:17 3.2 C 36 %
2457 19-11-2019 01:29:17 3.2 C 36 %
2458 19-11-2019 01:39:18 3.3 C 37 %
2459 19-11-2019 01:49:18 3.4 C 36 %
2460 19-11-2019 01:59:18 3.3 C 36 %
2461 19-11-2019 02:09:18 3.3 C 36 %
2462 19-11-2019 02:19:17 3.4 C 36 %
2463 19-11-2019 02:29:17 3.3 C 36 %
2464 19-11-2019 02:39:17 3.4 C 37 %
2465 19-11-2019 02:49:17 3.3 C 37 %
2466 19-11-2019 02:59:17 3.3 C 38 %
2467 19-11-2019 03:09:17 3.3 C 40 %
2468 19-11-2019 03:19:17 3.4 C 39 %
2469 19-11-2019 03:29:17 3.4 C 39 %
2470 19-11-2019 03:39:17 3.5 C 37 %
2471 19-11-2019 03:49:17 3.5 C 37 %
2472 19-11-2019 03:59:17 3.5 C 38 %
2473 19-11-2019 04:09:17 3.6 C 37 %
2474 19-11-2019 04:19:18 3.6 C 36 %
2475 19-11-2019 04:29:18 3.5 C 36 %
Sensor: Nr:Datum:Temp:Feuchte:
Aussen-T/F 2476 19-11-2019 04:39:17 3.5 C 37 %
2477 19-11-2019 04:49:17 3.4 C 37 %
2478 19-11-2019 04:59:17 3.1 C 39 %
2479 19-11-2019 05:09:17 2.5 C 40 %
2480 19-11-2019 05:19:18 2.3 C 41 %
2481 19-11-2019 05:29:18 2 C 42 %
2482 19-11-2019 05:39:17 1.6 C 43 %
2483 19-11-2019 05:49:17 1.5 C 43 %
2484 19-11-2019 05:59:17 1.8 C 44 %
2485 19-11-2019 06:09:17 1.8 C 44 %
2486 19-11-2019 06:19:17 1.7 C 43 %
2487 19-11-2019 06:29:17 1.7 C 43 %
2488 19-11-2019 06:39:17 1.8 C 43 %
2489 19-11-2019 06:49:17 2 C 42 %
2490 19-11-2019 06:59:17 2.1 C 42 %
2491 19-11-2019 07:09:17 2.4 C 42 %
2492 19-11-2019 07:19:17 2.2 C 42 %
2493 19-11-2019 07:29:17 1.5 C 42 %
2494 19-11-2019 07:39:17 1.3 C 42 %
2495 19-11-2019 07:49:17 1.2 C 42 %
2496 19-11-2019 07:59:17 1.8 C 43 %
2497 19-11-2019 08:09:17 2.1 C 42 %
2498 19-11-2019 08:19:17 2.5 C 42 %
2499 19-11-2019 08:29:17 2.8 C 42 %
2500 19-11-2019 08:39:17 2.5 C 41 %
Sensor: Nr:Datum:Temp:Feuchte:
Aussen-T/F 2501 19-11-2019 08:49:17 2.6 C 41 %
2502 19-11-2019 08:59:17 3.2 C 41 %
2503 19-11-2019 09:09:17 3.3 C 40 %
2504 19-11-2019 09:19:17 3.3 C 39 %
2505 19-11-2019 09:29:17 3.4 C 38 %
2506 19-11-2019 09:39:17 3.3 C 35 %
2507 19-11-2019 09:49:17 3.2 C 35 %
2508 19-11-2019 09:59:17 3.1 C 35 %
2509 19-11-2019 10:09:17 3.1 C 36 %
2510 19-11-2019 10:19:17 3.2 C 36 %
2511 19-11-2019 10:29:17 3.3 C 37 %
2512 19-11-2019 10:39:17 3.2 C 38 %
2513 19-11-2019 10:49:17 3.3 C 38 %
2514 19-11-2019 10:59:17 3.4 C 38 %
2515 19-11-2019 11:09:17 3.5 C 38 %
2516 19-11-2019 11:19:17 3.5 C 38 %
2517 19-11-2019 11:29:17 4.2 C 33 %
2518 19-11-2019 11:39:17 5 C 30 %
2519 19-11-2019 11:49:17 5.5 C 23 %
2520 19-11-2019 11:59:17 5.5 C 23 %
2521 19-11-2019 12:09:17 5.5 C 23 %
2522 19-11-2019 12:19:17 6.2 C 20 %
2523 19-11-2019 12:29:17 6.3 C 20 %
2524 19-11-2019 12:39:17 5.5 C 20 %
2525 19-11-2019 12:49:17 5.6 C 20 %
Sensor: Nr:Datum:Temp:Feuchte:
Aussen-T/F 2526 19-11-2019 12:59:17 5.7 C 20 %
2527 19-11-2019 13:09:17 5.8 C 20 %
2528 19-11-2019 13:19:17 5.7 C 20 %
2529 19-11-2019 13:29:17 5.8 C 20 %
2530 19-11-2019 13:39:17 5.7 C 20 %
2531 19-11-2019 13:49:17 6 C 20 %
2532 19-11-2019 13:59:17 6.3 C 20 %
2533 19-11-2019 14:09:17 6.2 C 20 %
2534 19-11-2019 14:19:17 6.2 C 20 %
2535 19-11-2019 14:29:17 6 C 20 %
2536 19-11-2019 14:39:17 5.9 C 20 %
2537 19-11-2019 14:49:17 5.8 C 20 %
2538 19-11-2019 14:59:17 5.9 C 25 %
2539 19-11-2019 15:09:17 5.8 C 23 %
2540 19-11-2019 15:19:18 5.6 C 28 %
2541 19-11-2019 15:29:18 5.4 C 30 %
2542 19-11-2019 15:39:17 5.1 C 32 %
2543 19-11-2019 15:49:17 4.9 C 30 %
2544 19-11-2019 15:59:17 4.8 C 32 %
2545 19-11-2019 16:09:17 4.7 C 35 %
2546 19-11-2019 16:19:17 4.5 C 36 %
2547 19-11-2019 16:29:17 4.4 C 35 %
2548 19-11-2019 16:39:17 4.4 C 35 %
2549 19-11-2019 16:49:17 3.8 C 38 %
2550 19-11-2019 16:59:17 3.5 C 39 %
Sensor: Nr:Datum:Temp:Feuchte:
Aussen-T/F 2551 19-11-2019 17:09:17 3.3 C 40 %
2552 19-11-2019 17:19:17 3.2 C 41 %
2553 19-11-2019 17:29:17 2.9 C 41 %
2554 19-11-2019 17:39:17 2.8 C 42 %
2555 19-11-2019 17:49:17 2.7 C 42 %
2556 19-11-2019 17:59:17 2.7 C 42 %
2557 19-11-2019 18:09:17 2.4 C 42 %
2558 19-11-2019 18:19:17 2.2 C 42 %
2559 19-11-2019 18:29:17 2.3 C 42 %
2560 19-11-2019 18:39:17 2.5 C 42 %
2561 19-11-2019 18:49:17 2.6 C 42 %
2562 19-11-2019 18:59:17 2 C 41 %
2563 19-11-2019 19:09:17 1.4 C 41 %
2564 19-11-2019 19:19:17 1.4 C 42 %
2565 19-11-2019 19:29:17 1.5 C 42 %
2566 19-11-2019 19:39:17 1.2 C 42 %
2567 19-11-2019 19:49:17 1 C 42 %
2568 19-11-2019 19:59:17 0.6 C 43 %
2569 19-11-2019 20:09:17 0.9 C 44 %
2570 19-11-2019 20:19:17 1.5 C 43 %
2571 19-11-2019 20:29:17 1.8 C 43 %
2572 19-11-2019 20:39:17 1.9 C 43 %
2573 19-11-2019 20:49:17 1.9 C 43 %
2574 19-11-2019 20:59:17 1.9 C 43 %
2575 19-11-2019 21:09:17 1.9 C 43 %
Sensor: Nr:Datum:Temp:Feuchte:
Aussen-T/F 2576 19-11-2019 21:19:17 1.9 C 43 %
2577 19-11-2019 21:29:17 1.9 C 42 %
2578 19-11-2019 21:39:17 2 C 41 %
2579 19-11-2019 21:49:17 2 C 41 %
2580 19-11-2019 21:59:17 1.9 C 42 %
2581 19-11-2019 22:09:17 1.7 C 42 %
2582 19-11-2019 22:19:17 1.5 C 41 %
2583 19-11-2019 22:29:17 1.4 C 41 %
2584 19-11-2019 22:39:17 1.1 C 41 %
2585 19-11-2019 22:49:17 0.6 C 41 %
2586 19-11-2019 22:59:17 0.6 C 42 %
2587 19-11-2019 23:09:17 -0.1 C 42 %
2588 19-11-2019 23:19:17 -0.2 C 42 %
2589 19-11-2019 23:29:17 -0.4 C 42 %
2590 19-11-2019 23:39:17 -0.5 C 42 %
2591 19-11-2019 23:49:17 -0.5 C 42 %
2592 19-11-2019 23:59:17 -0.6 C 42 %
2593 20-11-2019 00:09:17 -0.7 C 42 %
2594 20-11-2019 00:19:17 -0.6 C 42 %
2595 20-11-2019 00:29:17 -0.5 C 42 %
2596 20-11-2019 00:39:17 -0.7 C 42 %
2597 20-11-2019 00:49:17 -0.7 C 43 %
2598 20-11-2019 00:59:17 -0.8 C 42 %
2599 20-11-2019 01:09:17 -0.8 C 42 %
2600 20-11-2019 01:19:17 -1.1 C 42 %
Sensor: Nr:Datum:Temp:Feuchte:
Aussen-T/F 2601 20-11-2019 01:29:17 -1.1 C 42 %
2602 20-11-2019 01:39:17 -0.7 C 43 %
2603 20-11-2019 01:49:17 -0.6 C 43 %
2604 20-11-2019 01:59:17 -0.5 C 43 %
2605 20-11-2019 02:09:17 -0.4 C 43 %
2606 20-11-2019 02:19:17 -0.4 C 43 %
2607 20-11-2019 02:29:17 -0.5 C 43 %
2608 20-11-2019 02:39:17 -0.5 C 43 %
2609 20-11-2019 02:49:17 -0.4 C 43 %
2610 20-11-2019 02:59:17 -0.4 C 43 %
2611 20-11-2019 03:09:17 -0.3 C 43 %
2612 20-11-2019 03:19:17 -0.3 C 43 %
2613 20-11-2019 03:29:17 -0.4 C 43 %
2614 20-11-2019 03:39:17 -0.5 C 43 %
2615 20-11-2019 03:49:17 -0.5 C 43 %
2616 20-11-2019 03:59:17 -0.7 C 43 %
2617 20-11-2019 04:09:17 -0.6 C 43 %
2618 20-11-2019 04:19:17 -0.5 C 43 %
2619 20-11-2019 04:29:17 -0.6 C 42 %
2620 20-11-2019 04:39:17 -0.5 C 42 %
2621 20-11-2019 04:49:17 -0.5 C 42 %
2622 20-11-2019 04:59:17 -0.4 C 42 %
2623 20-11-2019 05:09:17 -0.3 C 42 %
2624 20-11-2019 05:19:17 -0.3 C 42 %
2625 20-11-2019 05:29:17 -0.3 C 42 %
Sensor: Nr:Datum:Temp:Feuchte:
Aussen-T/F 2626 20-11-2019 05:39:17 -0.3 C 42 %
2627 20-11-2019 05:49:17 -0.3 C 42 %
2628 20-11-2019 05:59:17 -0.2 C 42 %
2629 20-11-2019 06:09:17 -0.1 C 42 %
2630 20-11-2019 06:19:17 -0.1 C 42 %
2631 20-11-2019 06:29:17 0 C 42 %
2632 20-11-2019 06:39:17 0 C 42 %
2633 20-11-2019 06:49:17 0 C 42 %
2634 20-11-2019 06:59:17 0.2 C 42 %
2635 20-11-2019 07:09:17 0.2 C 42 %
2636 20-11-2019 07:19:17 0.2 C 42 %
2637 20-11-2019 07:29:17 0.4 C 42 %
2638 20-11-2019 07:39:18 0.3 C 42 %
2639 20-11-2019 07:49:17 0.4 C 42 %
2640 20-11-2019 07:59:17 0.4 C 42 %
2641 20-11-2019 08:09:17 0.4 C 42 %
2642 20-11-2019 08:19:17 0.5 C 42 %
2643 20-11-2019 08:29:17 0.6 C 42 %
2644 20-11-2019 08:39:17 0.7 C 43 %
2645 20-11-2019 08:49:17 0.8 C 43 %
2646 20-11-2019 08:59:17 0.9 C 43 %
2647 20-11-2019 09:09:17 1.1 C 42 %
2648 20-11-2019 09:19:17 1 C 42 %
2649 20-11-2019 09:29:17 1.2 C 42 %
2650 20-11-2019 09:39:17 1.6 C 42 %
Sensor: Nr:Datum:Temp:Feuchte:
Aussen-T/F 2651 20-11-2019 09:49:17 1.7 C 42 %
2652 20-11-2019 09:59:17 2 C 41 %
2653 20-11-2019 10:09:17 2.1 C 41 %
2654 20-11-2019 10:19:17 2.4 C 41 %
2655 20-11-2019 10:29:17 2.9 C 41 %
2656 20-11-2019 10:39:17 3 C 39 %
2657 20-11-2019 10:49:17 2.6 C 39 %
2658 20-11-2019 10:59:17 2.5 C 38 %
2659 20-11-2019 11:09:17 2.6 C 38 %
2660 20-11-2019 11:19:17 3.3 C 38 %
2661 20-11-2019 11:29:17 3.3 C 37 %
2662 20-11-2019 11:39:17 3 C 35 %
2663 20-11-2019 11:49:17 3.7 C 35 %
2664 20-11-2019 11:59:17 4.3 C 31 %
2665 20-11-2019 12:09:17 3.9 C 30 %
2666 20-11-2019 12:19:17 4.3 C 30 %
2667 20-11-2019 12:29:17 4.5 C 30 %
2668 20-11-2019 12:39:17 4.5 C 27 %
2669 20-11-2019 12:49:17 4.6 C 26 %
2670 20-11-2019 12:59:17 4.5 C 26 %
2671 20-11-2019 13:09:17 4.7 C 25 %
2672 20-11-2019 13:19:17 4.5 C 23 %
2673 20-11-2019 13:29:17 4.4 C 23 %
2674 20-11-2019 13:39:17 4.7 C 20 %
2675 20-11-2019 13:49:17 5.1 C 20 %
Sensor: Nr:Datum:Temp:Feuchte:
Aussen-T/F 2676 20-11-2019 13:59:17 4.8 C 20 %
2677 20-11-2019 14:09:17 4.8 C 20 %
2678 20-11-2019 14:19:17 4.8 C 20 %
2679 20-11-2019 14:29:17 4.7 C 20 %
2680 20-11-2019 14:39:17 4.7 C 20 %
2681 20-11-2019 14:49:17 4.7 C 20 %
2682 20-11-2019 14:59:17 4.7 C 20 %
2683 20-11-2019 15:09:17 4.7 C 20 %
2684 20-11-2019 15:19:17 4.7 C 20 %
2685 20-11-2019 15:29:17 4.6 C 20 %
2686 20-11-2019 15:39:17 4.5 C 20 %
2687 20-11-2019 15:49:17 4.3 C 21 %
2688 20-11-2019 15:59:17 3.4 C 26 %
2689 20-11-2019 16:09:17 2.7 C 28 %
2690 20-11-2019 16:19:17 2.2 C 29 %
2691 20-11-2019 16:29:17 1.8 C 30 %
2692 20-11-2019 16:39:17 1.8 C 30 %
2693 20-11-2019 16:49:17 1.5 C 32 %
2694 20-11-2019 16:59:17 1.5 C 32 %
2695 20-11-2019 17:09:17 1.7 C 32 %
2696 20-11-2019 17:19:17 1.8 C 34 %
2697 20-11-2019 17:29:17 1.7 C 35 %
2698 20-11-2019 17:39:17 0.9 C 35 %
2699 20-11-2019 17:49:17 0.5 C 38 %
2700 20-11-2019 17:59:17 0.6 C 40 %
Sensor: Nr:Datum:Temp:Feuchte:
Aussen-T/F 2701 20-11-2019 18:09:17 0.3 C 40 %
2702 20-11-2019 18:19:17 0.2 C 41 %
2703 20-11-2019 18:29:17 0.1 C 40 %
2704 20-11-2019 18:39:17 0 C 41 %
2705 20-11-2019 18:49:17 -0.2 C 41 %
2706 20-11-2019 18:59:17 -0.7 C 41 %
2707 20-11-2019 19:09:17 -0.9 C 41 %
2708 20-11-2019 19:19:17 -1.1 C 41 %
2709 20-11-2019 19:29:17 -1.2 C 41 %
2710 20-11-2019 19:39:18 -1.2 C 42 %
2711 20-11-2019 19:49:18 -1.4 C 42 %
2712 20-11-2019 19:59:18 -1.5 C 42 %
2713 20-11-2019 20:09:18 -1.6 C 42 %
2714 20-11-2019 20:19:17 -1.7 C 42 %
2715 20-11-2019 20:29:17 -1.4 C 43 %
2716 20-11-2019 20:39:17 -1.4 C 43 %
2717 20-11-2019 20:59:17 -1.7 C 43 %
2718 20-11-2019 20:59:17 -1.8 C 43 %
2719 20-11-2019 21:09:17 -1.8 C 42 %
2720 20-11-2019 21:19:17 -2 C 42 %
2721 20-11-2019 21:29:17 -2.1 C 42 %
2722 20-11-2019 21:39:17 -2.1 C 42 %
2723 20-11-2019 21:49:17 -2.3 C 42 %
2724 20-11-2019 21:59:17 -2.1 C 42 %
2725 20-11-2019 22:09:17 -2 C 43 %
Sensor: Nr:Datum:Temp:Feuchte:
Aussen-T/F 2726 20-11-2019 22:19:17 -2.1 C 42 %
2727 20-11-2019 22:29:17 -2.2 C 42 %
2728 20-11-2019 22:39:17 -2.1 C 42 %
2729 20-11-2019 22:49:17 -1.8 C 43 %
2730 20-11-2019 22:59:17 -1.7 C 43 %
2731 20-11-2019 23:09:17 -1.6 C 43 %
2732 20-11-2019 23:19:17 -1.4 C 43 %
2733 20-11-2019 23:29:17 -1.6 C 43 %
2734 20-11-2019 23:39:17 -1.3 C 43 %
2735 20-11-2019 23:49:17 -1.1 C 43 %
2736 20-11-2019 23:59:17 -1.1 C 43 %
2737 21-11-2019 00:09:17 -1.3 C 43 %
2738 21-11-2019 00:29:17 -1.8 C 42 %
2739 21-11-2019 00:30:17 -1.9 C 42 %
2740 21-11-2019 00:39:17 -2 C 41 %
2741 21-11-2019 00:50:17 -2.1 C 41 %
2742 21-11-2019 01:00:17 -2.4 C 41 %
2743 21-11-2019 01:10:17 -2.4 C 41 %
2744 21-11-2019 01:20:17 -2.5 C 41 %
2745 21-11-2019 01:30:17 -2.3 C 41 %
2746 21-11-2019 01:40:17 -2.7 C 40 %
2747 21-11-2019 01:50:17 -2.6 C 41 %
2748 21-11-2019 02:00:17 -2.6 C 40 %
2749 21-11-2019 02:10:17 -2.7 C 40 %
2750 21-11-2019 02:20:17 -2.2 C 42 %
Sensor: Nr:Datum:Temp:Feuchte:
Aussen-T/F 2751 21-11-2019 02:30:17 -2.3 C 42 %
2752 21-11-2019 02:40:17 -1.9 C 42 %
2753 21-11-2019 02:50:17 -2.1 C 42 %
2754 21-11-2019 03:00:17 -2.2 C 41 %
2755 21-11-2019 03:10:17 -2.4 C 41 %
2756 21-11-2019 03:20:17 -2.3 C 41 %
2757 21-11-2019 03:30:17 -2.1 C 42 %
2758 21-11-2019 03:40:17 -1.8 C 42 %
2759 21-11-2019 03:50:17 -1.6 C 42 %
2760 21-11-2019 04:00:17 -1.5 C 42 %
2761 21-11-2019 04:10:17 -1.3 C 43 %
2762 21-11-2019 04:20:17 -1.1 C 43 %
2763 21-11-2019 04:30:17 -1 C 43 %
2764 21-11-2019 04:40:17 -1 C 43 %
2765 21-11-2019 04:50:17 -1 C 43 %
2766 21-11-2019 05:00:17 -1 C 43 %
2767 21-11-2019 05:10:17 -0.7 C 43 %
2768 21-11-2019 05:20:17 -0.6 C 43 %
2769 21-11-2019 05:30:17 -0.6 C 43 %
2770 21-11-2019 05:40:17 -0.5 C 43 %
2771 21-11-2019 05:50:17 -0.4 C 43 %
2772 21-11-2019 06:00:17 -0.3 C 43 %
2773 21-11-2019 06:10:17 -0.3 C 43 %
2774 21-11-2019 06:20:17 -0.3 C 43 %
2775 21-11-2019 06:30:17 -0.3 C 43 %
Sensor: Nr:Datum:Temp:Feuchte:
Aussen-T/F 2776 21-11-2019 06:40:17 -0.3 C 43 %
2777 21-11-2019 06:50:17 -0.2 C 43 %
2778 21-11-2019 07:00:17 -0.2 C 43 %
2779 21-11-2019 07:10:17 -0.2 C 43 %
2780 21-11-2019 07:20:17 -0.1 C 43 %
2781 21-11-2019 07:30:17 -0.2 C 43 %
2782 21-11-2019 07:40:17 -0.2 C 43 %
2783 21-11-2019 07:50:17 -0.1 C 43 %
2784 21-11-2019 08:00:17 -0.1 C 43 %
2785 21-11-2019 08:10:17 0 C 43 %
2786 21-11-2019 08:20:17 0 C 43 %
2787 21-11-2019 08:30:17 0.1 C 43 %
2788 21-11-2019 08:40:17 0.2 C 43 %
2789 21-11-2019 08:50:17 0.2 C 43 %
2790 21-11-2019 09:00:17 0.2 C 43 %
2791 21-11-2019 09:10:17 0.3 C 43 %
2792 21-11-2019 09:20:17 0.4 C 43 %
2793 21-11-2019 09:30:17 0.6 C 43 %
2794 21-11-2019 09:40:17 0.8 C 43 %
2795 21-11-2019 09:50:17 1.1 C 42 %
2796 21-11-2019 10:00:17 1.1 C 41 %
2797 21-11-2019 10:10:17 1.2 C 40 %
2798 21-11-2019 10:20:17 1.6 C 40 %
2799 21-11-2019 10:30:17 1.5 C 39 %
2800 21-11-2019 10:40:17 1.5 C 39 %
Sensor: Nr:Datum:Temp:Feuchte:
Aussen-T/F 2801 21-11-2019 10:50:17 1.7 C 38 %
2802 21-11-2019 11:00:17 2.1 C 37 %
2803 21-11-2019 11:10:17 2.2 C 37 %
2804 21-11-2019 11:20:17 2.3 C 34 %
2805 21-11-2019 11:30:17 2.5 C 33 %
2806 21-11-2019 11:40:17 2.7 C 33 %
2807 21-11-2019 11:50:17 3 C 32 %
2808 21-11-2019 12:00:17 2.8 C 32 %
2809 21-11-2019 12:10:17 2.5 C 33 %
2810 21-11-2019 12:20:17 2.6 C 34 %
2811 21-11-2019 12:30:18 2.8 C 35 %
2812 21-11-2019 12:40:18 3.1 C 35 %
2813 21-11-2019 12:50:18 3.3 C 34 %
2814 21-11-2019 13:00:17 3.1 C 31 %
2815 21-11-2019 13:10:17 3.7 C 34 %
2816 21-11-2019 13:20:17 3.9 C 31 %
2817 21-11-2019 13:30:17 4.1 C 32 %
2818 21-11-2019 13:40:17 4 C 31 %
2819 21-11-2019 13:50:17 3.9 C 32 %
2820 21-11-2019 14:00:17 3.9 C 31 %
2821 21-11-2019 14:10:17 3.9 C 30 %
2822 21-11-2019 14:20:17 4.2 C 31 %
2823 21-11-2019 14:30:17 4.4 C 31 %
2824 21-11-2019 14:40:17 4.4 C 30 %
2825 21-11-2019 14:50:17 4.1 C 29 %
Sensor: Nr:Datum:Temp:Feuchte:
Aussen-T/F 2826 21-11-2019 15:00:17 4.1 C 30 %
2827 21-11-2019 15:10:17 4.2 C 29 %
2828 21-11-2019 15:20:17 4.4 C 30 %
2829 21-11-2019 15:30:17 4.3 C 30 %
2830 21-11-2019 15:40:17 4.2 C 29 %
2831 21-11-2019 15:50:17 4.3 C 30 %
2832 21-11-2019 16:00:17 4.3 C 30 %
2833 21-11-2019 16:10:17 4.2 C 31 %
2834 21-11-2019 16:20:17 4 C 33 %
2835 21-11-2019 16:30:17 3.9 C 36 %
2836 21-11-2019 16:40:17 3.7 C 37 %
2837 21-11-2019 16:50:17 3.7 C 39 %
2838 21-11-2019 17:00:17 3.6 C 39 %
2839 21-11-2019 17:10:17 3.6 C 38 %
2840 21-11-2019 17:20:17 3.5 C 39 %
2841 21-11-2019 17:30:17 3.4 C 39 %
2842 21-11-2019 17:40:17 3.4 C 39 %
2843 21-11-2019 17:50:17 3.3 C 39 %
2844 21-11-2019 18:00:17 3.3 C 39 %
2845 21-11-2019 18:10:17 3.3 C 39 %
2846 21-11-2019 18:20:17 3.3 C 38 %
2847 21-11-2019 18:30:17 3.3 C 39 %
2848 21-11-2019 18:40:17 3.4 C 39 %
2849 21-11-2019 18:50:17 3.3 C 40 %
2850 21-11-2019 19:00:17 3.3 C 40 %
Sensor: Nr:Datum:Temp:Feuchte:
Aussen-T/F 2851 21-11-2019 19:10:17 3.2 C 40 %
2852 21-11-2019 19:20:17 3 C 39 %
2853 21-11-2019 19:30:17 3 C 40 %
2854 21-11-2019 19:40:17 3.1 C 41 %
2855 21-11-2019 19:50:17 2.9 C 41 %
2856 21-11-2019 20:00:17 2.5 C 40 %
2857 21-11-2019 20:10:17 2 C 40 %
2858 21-11-2019 20:20:17 1.9 C 42 %
2859 21-11-2019 20:30:17 2.1 C 42 %
2860 21-11-2019 20:40:17 1.6 C 42 %
2861 21-11-2019 20:50:17 1.5 C 42 %
2862 21-11-2019 21:00:17 1.6 C 43 %
2863 21-11-2019 21:10:17 1.6 C 43 %
2864 21-11-2019 21:20:17 1.3 C 43 %
2865 21-11-2019 21:30:17 1.3 C 43 %
2866 21-11-2019 21:40:17 1.5 C 43 %
2867 21-11-2019 21:50:17 1.2 C 43 %
2868 21-11-2019 22:00:17 1 C 42 %
2869 21-11-2019 22:10:17 0.8 C 44 %
2870 21-11-2019 22:20:17 1.2 C 43 %
2871 21-11-2019 22:30:17 0.9 C 44 %
2872 21-11-2019 22:40:17 0.8 C 44 %
2873 21-11-2019 22:50:17 1 C 43 %
2874 21-11-2019 23:00:17 1.1 C 43 %
2875 21-11-2019 23:10:17 1.4 C 43 %
Sensor: Nr:Datum:Temp:Feuchte:
Aussen-T/F 2876 21-11-2019 23:20:17 1 C 43 %
2877 21-11-2019 23:30:17 1 C 43 %
2878 21-11-2019 23:40:17 1.5 C 43 %
2879 21-11-2019 23:50:17 1.5 C 43 %
2880 22-11-2019 00:00:17 1.3 C 43 %
2881 22-11-2019 00:10:17 1.3 C 43 %
2882 22-11-2019 00:20:17 1.3 C 43 %
2883 22-11-2019 00:30:17 1.3 C 43 %
2884 22-11-2019 00:40:17 1 C 42 %
2885 22-11-2019 00:50:17 1.1 C 42 %
2886 22-11-2019 01:00:17 1 C 42 %
2887 22-11-2019 01:10:17 1.2 C 43 %
2888 22-11-2019 01:20:17 0.9 C 43 %
2889 22-11-2019 01:30:17 1 C 42 %
2890 22-11-2019 01:40:17 1 C 42 %
2891 22-11-2019 01:50:17 0.6 C 43 %
2892 22-11-2019 02:00:17 0.4 C 43 %
2893 22-11-2019 02:10:17 0 C 42 %
2894 22-11-2019 02:20:17 1 C 42 %
2895 22-11-2019 02:30:17 0.8 C 44 %
2896 22-11-2019 02:40:17 0.7 C 43 %
2897 22-11-2019 02:50:17 0.5 C 43 %
2898 22-11-2019 03:00:17 0.6 C 43 %
2899 22-11-2019 03:10:17 0.8 C 44 %
2900 22-11-2019 03:20:17 0.8 C 43 %
Sensor: Nr:Datum:Temp:Feuchte:
Aussen-T/F 2901 22-11-2019 03:30:17 0.6 C 43 %
2902 22-11-2019 03:40:17 0.7 C 43 %
2903 22-11-2019 03:50:17 1.1 C 42 %
2904 22-11-2019 04:00:17 1.1 C 42 %
2905 22-11-2019 04:10:17 1.1 C 42 %
2906 22-11-2019 04:20:17 1.2 C 42 %
2907 22-11-2019 04:30:17 1.3 C 42 %
2908 22-11-2019 04:40:17 1.3 C 42 %
2909 22-11-2019 04:50:17 1.2 C 42 %
2910 22-11-2019 05:00:18 1.4 C 42 %
2911 22-11-2019 05:10:18 1.6 C 42 %
2912 22-11-2019 05:20:17 1.9 C 42 %
2913 22-11-2019 05:30:17 2.1 C 41 %
2914 22-11-2019 05:40:17 2.2 C 41 %
2915 22-11-2019 05:50:17 2.6 C 41 %
2916 22-11-2019 06:00:18 2.5 C 41 %
2917 22-11-2019 06:10:18 2.8 C 41 %
2918 22-11-2019 06:20:18 2.6 C 41 %
2919 22-11-2019 06:30:18 2.7 C 41 %
2920 22-11-2019 06:40:18 2.9 C 41 %
2921 22-11-2019 06:50:18 3 C 41 %
2922 22-11-2019 07:00:17 3 C 41 %
2923 22-11-2019 07:10:17 3 C 41 %
2924 22-11-2019 07:20:17 3.1 C 41 %
2925 22-11-2019 07:30:17 3.2 C 41 %
Sensor: Nr:Datum:Temp:Feuchte:
Aussen-T/F 2926 22-11-2019 07:40:17 3.4 C 41 %
2927 22-11-2019 07:50:17 3.4 C 41 %
2928 22-11-2019 08:00:17 3.4 C 41 %
2929 22-11-2019 08:10:17 3.5 C 41 %
2930 22-11-2019 08:20:17 3.7 C 41 %
2931 22-11-2019 08:30:17 3.8 C 41 %
2932 22-11-2019 08:40:17 3.7 C 41 %
2933 22-11-2019 08:50:17 3.7 C 41 %
2934 22-11-2019 09:00:17 3.9 C 41 %
2935 22-11-2019 09:10:17 3.9 C 40 %
2936 22-11-2019 09:20:17 4 C 39 %
2937 22-11-2019 09:30:17 3.8 C 39 %
2938 22-11-2019 09:40:17 3.7 C 39 %
2939 22-11-2019 09:50:17 3.5 C 39 %
2940 22-11-2019 10:00:17 3.3 C 39 %
2941 22-11-2019 10:10:17 3.5 C 40 %
2942 22-11-2019 10:20:17 3.5 C 39 %
2943 22-11-2019 10:30:17 3.6 C 40 %
2944 22-11-2019 10:40:17 4.1 C 39 %
2945 22-11-2019 10:50:17 4.3 C 39 %
2946 22-11-2019 11:00:17 4.2 C 38 %
2947 22-11-2019 11:10:17 4.4 C 38 %
2948 22-11-2019 11:20:17 4.5 C 37 %
2949 22-11-2019 11:30:17 5 C 35 %
2950 22-11-2019 11:40:17 5.3 C 33 %
Sensor: Nr:Datum:Temp:Feuchte:
Aussen-T/F 2951 22-11-2019 11:50:17 5.3 C 32 %
2952 22-11-2019 12:00:17 5.6 C 32 %
2953 22-11-2019 12:10:17 5.5 C 32 %
2954 22-11-2019 12:20:17 5.6 C 32 %
2955 22-11-2019 12:30:17 5.6 C 32 %
2956 22-11-2019 12:40:17 5.8 C 32 %
2957 22-11-2019 12:50:17 5.8 C 31 %
2958 22-11-2019 13:00:17 5.7 C 30 %
2959 22-11-2019 13:10:17 5.9 C 31 %
2960 22-11-2019 13:20:17 6 C 30 %
2961 22-11-2019 13:30:17 5.7 C 29 %
2962 22-11-2019 13:40:17 5.5 C 29 %
2963 22-11-2019 13:50:17 5.5 C 29 %
2964 22-11-2019 14:00:17 5.5 C 29 %
2965 22-11-2019 14:10:17 5.7 C 29 %
2966 22-11-2019 14:20:17 5.7 C 28 %
2967 22-11-2019 14:30:17 5.9 C 28 %
2968 22-11-2019 14:40:17 5.8 C 27 %
2969 22-11-2019 14:50:17 5.8 C 28 %
2970 22-11-2019 15:00:17 5.6 C 28 %
2971 22-11-2019 15:10:17 5.6 C 28 %
2972 22-11-2019 15:20:17 5.6 C 29 %
2973 22-11-2019 15:30:17 5.5 C 28 %
2974 22-11-2019 15:40:17 5.4 C 29 %
2975 22-11-2019 15:50:17 5.4 C 29 %
Sensor: Nr:Datum:Temp:Feuchte:
Aussen-T/F 2976 22-11-2019 16:00:17 5.3 C 29 %
2977 22-11-2019 16:10:17 5.3 C 30 %
2978 22-11-2019 16:20:17 5.2 C 30 %
2979 22-11-2019 16:30:17 5.2 C 30 %
2980 22-11-2019 16:40:17 5.1 C 31 %
2981 22-11-2019 16:50:17 5 C 31 %
2982 22-11-2019 17:00:17 4.9 C 32 %
2983 22-11-2019 17:10:17 4.9 C 33 %
2984 22-11-2019 17:20:17 4.8 C 34 %
2985 22-11-2019 17:30:17 4.9 C 33 %
2986 22-11-2019 17:40:17 4.9 C 32 %
2987 22-11-2019 17:50:17 5 C 31 %
2988 22-11-2019 18:00:17 5 C 30 %
2989 22-11-2019 18:10:17 4.8 C 32 %
2990 22-11-2019 18:20:17 4.7 C 34 %
2991 22-11-2019 18:30:17 4.8 C 33 %
2992 22-11-2019 18:40:17 4.8 C 32 %
2993 22-11-2019 18:50:17 4.8 C 32 %
2994 22-11-2019 19:00:17 4.8 C 31 %
2995 22-11-2019 19:10:17 4.7 C 32 %
2996 22-11-2019 19:20:17 4.8 C 30 %
2997 22-11-2019 19:30:17 4.8 C 30 %
2998 22-11-2019 19:40:17 4.8 C 30 %
2999 22-11-2019 19:50:17 4.7 C 31 %
3000 22-11-2019 20:00:17 4.6 C 31 %
Sensor: Nr:Datum:Temp:Feuchte:
Aussen-T/F 3001 22-11-2019 20:10:17 4.6 C 30 %
3002 22-11-2019 20:20:17 4.6 C 30 %
3003 22-11-2019 20:30:17 4.5 C 30 %
3004 22-11-2019 20:40:17 4.5 C 30 %
3005 22-11-2019 20:50:17 4.3 C 30 %
3006 22-11-2019 21:00:17 4.3 C 30 %
3007 22-11-2019 21:10:17 4.4 C 31 %
3008 22-11-2019 21:20:17 4.3 C 31 %
3009 22-11-2019 21:30:17 4.3 C 31 %
3010 22-11-2019 21:40:17 4.3 C 31 %
3011 22-11-2019 21:50:17 4.3 C 30 %
3012 22-11-2019 22:00:17 4.2 C 31 %
3013 22-11-2019 22:10:17 4.2 C 31 %
3014 22-11-2019 22:20:17 4.2 C 30 %
3015 22-11-2019 22:30:17 4.2 C 30 %
3016 22-11-2019 22:40:17 4.2 C 29 %
3017 22-11-2019 22:50:17 4.1 C 30 %
3018 22-11-2019 23:00:17 4 C 30 %
3019 22-11-2019 23:10:17 4.1 C 28 %
3020 22-11-2019 23:20:17 4 C 30 %
3021 22-11-2019 23:30:17 4 C 30 %
3022 22-11-2019 23:40:17 4 C 30 %
3023 22-11-2019 23:50:17 3.9 C 31 %
3024 23-11-2019 00:00:17 4 C 29 %
3025 23-11-2019 00:10:17 4 C 29 %
Sensor: Nr:Datum:Temp:Feuchte:
Aussen-T/F 3026 23-11-2019 00:20:17 4 C 29 %
3027 23-11-2019 00:30:17 4 C 29 %
3028 23-11-2019 00:40:17 4 C 28 %
3029 23-11-2019 00:50:17 4 C 29 %
3030 23-11-2019 01:00:17 4.1 C 28 %
3031 23-11-2019 01:10:17 4.2 C 27 %
3032 23-11-2019 01:20:17 4.1 C 29 %
3033 23-11-2019 01:30:17 4 C 30 %
3034 23-11-2019 01:40:17 4.1 C 29 %
3035 23-11-2019 01:50:17 4 C 29 %
3036 23-11-2019 02:00:17 4.1 C 27 %
3037 23-11-2019 02:10:17 4.1 C 27 %
3038 23-11-2019 02:20:17 4 C 30 %
3039 23-11-2019 02:30:18 3.8 C 32 %
3040 23-11-2019 02:40:18 3.7 C 32 %
3041 23-11-2019 02:50:17 3.6 C 32 %
3042 23-11-2019 03:00:17 3.6 C 33 %
3043 23-11-2019 03:10:17 3.7 C 32 %
3044 23-11-2019 03:20:17 3.8 C 31 %
3045 23-11-2019 03:30:17 3.7 C 32 %
3046 23-11-2019 03:40:17 3.5 C 33 %
3047 23-11-2019 03:50:17 3.2 C 34 %
3048 23-11-2019 04:00:17 3.2 C 35 %
3049 23-11-2019 04:10:17 3.1 C 38 %
3050 23-11-2019 04:20:17 3.3 C 36 %
Sensor: Nr:Datum:Temp:Feuchte:
Aussen-T/F 3051 23-11-2019 04:30:17 3 C 36 %
3052 23-11-2019 04:40:17 3 C 37 %
3053 23-11-2019 04:50:17 3 C 37 %
3054 23-11-2019 05:00:17 3 C 38 %
3055 23-11-2019 05:10:17 3 C 39 %
3056 23-11-2019 05:20:17 2.7 C 39 %
3057 23-11-2019 05:30:17 2.9 C 40 %
3058 23-11-2019 05:40:17 2.8 C 40 %
3059 23-11-2019 05:50:17 2.9 C 40 %
3060 23-11-2019 06:00:17 3 C 39 %
3061 23-11-2019 06:10:17 3 C 39 %
3062 23-11-2019 06:20:17 3 C 39 %
3063 23-11-2019 06:30:17 3 C 40 %
3064 23-11-2019 06:40:17 3.1 C 40 %
3065 23-11-2019 06:50:17 3 C 40 %
3066 23-11-2019 07:00:17 3.2 C 40 %
3067 23-11-2019 07:10:17 3.2 C 39 %
3068 23-11-2019 07:20:17 3.3 C 40 %
3069 23-11-2019 07:30:17 3.2 C 39 %
3070 23-11-2019 07:40:17 3.3 C 40 %
3071 23-11-2019 07:50:17 3.2 C 40 %
3072 23-11-2019 08:00:17 3.3 C 39 %
3073 23-11-2019 08:10:17 3.3 C 40 %
3074 23-11-2019 08:20:17 3.2 C 40 %
3075 23-11-2019 08:30:17 3.3 C 40 %
Sensor: Nr:Datum:Temp:Feuchte:
Aussen-T/F 3076 23-11-2019 08:40:17 3.4 C 40 %
3077 23-11-2019 08:50:17 3.8 C 37 %
3078 23-11-2019 09:00:17 4.2 C 33 %
3079 23-11-2019 09:10:17 4.3 C 33 %
3080 23-11-2019 09:20:17 4.5 C 33 %
3081 23-11-2019 09:30:17 4.9 C 31 %
3082 23-11-2019 09:40:17 5.1 C 31 %
3083 23-11-2019 09:50:17 5.4 C 27 %
3084 23-11-2019 10:00:17 5.4 C 26 %
3085 23-11-2019 10:10:17 5.7 C 26 %
3086 23-11-2019 10:20:17 6 C 26 %
3087 23-11-2019 10:30:17 6 C 25 %
3088 23-11-2019 10:40:17 6.1 C 26 %
3089 23-11-2019 10:50:17 6.2 C 25 %
3090 23-11-2019 11:00:17 6.4 C 25 %
3091 23-11-2019 11:10:17 6.6 C 25 %
3092 23-11-2019 11:20:17 6.7 C 25 %
3093 23-11-2019 11:30:17 7.1 C 21 %
3094 23-11-2019 11:40:17 7.1 C 23 %
3095 23-11-2019 11:50:17 7 C 25 %
3096 23-11-2019 12:00:17 6.4 C 28 %
3097 23-11-2019 12:10:17 6.4 C 28 %
3098 23-11-2019 12:20:17 6.5 C 27 %
3099 23-11-2019 12:30:17 6.5 C 28 %
3100 23-11-2019 12:40:17 6.5 C 29 %
Sensor: Nr:Datum:Temp:Feuchte:
Aussen-T/F 3101 23-11-2019 12:50:17 7.3 C 25 %
3102 23-11-2019 13:00:17 7.3 C 25 %
3103 23-11-2019 13:10:17 6.7 C 28 %
3104 23-11-2019 13:20:17 6.8 C 29 %
3105 23-11-2019 13:30:17 6.6 C 29 %
3106 23-11-2019 13:40:17 6.6 C 30 %
3107 23-11-2019 13:50:17 6.6 C 30 %
3108 23-11-2019 14:00:17 6.6 C 30 %
3109 23-11-2019 14:10:17 6.8 C 30 %
3110 23-11-2019 14:20:17 7 C 29 %
3111 23-11-2019 14:30:17 7.2 C 27 %
3112 23-11-2019 14:40:17 7.1 C 28 %
3113 23-11-2019 14:50:17 7.2 C 28 %
3114 23-11-2019 15:00:17 7.7 C 26 %
3115 23-11-2019 15:10:17 8.1 C 26 %
3116 23-11-2019 15:20:17 8.4 C 23 %
3117 23-11-2019 15:30:17 8.4 C 25 %
3118 23-11-2019 15:40:17 8.1 C 25 %
3119 23-11-2019 15:50:17 7.5 C 26 %
3120 23-11-2019 16:00:17 7.5 C 26 %
3121 23-11-2019 16:10:17 7.3 C 25 %
3122 23-11-2019 16:20:17 7.3 C 25 %
3123 23-11-2019 16:30:17 6.5 C 28 %
3124 23-11-2019 16:40:17 5.9 C 31 %
3125 23-11-2019 16:50:17 5.7 C 32 %
Sensor: Nr:Datum:Temp:Feuchte:
Aussen-T/F 3126 23-11-2019 17:00:17 5.7 C 32 %
3127 23-11-2019 17:10:17 5.8 C 31 %
3128 23-11-2019 17:20:17 5.6 C 32 %
3129 23-11-2019 17:30:17 5.5 C 33 %
3130 23-11-2019 17:40:17 5.3 C 32 %
3131 23-11-2019 17:50:17 5.3 C 33 %
3132 23-11-2019 18:00:17 5.3 C 33 %
3133 23-11-2019 18:10:17 5 C 34 %
3134 23-11-2019 18:20:17 5.3 C 34 %
3135 23-11-2019 18:30:17 5.3 C 34 %
3136 23-11-2019 18:40:17 5.3 C 34 %
3137 23-11-2019 18:50:17 4.9 C 36 %
3138 23-11-2019 19:00:17 5.1 C 35 %
3139 23-11-2019 19:10:17 5 C 36 %
3140 23-11-2019 19:20:17 5 C 36 %
3141 23-11-2019 19:30:17 5 C 36 %
3142 23-11-2019 19:40:17 4.7 C 36 %
3143 23-11-2019 19:50:17 4.7 C 38 %
3144 23-11-2019 20:00:17 4.5 C 40 %
3145 23-11-2019 20:10:17 4.2 C 39 %
3146 23-11-2019 20:20:17 4.1 C 40 %
3147 23-11-2019 20:30:17 3.6 C 40 %
3148 23-11-2019 20:40:18 3.6 C 40 %
3149 23-11-2019 20:50:17 3.6 C 42 %
3150 23-11-2019 21:00:17 3.6 C 42 %
Sensor: Nr:Datum:Temp:Feuchte:
Aussen-T/F 3151 23-11-2019 21:10:17 3.5 C 42 %
3152 23-11-2019 21:20:17 3.3 C 41 %
3153 23-11-2019 21:30:17 3.2 C 41 %
3154 23-11-2019 21:40:17 3.2 C 42 %
3155 23-11-2019 21:50:17 3.2 C 42 %
3156 23-11-2019 22:00:17 3.1 C 42 %
3157 23-11-2019 22:10:17 2.8 C 42 %
3158 23-11-2019 22:20:17 2.6 C 42 %
3159 23-11-2019 22:30:17 2.7 C 42 %
3160 23-11-2019 22:40:17 2.6 C 42 %
3161 23-11-2019 22:50:17 2.6 C 42 %
3162 23-11-2019 23:00:17 2.5 C 42 %
3163 23-11-2019 23:10:17 2.2 C 42 %
3164 23-11-2019 23:20:17 2.2 C 42 %
3165 23-11-2019 23:30:17 2 C 42 %
3166 23-11-2019 23:40:17 2.1 C 42 %
3167 23-11-2019 23:50:17 2.1 C 42 %
3168 24-11-2019 00:00:17 1.9 C 43 %
3169 24-11-2019 00:10:17 1.7 C 43 %
3170 24-11-2019 00:20:17 1.7 C 43 %
3171 24-11-2019 00:30:17 1.6 C 43 %
3172 24-11-2019 00:40:17 1.4 C 42 %
3173 24-11-2019 00:50:18 1.1 C 42 %
3174 24-11-2019 01:00:18 1.2 C 43 %
3175 24-11-2019 01:10:18 1.4 C 43 %
Sensor: Nr:Datum:Temp:Feuchte:
Aussen-T/F 3176 24-11-2019 01:20:17 1.3 C 43 %
3177 24-11-2019 01:30:17 1.2 C 42 %
3178 24-11-2019 01:40:17 1.2 C 43 %
3179 24-11-2019 01:50:17 1.1 C 43 %
3180 24-11-2019 02:00:17 1.1 C 43 %
3181 24-11-2019 02:10:17 1.1 C 43 %
3182 24-11-2019 02:20:17 1.2 C 43 %
3183 24-11-2019 02:30:17 1 C 42 %
3184 24-11-2019 02:40:17 1.1 C 42 %
3185 24-11-2019 02:50:17 1.1 C 42 %
3186 24-11-2019 03:00:17 0.9 C 44 %
3187 24-11-2019 03:10:17 1.1 C 43 %
3188 24-11-2019 03:20:17 1.2 C 42 %
3189 24-11-2019 03:30:17 1 C 42 %
3190 24-11-2019 03:40:17 0.7 C 43 %
3191 24-11-2019 03:50:17 0.6 C 43 %
3192 24-11-2019 04:00:17 0.5 C 43 %
3193 24-11-2019 04:10:17 0.5 C 43 %
3194 24-11-2019 04:20:17 0.6 C 43 %
3195 24-11-2019 04:30:17 0.5 C 43 %
3196 24-11-2019 04:40:17 0.5 C 43 %
3197 24-11-2019 04:50:17 0.6 C 44 %
3198 24-11-2019 05:00:17 0.6 C 44 %
3199 24-11-2019 05:10:17 0.8 C 44 %
3200 24-11-2019 05:20:17 1 C 42 %
Sensor: Nr:Datum:Temp:Feuchte:
Aussen-T/F 3201 24-11-2019 05:30:17 1.1 C 42 %
3202 24-11-2019 05:40:17 1 C 42 %
3203 24-11-2019 05:50:17 0.6 C 43 %
3204 24-11-2019 06:00:18 0.4 C 43 %
3205 24-11-2019 06:10:18 0.5 C 43 %
3206 24-11-2019 06:20:17 0.5 C 43 %
3207 24-11-2019 06:30:17 0.5 C 43 %
3208 24-11-2019 06:40:17 0.5 C 43 %
3209 24-11-2019 06:50:17 0.3 C 43 %
3210 24-11-2019 07:00:18 0.4 C 43 %
3211 24-11-2019 07:10:18 0.1 C 43 %
3212 24-11-2019 07:20:18 0.1 C 43 %
3213 24-11-2019 07:30:17 0.1 C 43 %
3214 24-11-2019 07:40:17 -0.3 C 43 %
3215 24-11-2019 07:50:18 -0.3 C 43 %
3216 24-11-2019 08:00:18 -0.1 C 43 %
3217 24-11-2019 08:10:18 0.1 C 43 %
3218 24-11-2019 08:20:17 -0.1 C 43 %
3219 24-11-2019 08:30:17 0.3 C 43 %
3220 24-11-2019 08:40:17 0.5 C 43 %
3221 24-11-2019 08:50:17 0.5 C 43 %
3222 24-11-2019 09:00:17 0.6 C 43 %
3223 24-11-2019 09:10:17 0.7 C 43 %
3224 24-11-2019 09:20:17 0.8 C 43 %
3225 24-11-2019 09:30:17 0.8 C 43 %
Sensor: Nr:Datum:Temp:Feuchte:
Aussen-T/F 3226 24-11-2019 09:40:17 1 C 42 %
3227 24-11-2019 09:50:17 1.1 C 42 %
3228 24-11-2019 10:00:17 1.2 C 42 %
3229 24-11-2019 10:10:17 1.5 C 42 %
3230 24-11-2019 10:20:17 1.7 C 42 %
3231 24-11-2019 10:30:17 2 C 42 %
3232 24-11-2019 10:40:17 2.2 C 41 %
3233 24-11-2019 10:50:17 2.7 C 42 %
3234 24-11-2019 11:00:17 2.5 C 41 %
3235 24-11-2019 11:10:17 2.1 C 40 %
3236 24-11-2019 11:20:17 2.2 C 40 %
3237 24-11-2019 11:30:17 2.2 C 40 %
3238 24-11-2019 11:40:17 2.3 C 40 %
3239 24-11-2019 11:50:17 2.5 C 40 %
3240 24-11-2019 12:00:17 2.7 C 41 %
3241 24-11-2019 12:10:17 3 C 40 %
3242 24-11-2019 12:20:17 3.4 C 40 %
3243 24-11-2019 12:30:17 3.8 C 40 %
3244 24-11-2019 12:40:17 4 C 38 %
3245 24-11-2019 12:50:17 4.2 C 38 %
3246 24-11-2019 13:00:17 4.6 C 38 %
3247 24-11-2019 13:10:17 5.1 C 35 %
3248 24-11-2019 13:20:17 5 C 35 %
3249 24-11-2019 13:30:17 5 C 35 %
3250 24-11-2019 13:40:17 4.7 C 35 %
Sensor: Nr:Datum:Temp:Feuchte:
Aussen-T/F 3251 24-11-2019 13:50:17 4.8 C 35 %
3252 24-11-2019 14:00:17 5.1 C 35 %
3253 24-11-2019 14:10:17 5.1 C 35 %
3254 24-11-2019 14:20:17 5 C 35 %
3255 24-11-2019 14:30:17 4.8 C 37 %
3256 24-11-2019 14:40:17 4.6 C 37 %
3257 24-11-2019 14:50:17 4.6 C 39 %
3258 24-11-2019 15:00:17 4.5 C 38 %
3259 24-11-2019 15:10:17 4.7 C 40 %
3260 24-11-2019 15:20:17 4.9 C 39 %
3261 24-11-2019 15:30:17 4.8 C 38 %
3262 24-11-2019 15:40:17 4.7 C 38 %
3263 24-11-2019 15:50:17 4.6 C 38 %
3264 24-11-2019 16:00:17 4.5 C 40 %
3265 24-11-2019 16:10:17 4.2 C 39 %
3266 24-11-2019 16:20:17 3.9 C 40 %
3267 24-11-2019 16:30:17 3.7 C 41 %
3268 24-11-2019 16:40:17 3.5 C 41 %
3269 24-11-2019 16:50:17 3.2 C 41 %
3270 24-11-2019 17:00:17 3 C 41 %
3271 24-11-2019 17:10:17 2.8 C 42 %
3272 24-11-2019 17:20:17 2.7 C 42 %
3273 24-11-2019 17:30:17 2.6 C 42 %
3274 24-11-2019 17:40:17 2.4 C 42 %
3275 24-11-2019 17:50:17 2.6 C 43 %
Sensor: Nr:Datum:Temp:Feuchte:
Aussen-T/F 3276 24-11-2019 18:00:17 2.5 C 42 %
3277 24-11-2019 18:10:17 2.8 C 43 %
3278 24-11-2019 18:20:17 2.6 C 42 %
3279 24-11-2019 18:30:17 2.9 C 43 %
3280 24-11-2019 18:40:17 2.6 C 42 %
3281 24-11-2019 18:50:17 2.7 C 42 %
3282 24-11-2019 19:00:17 2.5 C 42 %
3283 24-11-2019 19:10:17 2.6 C 42 %
3284 24-11-2019 19:20:17 2.6 C 42 %
3285 24-11-2019 19:30:17 2.8 C 42 %
3286 24-11-2019 19:40:17 2.7 C 42 %
3287 24-11-2019 19:50:17 2.7 C 42 %
3288 24-11-2019 20:00:17 2.5 C 42 %
3289 24-11-2019 20:10:17 2.4 C 42 %
3290 24-11-2019 20:20:17 2.1 C 41 %
3291 24-11-2019 20:30:17 2 C 41 %
3292 24-11-2019 20:40:17 2 C 41 %
3293 24-11-2019 20:50:17 2 C 42 %
3294 24-11-2019 21:00:17 1.8 C 42 %
3295 24-11-2019 21:10:17 2.2 C 42 %
3296 24-11-2019 21:20:17 2 C 42 %
3297 24-11-2019 21:30:17 2 C 42 %
3298 24-11-2019 21:40:17 1.8 C 43 %
3299 24-11-2019 21:50:17 1.8 C 43 %
3300 24-11-2019 22:00:17 1.7 C 42 %
Sensor: Nr:Datum:Temp:Feuchte:
Aussen-T/F 3301 24-11-2019 22:10:17 1.3 C 42 %
3302 24-11-2019 22:20:17 1.2 C 42 %
3303 24-11-2019 22:30:17 1.2 C 42 %
3304 24-11-2019 22:40:17 1 C 42 %
3305 24-11-2019 22:50:17 1 C 42 %
3306 24-11-2019 23:00:17 1.2 C 42 %
3307 24-11-2019 23:10:17 1 C 42 %
3308 24-11-2019 23:20:17 1 C 42 %
3309 24-11-2019 23:30:17 0.8 C 43 %
3310 24-11-2019 23:40:17 0.8 C 43 %
3311 24-11-2019 23:50:17 0.9 C 43 %
3312 25-11-2019 00:00:18 0.8 C 43 %
3313 25-11-2019 00:10:18 0.9 C 43 %
3314 25-11-2019 00:20:17 1.2 C 42 %
3315 25-11-2019 00:30:17 1.4 C 42 %
3316 25-11-2019 00:40:17 1.5 C 42 %
3317 25-11-2019 00:50:18 1.5 C 42 %
3318 25-11-2019 01:00:18 1.5 C 42 %
3319 25-11-2019 01:10:18 1.5 C 42 %
3320 25-11-2019 01:20:17 1.6 C 42 %
3321 25-11-2019 01:30:17 1.5 C 42 %
3322 25-11-2019 01:40:17 1.4 C 42 %
3323 25-11-2019 01:50:17 1.3 C 42 %
3324 25-11-2019 02:00:17 1.3 C 42 %
3325 25-11-2019 02:10:17 1.3 C 42 %
Sensor: Nr:Datum:Temp:Feuchte:
Aussen-T/F 3326 25-11-2019 02:20:17 1.2 C 42 %
3327 25-11-2019 02:30:17 1.3 C 42 %
3328 25-11-2019 02:40:17 1.4 C 42 %
3329 25-11-2019 02:50:17 1.5 C 42 %
3330 25-11-2019 03:00:17 1.6 C 42 %
3331 25-11-2019 03:10:17 1.5 C 42 %
3332 25-11-2019 03:20:17 1.5 C 42 %
3333 25-11-2019 03:30:17 1.5 C 42 %
3334 25-11-2019 03:40:17 1.6 C 42 %
3335 25-11-2019 03:50:17 1.7 C 42 %
3336 25-11-2019 04:00:17 1.8 C 42 %
3337 25-11-2019 04:10:17 1.8 C 42 %
3338 25-11-2019 04:20:17 1.9 C 42 %
3339 25-11-2019 04:30:17 2 C 41 %
3340 25-11-2019 04:40:17 2.1 C 41 %
3341 25-11-2019 04:50:17 2.1 C 41 %
3342 25-11-2019 05:00:17 2.2 C 41 %
3343 25-11-2019 05:10:17 2.1 C 41 %
3344 25-11-2019 05:20:17 2.2 C 41 %
3345 25-11-2019 05:30:17 2.4 C 41 %
3346 25-11-2019 05:40:17 2.4 C 41 %
3347 25-11-2019 05:50:17 2.5 C 41 %
3348 25-11-2019 06:00:17 2.5 C 41 %
3349 25-11-2019 06:10:17 2.5 C 41 %
3350 25-11-2019 06:20:17 2.5 C 41 %
Sensor: Nr:Datum:Temp:Feuchte:
Aussen-T/F 3351 25-11-2019 06:30:17 2.6 C 41 %
3352 25-11-2019 06:40:17 2.6 C 41 %
3353 25-11-2019 06:50:17 2.8 C 41 %
3354 25-11-2019 07:00:17 2.8 C 41 %
3355 25-11-2019 07:10:17 2.8 C 41 %
3356 25-11-2019 07:20:17 2.8 C 41 %
3357 25-11-2019 07:30:17 2.8 C 41 %
3358 25-11-2019 07:40:17 2.8 C 41 %
3359 25-11-2019 07:50:17 2.8 C 41 %
3360 25-11-2019 08:00:17 2.9 C 41 %
3361 25-11-2019 08:10:17 3 C 41 %
3362 25-11-2019 08:20:17 3.1 C 41 %
3363 25-11-2019 08:30:18 3.2 C 41 %
3364 25-11-2019 08:40:18 3.3 C 42 %
3365 25-11-2019 08:50:17 3.4 C 42 %
3366 25-11-2019 09:00:17 3.6 C 43 %
3367 25-11-2019 09:10:17 3.6 C 43 %
3368 25-11-2019 09:20:17 3.7 C 43 %
3369 25-11-2019 09:30:17 3.6 C 43 %
3370 25-11-2019 09:40:17 3.8 C 43 %
3371 25-11-2019 09:50:17 3.8 C 42 %
3372 25-11-2019 10:00:17 4.1 C 42 %
3373 25-11-2019 10:10:17 4.5 C 43 %
3374 25-11-2019 10:20:17 4.5 C 43 %
3375 25-11-2019 10:30:17 5.1 C 40 %
Sensor: Nr:Datum:Temp:Feuchte:
Aussen-T/F 3376 25-11-2019 10:40:17 5.1 C 38 %
3377 25-11-2019 10:50:17 5.1 C 37 %
3378 25-11-2019 11:00:17 5.1 C 37 %
3379 25-11-2019 11:10:17 5.2 C 37 %
3380 25-11-2019 11:20:17 5.3 C 37 %
3381 25-11-2019 11:30:17 5.4 C 37 %
3382 25-11-2019 11:40:17 5.8 C 37 %
3383 25-11-2019 11:50:17 6.3 C 36 %
3384 25-11-2019 12:00:17 6.1 C 33 %
3385 25-11-2019 12:10:17 6.4 C 33 %
3386 25-11-2019 12:20:17 6.3 C 33 %
3387 25-11-2019 12:30:17 6.3 C 32 %
3388 25-11-2019 12:40:17 6.6 C 32 %
3389 25-11-2019 12:50:17 6.6 C 32 %
3390 25-11-2019 13:00:17 6.7 C 31 %
3391 25-11-2019 13:10:17 6.8 C 33 %
3392 25-11-2019 13:20:17 7 C 32 %
3393 25-11-2019 13:30:17 7 C 32 %
3394 25-11-2019 13:40:17 7 C 33 %
3395 25-11-2019 13:50:17 6.9 C 32 %
3396 25-11-2019 14:00:17 6.9 C 33 %
3397 25-11-2019 14:10:17 6.8 C 31 %
3398 25-11-2019 14:20:17 6.8 C 35 %
3399 25-11-2019 14:30:17 6.8 C 36 %
3400 25-11-2019 14:40:17 6.9 C 36 %
Sensor: Nr:Datum:Temp:Feuchte:
Aussen-T/F 3401 25-11-2019 14:50:17 6.8 C 35 %
3402 25-11-2019 15:00:17 6.7 C 35 %
3403 25-11-2019 15:10:17 6.7 C 35 %
3404 25-11-2019 15:20:17 6.7 C 34 %
3405 25-11-2019 15:30:17 6.7 C 35 %
3406 25-11-2019 15:40:17 6.6 C 33 %
3407 25-11-2019 15:50:17 6.5 C 34 %
3408 25-11-2019 16:00:17 6.5 C 35 %
3409 25-11-2019 16:10:17 6.4 C 36 %
3410 25-11-2019 16:20:17 6.3 C 36 %
3411 25-11-2019 16:30:17 6.2 C 37 %
3412 25-11-2019 16:40:17 6.1 C 38 %
3413 25-11-2019 16:50:17 6.1 C 38 %
3414 25-11-2019 17:00:17 6 C 38 %
3415 25-11-2019 17:10:17 6 C 38 %
3416 25-11-2019 17:20:17 5.9 C 38 %
3417 25-11-2019 17:30:17 5.9 C 39 %
3418 25-11-2019 17:40:17 5.8 C 39 %
3419 25-11-2019 17:50:17 5.9 C 39 %
3420 25-11-2019 18:00:18 5.9 C 39 %
3421 25-11-2019 18:10:18 5.9 C 40 %
3422 25-11-2019 18:20:17 5.9 C 39 %
3423 25-11-2019 18:30:17 5.9 C 40 %
3424 25-11-2019 18:40:17 5.9 C 40 %
3425 25-11-2019 18:50:17 5.8 C 40 %
Sensor: Nr:Datum:Temp:Feuchte:
Aussen-T/F 3426 25-11-2019 19:00:17 5.8 C 39 %
3427 25-11-2019 19:10:17 5.4 C 38 %
3428 25-11-2019 19:20:17 5 C 38 %
3429 25-11-2019 19:30:17 5.1 C 40 %
3430 25-11-2019 19:40:17 5 C 40 %
3431 25-11-2019 19:50:17 5.2 C 40 %
3432 25-11-2019 20:00:17 5.1 C 41 %
3433 25-11-2019 20:10:17 5.3 C 41 %
3434 25-11-2019 20:20:17 5.4 C 41 %
3435 25-11-2019 20:30:17 5.4 C 41 %
3436 25-11-2019 20:40:17 5.2 C 40 %
3437 25-11-2019 20:50:17 5.1 C 40 %
3438 25-11-2019 21:00:17 5.3 C 40 %
3439 25-11-2019 21:10:17 5.1 C 39 %
3440 25-11-2019 21:20:17 5.1 C 39 %
3441 25-11-2019 21:30:17 5.2 C 40 %
3442 25-11-2019 21:40:17 5 C 40 %
3443 25-11-2019 21:50:17 4.7 C 40 %
3444 25-11-2019 22:00:17 4.7 C 40 %
3445 25-11-2019 22:10:17 4.3 C 40 %
3446 25-11-2019 22:20:17 4.1 C 40 %
3447 25-11-2019 22:30:17 3.9 C 41 %
3448 25-11-2019 22:40:17 4.1 C 41 %
3449 25-11-2019 22:50:17 3.8 C 42 %
3450 25-11-2019 23:00:17 3.5 C 42 %
Sensor: Nr:Datum:Temp:Feuchte:
Aussen-T/F 3451 25-11-2019 23:10:17 3.3 C 42 %
3452 25-11-2019 23:20:17 3.1 C 42 %
3453 25-11-2019 23:30:17 2.7 C 42 %
3454 25-11-2019 23:40:17 3 C 42 %
3455 25-11-2019 23:50:17 2.8 C 43 %
3456 26-11-2019 00:00:17 2.3 C 42 %
3457 26-11-2019 00:10:17 2.3 C 42 %
3458 26-11-2019 00:20:17 2.5 C 42 %
3459 26-11-2019 00:30:17 2.4 C 42 %
3460 26-11-2019 00:40:17 2.5 C 43 %
3461 26-11-2019 00:50:17 3.1 C 42 %
3462 26-11-2019 01:00:17 3.3 C 42 %
3463 26-11-2019 01:10:17 3.4 C 42 %
3464 26-11-2019 01:20:17 3.4 C 42 %
3465 26-11-2019 01:30:17 3.4 C 42 %
3466 26-11-2019 01:40:17 3.5 C 42 %
3467 26-11-2019 01:50:17 3.6 C 42 %
3468 26-11-2019 02:00:17 3.8 C 42 %
3469 26-11-2019 02:10:17 3.8 C 42 %
3470 26-11-2019 02:20:17 3.8 C 41 %
3471 26-11-2019 02:30:17 3.8 C 41 %
3472 26-11-2019 02:40:17 3.9 C 41 %
3473 26-11-2019 02:50:17 4.3 C 41 %
3474 26-11-2019 03:00:17 4.5 C 41 %
3475 26-11-2019 03:10:17 4.5 C 41 %
Sensor: Nr:Datum:Temp:Feuchte:
Aussen-T/F 3476 26-11-2019 03:20:17 4.5 C 41 %
3477 26-11-2019 03:30:17 4.1 C 40 %
3478 26-11-2019 03:40:17 4.4 C 40 %
3479 26-11-2019 03:50:17 4.6 C 41 %
3480 26-11-2019 04:00:17 4.8 C 41 %
3481 26-11-2019 04:10:17 5.1 C 40 %
3482 26-11-2019 04:20:17 5.2 C 40 %
3483 26-11-2019 04:30:18 5.2 C 40 %
3484 26-11-2019 04:40:18 5.4 C 40 %
3485 26-11-2019 04:50:17 5.6 C 40 %
3486 26-11-2019 05:00:18 5.7 C 40 %
3487 26-11-2019 05:10:18 5.7 C 40 %
3488 26-11-2019 05:20:17 5.8 C 40 %
3489 26-11-2019 05:30:17 5.8 C 40 %
3490 26-11-2019 05:40:17 5.8 C 40 %
3491 26-11-2019 05:50:17 5.9 C 40 %
3492 26-11-2019 06:00:17 5.9 C 40 %
3493 26-11-2019 06:10:17 5.9 C 40 %
3494 26-11-2019 06:20:17 6 C 39 %
3495 26-11-2019 06:30:17 6.2 C 40 %
3496 26-11-2019 06:40:17 6.2 C 39 %
3497 26-11-2019 06:50:17 6.2 C 39 %
3498 26-11-2019 07:00:17 6.5 C 40 %
3499 26-11-2019 07:10:17 6.5 C 40 %
3500 26-11-2019 07:20:17 6.6 C 39 %
Sensor: Nr:Datum:Temp:Feuchte:
Aussen-T/F 3501 26-11-2019 07:30:17 6.6 C 39 %
3502 26-11-2019 07:40:17 6.6 C 39 %
3503 26-11-2019 07:50:17 6.7 C 39 %
3504 26-11-2019 08:00:17 6.8 C 39 %
3505 26-11-2019 08:10:17 6.9 C 39 %
3506 26-11-2019 08:20:17 6.8 C 38 %
3507 26-11-2019 08:30:17 6.8 C 38 %
3508 26-11-2019 08:40:17 6.7 C 38 %
3509 26-11-2019 08:50:17 6.8 C 38 %
3510 26-11-2019 09:00:17 7 C 37 %
3511 26-11-2019 09:10:17 7.4 C 38 %
3512 26-11-2019 09:20:17 7.6 C 37 %
3513 26-11-2019 09:30:17 7.9 C 36 %
3514 26-11-2019 09:40:17 8.3 C 33 %
3515 26-11-2019 09:50:17 8.5 C 31 %
3516 26-11-2019 10:00:17 8.8 C 32 %
3517 26-11-2019 10:10:17 9.1 C 32 %
3518 26-11-2019 10:20:17 9.4 C 32 %
3519 26-11-2019 10:30:17 9.6 C 32 %
3520 26-11-2019 10:40:17 9.7 C 31 %
3521 26-11-2019 10:50:17 9.9 C 31 %
3522 26-11-2019 11:00:17 10.3 C 29 %
3523 26-11-2019 11:10:17 10.5 C 29 %
3524 26-11-2019 11:20:17 10.6 C 26 %
3525 26-11-2019 11:30:17 10.7 C 26 %
Sensor: Nr:Datum:Temp:Feuchte:
Aussen-T/F 3526 26-11-2019 11:40:17 10.6 C 26 %
3527 26-11-2019 11:50:17 10.5 C 26 %
3528 26-11-2019 12:00:17 10.6 C 27 %
3529 26-11-2019 12:10:17 10.6 C 28 %
3530 26-11-2019 12:20:17 10.4 C 26 %
3531 26-11-2019 12:30:17 10.4 C 27 %
3532 26-11-2019 12:40:17 10.8 C 27 %
3533 26-11-2019 12:50:17 10.7 C 26 %
3534 26-11-2019 13:00:17 10.8 C 27 %
3535 26-11-2019 13:10:17 10.8 C 27 %
3536 26-11-2019 13:20:17 11 C 26 %
3537 26-11-2019 13:30:17 10.8 C 26 %
3538 26-11-2019 13:40:17 10.6 C 26 %
3539 26-11-2019 13:50:17 10.5 C 27 %
3540 26-11-2019 14:00:17 10.2 C 30 %
3541 26-11-2019 14:10:17 10.2 C 30 %
3542 26-11-2019 14:20:17 10.5 C 30 %
3543 26-11-2019 14:30:17 10.2 C 28 %
3544 26-11-2019 14:40:17 10.6 C 28 %
3545 26-11-2019 14:50:17 10.6 C 28 %
3546 26-11-2019 15:00:17 10.7 C 27 %
3547 26-11-2019 15:10:17 10.9 C 26 %
3548 26-11-2019 15:20:17 11.1 C 26 %
3549 26-11-2019 15:30:17 11.1 C 26 %
3550 26-11-2019 15:40:17 10.6 C 27 %
Sensor: Nr:Datum:Temp:Feuchte:
Aussen-T/F 3551 26-11-2019 15:50:17 10.5 C 28 %
3552 26-11-2019 16:00:17 10.1 C 30 %
3553 26-11-2019 16:10:17 10 C 30 %
3554 26-11-2019 16:20:17 9.9 C 31 %
3555 26-11-2019 16:30:17 10 C 30 %
3556 26-11-2019 16:40:17 10 C 29 %
3557 26-11-2019 16:50:17 9.7 C 30 %
3558 26-11-2019 17:00:17 9.6 C 30 %
3559 26-11-2019 17:10:17 9.4 C 31 %
3560 26-11-2019 17:20:17 9.3 C 31 %
3561 26-11-2019 17:30:17 9.2 C 31 %
3562 26-11-2019 17:40:17 9.1 C 31 %
3563 26-11-2019 17:50:17 8.9 C 32 %
3564 26-11-2019 18:00:17 8.8 C 34 %
3565 26-11-2019 18:10:17 8.9 C 36 %
3566 26-11-2019 18:20:17 8.9 C 37 %
3567 26-11-2019 18:30:17 9 C 35 %
3568 26-11-2019 18:40:17 8.9 C 35 %
3569 26-11-2019 18:50:17 9.1 C 34 %
3570 26-11-2019 19:00:17 9.7 C 31 %
3571 26-11-2019 19:10:17 9.5 C 31 %
3572 26-11-2019 19:20:17 9.6 C 30 %
3573 26-11-2019 19:30:17 9.6 C 30 %
3574 26-11-2019 19:40:17 9.7 C 30 %
3575 26-11-2019 19:50:17 9.5 C 30 %
Sensor: Nr:Datum:Temp:Feuchte:
Aussen-T/F 3576 26-11-2019 20:00:17 9.5 C 30 %
3577 26-11-2019 20:10:17 9.2 C 31 %
3578 26-11-2019 20:20:17 8.9 C 32 %
3579 26-11-2019 20:30:17 8.4 C 35 %
3580 26-11-2019 20:40:17 8.2 C 35 %
3581 26-11-2019 20:50:17 8 C 37 %
3582 26-11-2019 21:00:17 7.9 C 38 %
3583 26-11-2019 21:10:17 8.3 C 39 %
3584 26-11-2019 21:20:17 8.5 C 37 %
3585 26-11-2019 21:30:17 8.7 C 36 %
3586 26-11-2019 21:40:17 8.8 C 35 %
3587 26-11-2019 21:50:17 8.8 C 35 %
3588 26-11-2019 22:00:17 8.9 C 35 %
3589 26-11-2019 22:10:17 8.8 C 34 %
3590 26-11-2019 22:20:17 8.6 C 34 %
3591 26-11-2019 22:30:17 8.4 C 35 %
3592 26-11-2019 22:40:17 8.1 C 35 %
3593 26-11-2019 22:50:17 7.8 C 36 %
3594 26-11-2019 23:00:17 7.9 C 39 %
3595 26-11-2019 23:10:17 7.9 C 39 %
3596 26-11-2019 23:20:17 8 C 38 %
3597 26-11-2019 23:30:17 7.8 C 38 %
3598 26-11-2019 23:40:17 7.7 C 38 %
3599 26-11-2019 23:50:17 7.8 C 39 %
3600 27-11-2019 00:00:17 7.6 C 39 %
Sensor: Nr:Datum:Temp:Feuchte:
Aussen-T/F 3601 27-11-2019 00:10:17 7.5 C 39 %
3602 27-11-2019 00:20:17 7.6 C 40 %
3603 27-11-2019 00:30:17 7.6 C 39 %
3604 27-11-2019 00:40:17 7.9 C 40 %
3605 27-11-2019 00:50:17 7.7 C 39 %
3606 27-11-2019 01:00:17 7.4 C 39 %
3607 27-11-2019 01:10:17 7.6 C 40 %
3608 27-11-2019 01:20:17 7.6 C 40 %
3609 27-11-2019 01:30:17 7.8 C 40 %
3610 27-11-2019 01:40:17 7.8 C 40 %
3611 27-11-2019 01:50:17 8 C 39 %
3612 27-11-2019 02:00:17 8.1 C 39 %
3613 27-11-2019 02:10:17 8.1 C 38 %
3614 27-11-2019 02:20:17 8.1 C 38 %
3615 27-11-2019 02:30:17 8 C 39 %
3616 27-11-2019 02:40:17 7.8 C 40 %
3617 27-11-2019 02:50:17 7.7 C 40 %
3618 27-11-2019 03:00:17 7.8 C 40 %
3619 27-11-2019 03:10:17 7.6 C 41 %
3620 27-11-2019 03:20:17 7.5 C 40 %
3621 27-11-2019 03:30:17 7.2 C 40 %
3622 27-11-2019 03:40:17 7.1 C 40 %
3623 27-11-2019 03:50:17 7 C 40 %
3624 27-11-2019 04:00:17 7.1 C 40 %
3625 27-11-2019 04:10:17 7.3 C 40 %
Sensor: Nr:Datum:Temp:Feuchte:
Aussen-T/F 3626 27-11-2019 04:20:17 7.5 C 40 %
3627 27-11-2019 04:30:17 7.6 C 40 %
3628 27-11-2019 04:40:17 7.6 C 40 %
3629 27-11-2019 04:50:17 7.4 C 39 %
3630 27-11-2019 05:00:17 7.1 C 38 %
3631 27-11-2019 05:10:17 7.4 C 39 %
3632 27-11-2019 05:20:17 7.8 C 37 %
3633 27-11-2019 05:30:17 7.7 C 37 %
3634 27-11-2019 05:40:17 8 C 35 %
3635 27-11-2019 05:50:17 8 C 35 %
3636 27-11-2019 06:00:18 8 C 34 %
3637 27-11-2019 06:10:18 7.8 C 35 %
3638 27-11-2019 06:20:17 7.8 C 36 %
3639 27-11-2019 06:30:17 7.6 C 37 %
3640 27-11-2019 06:40:17 7.7 C 39 %
3641 27-11-2019 06:50:17 7.6 C 39 %
3642 27-11-2019 07:00:17 7.8 C 37 %
3643 27-11-2019 07:10:17 7.8 C 35 %
3644 27-11-2019 07:20:17 7.9 C 35 %
3645 27-11-2019 07:30:17 8.1 C 34 %
3646 27-11-2019 07:40:17 8 C 32 %
3647 27-11-2019 07:50:17 8 C 34 %
3648 27-11-2019 08:00:17 8.2 C 33 %
3649 27-11-2019 08:10:17 8.2 C 33 %
3650 27-11-2019 08:20:17 8.3 C 34 %
Sensor: Nr:Datum:Temp:Feuchte:
Aussen-T/F 3651 27-11-2019 08:30:17 8.4 C 33 %
3652 27-11-2019 08:40:17 8.4 C 33 %
3653 27-11-2019 08:50:17 8.4 C 35 %
3654 27-11-2019 09:00:17 8.6 C 35 %
3655 27-11-2019 09:10:17 8.6 C 36 %
3656 27-11-2019 09:20:17 8.8 C 36 %
3657 27-11-2019 09:30:17 9.1 C 33 %
3658 27-11-2019 09:40:17 9 C 34 %
3659 27-11-2019 09:50:17 9 C 34 %
3660 27-11-2019 10:00:17 9.1 C 35 %
3661 27-11-2019 10:10:17 9.2 C 35 %
3662 27-11-2019 10:20:17 9.3 C 35 %
3663 27-11-2019 10:30:17 9.7 C 31 %
3664 27-11-2019 10:40:17 10 C 29 %
3665 27-11-2019 10:50:17 10.4 C 27 %
3666 27-11-2019 11:00:17 11 C 25 %
3667 27-11-2019 11:10:17 11.3 C 24 %
3668 27-11-2019 11:20:17 11.6 C 22 %
3669 27-11-2019 11:30:17 11.7 C 22 %
3670 27-11-2019 11:40:17 12.1 C 20 %
3671 27-11-2019 11:50:17 12.4 C 20 %
3672 27-11-2019 12:00:17 12.7 C 20 %
3673 27-11-2019 12:10:17 12.7 C 20 %
3674 27-11-2019 12:20:18 12.7 C 20 %
3675 27-11-2019 12:30:17 12.7 C 20 %
Sensor: Nr:Datum:Temp:Feuchte:
Aussen-T/F 3676 27-11-2019 12:40:17 12.8 C 20 %
3677 27-11-2019 12:50:17 12.8 C 20 %
3678 27-11-2019 13:00:17 12.7 C 20 %
3679 27-11-2019 13:10:17 12.8 C 20 %
3680 27-11-2019 13:20:17 12.8 C 20 %
3681 27-11-2019 13:30:17 12.6 C 20 %
3682 27-11-2019 13:40:17 12.7 C 20 %
3683 27-11-2019 13:50:17 12.9 C 20 %
3684 27-11-2019 14:00:17 13.1 C 20 %
3685 27-11-2019 14:10:17 13 C 20 %
3686 27-11-2019 14:20:17 12.9 C 20 %
3687 27-11-2019 14:30:17 12.9 C 20 %
3688 27-11-2019 14:40:17 12.9 C 20 %
3689 27-11-2019 14:50:17 12.9 C 20 %
3690 27-11-2019 15:00:17 12.7 C 20 %
3691 27-11-2019 15:10:17 12.8 C 20 %
3692 27-11-2019 15:20:17 12.8 C 20 %
3693 27-11-2019 15:30:17 12.8 C 20 %
3694 27-11-2019 15:40:17 12.5 C 20 %
3695 27-11-2019 15:50:17 12.2 C 20 %
3696 27-11-2019 16:00:17 11.5 C 20 %
3697 27-11-2019 16:10:17 11.1 C 20 %
3698 27-11-2019 16:20:17 10.8 C 25 %
3699 27-11-2019 16:30:17 10.3 C 26 %
3700 27-11-2019 16:40:17 9.9 C 29 %
Sensor: Nr:Datum:Temp:Feuchte:
Aussen-T/F 3701 27-11-2019 16:50:18 9.7 C 30 %
3702 27-11-2019 17:00:17 9.5 C 31 %
3703 27-11-2019 17:10:17 9.8 C 31 %
3704 27-11-2019 17:20:17 9.8 C 31 %
3705 27-11-2019 17:30:17 9.8 C 31 %
3706 27-11-2019 17:40:17 9.7 C 33 %
3707 27-11-2019 17:50:17 9.6 C 33 %
3708 27-11-2019 18:00:17 9.7 C 32 %
3709 27-11-2019 18:10:17 9.7 C 32 %
3710 27-11-2019 18:20:17 9.9 C 31 %
3711 27-11-2019 18:30:17 9.9 C 31 %
3712 27-11-2019 18:40:17 9.8 C 32 %
3713 27-11-2019 18:50:17 9.7 C 34 %
3714 27-11-2019 19:00:17 9.7 C 36 %
3715 27-11-2019 19:10:17 9.8 C 34 %
3716 27-11-2019 19:20:17 9.7 C 33 %
3717 27-11-2019 19:30:17 10 C 31 %
3718 27-11-2019 19:40:17 10 C 31 %
3719 27-11-2019 19:50:17 10.4 C 28 %
3720 27-11-2019 20:00:17 10.8 C 26 %
3721 27-11-2019 20:10:17 10.9 C 26 %
3722 27-11-2019 20:20:17 11 C 25 %
3723 27-11-2019 20:30:17 10.6 C 26 %
3724 27-11-2019 20:40:17 9.9 C 30 %
3725 27-11-2019 20:50:17 9.7 C 31 %
Sensor: Nr:Datum:Temp:Feuchte:
Aussen-T/F 3726 27-11-2019 21:00:17 9.8 C 33 %
3727 27-11-2019 21:10:17 9.8 C 32 %
3728 27-11-2019 21:20:17 9.6 C 33 %
3729 27-11-2019 21:30:17 9.8 C 32 %
3730 27-11-2019 21:40:17 10.1 C 31 %
3731 27-11-2019 21:50:17 10.2 C 29 %
3732 27-11-2019 22:00:17 10.3 C 28 %
3733 27-11-2019 22:10:17 10.6 C 27 %
3734 27-11-2019 22:20:17 10.9 C 26 %
3735 27-11-2019 22:30:17 10.9 C 26 %
3736 27-11-2019 22:40:17 10.8 C 25 %
3737 27-11-2019 22:50:17 10.7 C 25 %
3738 27-11-2019 23:00:17 11.1 C 24 %
3739 27-11-2019 23:10:17 11.3 C 23 %
3740 27-11-2019 23:20:17 11.1 C 23 %
3741 27-11-2019 23:30:17 11.5 C 21 %
3742 27-11-2019 23:40:18 11.5 C 21 %
3743 27-11-2019 23:50:17 11.2 C 21 %
3744 28-11-2019 00:00:18 11.2 C 21 %
3745 28-11-2019 00:10:18 11.3 C 20 %
3746 28-11-2019 00:20:17 11.2 C 20 %
3747 28-11-2019 00:30:17 11.2 C 20 %
3748 28-11-2019 00:40:17 11.5 C 20 %
3749 28-11-2019 00:50:17 11.3 C 20 %
3750 28-11-2019 01:00:17 11.4 C 20 %
Sensor: Nr:Datum:Temp:Feuchte:
Aussen-T/F 3751 28-11-2019 01:10:17 11.4 C 20 %
3752 28-11-2019 01:20:17 11.4 C 20 %
3753 28-11-2019 01:30:17 11.4 C 20 %
3754 28-11-2019 01:40:17 11.1 C 20 %
3755 28-11-2019 01:50:17 11.1 C 20 %
3756 28-11-2019 02:00:18 10.8 C 20 %
3757 28-11-2019 02:10:18 10.5 C 20 %
3758 28-11-2019 02:20:17 10.7 C 20 %
3759 28-11-2019 02:30:17 11 C 20 %
3760 28-11-2019 02:40:17 10.5 C 21 %
3761 28-11-2019 02:50:17 10.8 C 20 %
3762 28-11-2019 03:00:17 10.9 C 20 %
3763 28-11-2019 03:10:17 10.3 C 20 %
3764 28-11-2019 03:20:18 10.8 C 20 %
3765 28-11-2019 03:30:18 10.6 C 20 %
3766 28-11-2019 03:40:18 10.9 C 20 %
3767 28-11-2019 03:50:18 10.9 C 20 %
3768 28-11-2019 04:00:18 10.7 C 20 %
3769 28-11-2019 04:10:18 10.6 C 20 %
3770 28-11-2019 04:20:17 10.6 C 20 %
3771 28-11-2019 04:30:17 10.6 C 20 %
3772 28-11-2019 04:40:17 10.5 C 20 %
3773 28-11-2019 04:50:17 10.3 C 20 %
3774 28-11-2019 05:00:17 10.5 C 20 %
3775 28-11-2019 05:10:17 10.2 C 20 %
Sensor: Nr:Datum:Temp:Feuchte:
Aussen-T/F 3776 28-11-2019 05:20:17 10.1 C 20 %
3777 28-11-2019 05:30:17 10.4 C 20 %
3778 28-11-2019 05:40:17 10.1 C 20 %
3779 28-11-2019 05:50:17 10.2 C 20 %
3780 28-11-2019 06:00:17 9.9 C 20 %
3781 28-11-2019 06:10:17 10.1 C 20 %
3782 28-11-2019 06:20:17 10.2 C 20 %
3783 28-11-2019 06:30:17 10.5 C 20 %
3784 28-11-2019 06:40:17 10.6 C 20 %
3785 28-11-2019 06:50:17 10.5 C 20 %
3786 28-11-2019 07:00:17 10.4 C 20 %
3787 28-11-2019 07:10:17 10 C 20 %
3788 28-11-2019 07:20:17 10 C 20 %
3789 28-11-2019 07:30:17 10 C 20 %
3790 28-11-2019 07:40:17 10.2 C 20 %
3791 28-11-2019 07:50:17 10.3 C 20 %
3792 28-11-2019 08:00:17 10.4 C 20 %
3793 28-11-2019 08:10:17 10.2 C 20 %
3794 28-11-2019 08:20:17 10.2 C 20 %
3795 28-11-2019 08:30:17 10.1 C 20 %
3796 28-11-2019 08:40:17 10.1 C 20 %
3797 28-11-2019 08:50:17 10.1 C 20 %
3798 28-11-2019 09:00:17 10.3 C 20 %
3799 28-11-2019 09:10:17 10.7 C 20 %
3800 28-11-2019 09:20:17 11 C 20 %
Sensor: Nr:Datum:Temp:Feuchte:
Aussen-T/F 3801 28-11-2019 09:30:17 11 C 20 %
3802 28-11-2019 09:40:17 11.1 C 20 %
3803 28-11-2019 09:50:17 11.1 C 20 %
3804 28-11-2019 10:00:17 11.3 C 20 %
3805 28-11-2019 10:10:17 11.3 C 20 %
3806 28-11-2019 10:20:17 11.5 C 20 %
3807 28-11-2019 10:30:17 11.6 C 20 %
3808 28-11-2019 10:40:17 11.7 C 20 %
3809 28-11-2019 10:50:17 11.7 C 20 %
3810 28-11-2019 11:00:17 11.7 C 20 %
3811 28-11-2019 11:10:17 11.8 C 20 %
3812 28-11-2019 11:20:17 11.9 C 20 %
3813 28-11-2019 11:30:17 11.9 C 20 %
3814 28-11-2019 11:40:17 12.2 C 20 %
3815 28-11-2019 11:50:17 11.9 C 20 %
3816 28-11-2019 12:00:17 11.6 C 20 %
3817 28-11-2019 12:10:17 11.5 C 20 %
3818 28-11-2019 12:20:17 11.1 C 20 %
3819 28-11-2019 12:30:17 11.1 C 20 %
3820 28-11-2019 12:40:17 10.9 C 20 %
3821 28-11-2019 12:50:17 11.2 C 20 %
3822 28-11-2019 13:00:17 11.2 C 20 %
3823 28-11-2019 13:10:17 11.7 C 20 %
3824 28-11-2019 13:20:17 11.8 C 20 %
3825 28-11-2019 13:30:17 12.1 C 20 %
Sensor: Nr:Datum:Temp:Feuchte:
Aussen-T/F 3826 28-11-2019 13:40:17 11.4 C 20 %
3827 28-11-2019 13:50:17 11.4 C 20 %
3828 28-11-2019 14:00:17 11.3 C 20 %
3829 28-11-2019 14:10:17 11.4 C 20 %
3830 28-11-2019 14:20:17 11.2 C 20 %
3831 28-11-2019 14:30:17 11.1 C 20 %
3832 28-11-2019 14:40:17 11.2 C 20 %
3833 28-11-2019 14:50:17 11.2 C 20 %
3834 28-11-2019 15:00:17 11.2 C 20 %
3835 28-11-2019 15:10:17 11.1 C 20 %
3836 28-11-2019 15:20:17 11 C 20 %
3837 28-11-2019 15:30:17 10.2 C 23 %
3838 28-11-2019 15:40:17 10.2 C 21 %
3839 28-11-2019 15:50:17 10.3 C 21 %
3840 28-11-2019 16:00:17 10.5 C 21 %
3841 28-11-2019 16:10:17 10.3 C 22 %
3842 28-11-2019 16:20:17 10.5 C 21 %
3843 28-11-2019 16:30:17 10.6 C 21 %
3844 28-11-2019 16:40:17 10.4 C 21 %
3845 28-11-2019 16:50:17 10.4 C 21 %
3846 28-11-2019 17:00:17 10.3 C 22 %
3847 28-11-2019 17:10:17 9.7 C 27 %
3848 28-11-2019 17:20:17 9.5 C 29 %
3849 28-11-2019 17:30:17 9.4 C 30 %
3850 28-11-2019 17:40:17 9.3 C 30 %
Sensor: Nr:Datum:Temp:Feuchte:
Aussen-T/F 3851 28-11-2019 17:50:17 9.6 C 28 %
3852 28-11-2019 18:00:17 9.8 C 27 %
3853 28-11-2019 18:10:17 10.2 C 25 %
3854 28-11-2019 18:20:17 10.3 C 25 %
3855 28-11-2019 18:30:17 10.2 C 25 %
3856 28-11-2019 18:40:17 10.2 C 25 %
3857 28-11-2019 18:50:17 10.2 C 25 %
3858 28-11-2019 19:00:17 10.1 C 25 %
3859 28-11-2019 19:10:17 9.8 C 26 %
3860 28-11-2019 19:20:17 9.8 C 26 %
3861 28-11-2019 19:30:17 9.8 C 26 %
3862 28-11-2019 19:40:17 9.9 C 26 %
3863 28-11-2019 19:50:17 10.1 C 25 %
3864 28-11-2019 20:00:17 10.1 C 26 %
3865 28-11-2019 20:10:17 9.8 C 26 %
3866 28-11-2019 20:20:17 9.8 C 26 %
3867 28-11-2019 20:30:17 9.8 C 27 %
3868 28-11-2019 20:40:17 10.1 C 26 %
3869 28-11-2019 20:50:17 10 C 25 %
3870 28-11-2019 21:00:17 10.1 C 25 %
3871 28-11-2019 21:10:17 9.7 C 27 %
3872 28-11-2019 21:20:17 9.9 C 27 %
3873 28-11-2019 21:30:17 10.1 C 26 %
3874 28-11-2019 21:40:17 10 C 26 %
3875 28-11-2019 21:50:17 10 C 25 %
Sensor: Nr:Datum:Temp:Feuchte:
Aussen-T/F 3876 28-11-2019 22:00:17 9.6 C 27 %
3877 28-11-2019 22:10:17 9.6 C 28 %
3878 28-11-2019 22:20:17 9.6 C 28 %
3879 28-11-2019 22:30:17 9.5 C 28 %
3880 28-11-2019 22:40:17 9.6 C 28 %
3881 28-11-2019 22:50:17 9.5 C 28 %
3882 28-11-2019 23:00:17 9.5 C 28 %
3883 28-11-2019 23:10:17 9.5 C 29 %
3884 28-11-2019 23:20:17 9.6 C 28 %
3885 28-11-2019 23:30:17 9.2 C 30 %
3886 28-11-2019 23:40:17 9.1 C 32 %
3887 28-11-2019 23:50:17 8.9 C 35 %
3888 29-11-2019 00:00:17 8.9 C 34 %
3889 29-11-2019 00:10:17 8.7 C 36 %
3890 29-11-2019 00:20:17 8.8 C 35 %
3891 29-11-2019 00:30:17 8.7 C 36 %
3892 29-11-2019 00:40:17 8.7 C 35 %
3893 29-11-2019 00:50:17 8.6 C 35 %
3894 29-11-2019 01:00:17 8.6 C 36 %
3895 29-11-2019 01:10:17 8.5 C 37 %
3896 29-11-2019 01:20:17 8.3 C 37 %
3897 29-11-2019 01:30:17 8.3 C 36 %
3898 29-11-2019 01:40:17 8.3 C 36 %
3899 29-11-2019 01:50:17 8.1 C 39 %
3900 29-11-2019 02:00:17 8.1 C 40 %
Sensor: Nr:Datum:Temp:Feuchte:
Aussen-T/F 3901 29-11-2019 02:10:17 8.1 C 40 %
3902 29-11-2019 02:20:17 8.1 C 40 %
3903 29-11-2019 02:30:17 8.1 C 40 %
3904 29-11-2019 02:40:17 8.1 C 40 %
3905 29-11-2019 02:50:17 8 C 40 %
3906 29-11-2019 03:00:17 8 C 40 %
3907 29-11-2019 03:10:17 8 C 40 %
3908 29-11-2019 03:20:17 7.9 C 40 %
3909 29-11-2019 03:30:17 7.8 C 40 %
3910 29-11-2019 03:40:17 7.7 C 40 %
3911 29-11-2019 03:50:17 7.6 C 40 %
3912 29-11-2019 04:00:17 7.6 C 40 %
3913 29-11-2019 04:10:17 7.6 C 40 %
3914 29-11-2019 04:20:17 7.6 C 40 %
3915 29-11-2019 04:30:17 7.5 C 40 %
3916 29-11-2019 04:40:17 7.5 C 40 %
3917 29-11-2019 04:50:17 7.2 C 38 %
3918 29-11-2019 05:00:17 6.8 C 34 %
3919 29-11-2019 05:10:17 6.4 C 33 %
3920 29-11-2019 05:20:17 6.2 C 34 %
3921 29-11-2019 05:30:17 6.2 C 35 %
3922 29-11-2019 05:40:18 6.1 C 36 %
3923 29-11-2019 05:50:17 6 C 36 %
3924 29-11-2019 06:00:17 6 C 38 %
3925 29-11-2019 06:10:17 5.9 C 38 %
Sensor: Nr:Datum:Temp:Feuchte:
Aussen-T/F 3926 29-11-2019 06:20:17 5.9 C 38 %
3927 29-11-2019 06:30:17 5.9 C 40 %
3928 29-11-2019 06:40:17 5.9 C 40 %
3929 29-11-2019 06:50:17 5.8 C 36 %
3930 29-11-2019 07:00:17 5.7 C 35 %
3931 29-11-2019 07:10:17 5.6 C 37 %
3932 29-11-2019 07:20:17 5.4 C 37 %
3933 29-11-2019 07:30:17 5.4 C 40 %
3934 29-11-2019 07:40:17 5.4 C 37 %
3935 29-11-2019 07:50:17 5.4 C 39 %
3936 29-11-2019 08:00:17 5.3 C 40 %
3937 29-11-2019 08:10:17 5.2 C 40 %
3938 29-11-2019 08:20:17 5.1 C 40 %
3939 29-11-2019 08:30:17 5 C 40 %
3940 29-11-2019 08:40:17 5 C 40 %
3941 29-11-2019 08:50:17 5 C 39 %
3942 29-11-2019 09:00:17 5 C 39 %
3943 29-11-2019 09:10:17 5 C 39 %
3944 29-11-2019 09:20:17 4.8 C 37 %
3945 29-11-2019 09:30:17 4.6 C 37 %
3946 29-11-2019 09:40:17 4.6 C 37 %
3947 29-11-2019 09:50:17 4.7 C 36 %
3948 29-11-2019 10:00:17 4.8 C 32 %
3949 29-11-2019 10:10:17 5.1 C 31 %
3950 29-11-2019 10:20:17 5.8 C 27 %
Sensor: Nr:Datum:Temp:Feuchte:
Aussen-T/F 3951 29-11-2019 10:30:17 5.9 C 29 %
3952 29-11-2019 10:40:17 5.7 C 27 %
3953 29-11-2019 10:50:17 5.4 C 28 %
3954 29-11-2019 11:00:17 5.6 C 30 %
3955 29-11-2019 11:10:17 5.9 C 26 %
3956 29-11-2019 11:20:17 6 C 27 %
3957 29-11-2019 11:30:17 6.4 C 26 %
3958 29-11-2019 11:40:17 7 C 23 %
3959 29-11-2019 11:50:17 7.3 C 21 %
3960 29-11-2019 12:00:17 7.2 C 20 %
3961 29-11-2019 12:10:17 7.2 C 20 %
3962 29-11-2019 12:20:17 7.1 C 20 %
3963 29-11-2019 12:30:17 7.6 C 20 %
3964 29-11-2019 12:40:17 7.2 C 20 %
3965 29-11-2019 12:50:17 6.9 C 21 %
3966 29-11-2019 13:00:17 6.6 C 21 %
3967 29-11-2019 13:10:17 6.2 C 23 %
3968 29-11-2019 13:20:17 5.9 C 25 %
3969 29-11-2019 13:30:17 6.1 C 25 %
3970 29-11-2019 13:40:17 6.1 C 25 %
3971 29-11-2019 13:50:17 6.5 C 20 %
3972 29-11-2019 14:00:17 6.5 C 20 %
3973 29-11-2019 14:10:17 7 C 20 %
3974 29-11-2019 14:20:17 7.3 C 20 %
3975 29-11-2019 14:30:17 7.3 C 20 %
Sensor: Nr:Datum:Temp:Feuchte:
Aussen-T/F 3976 29-11-2019 14:40:17 6.9 C 20 %
3977 29-11-2019 14:50:17 6.5 C 20 %
3978 29-11-2019 15:00:17 7.3 C 20 %
3979 29-11-2019 15:10:17 7.3 C 20 %
3980 29-11-2019 15:20:17 7.2 C 20 %
3981 29-11-2019 15:30:17 7.2 C 20 %
3982 29-11-2019 15:40:17 7.2 C 20 %
3983 29-11-2019 15:50:17 6.7 C 20 %
3984 29-11-2019 16:00:17 6.4 C 20 %
3985 29-11-2019 16:10:17 5.6 C 20 %
3986 29-11-2019 16:20:17 6.2 C 20 %
3987 29-11-2019 16:30:17 6 C 20 %
3988 29-11-2019 16:40:18 5.3 C 20 %
3989 29-11-2019 16:50:17 5.3 C 20 %
3990 29-11-2019 17:00:18 4.5 C 23 %
3991 29-11-2019 17:10:18 4 C 26 %
3992 29-11-2019 17:20:17 4 C 26 %
3993 29-11-2019 17:30:18 3.9 C 27 %
3994 29-11-2019 17:40:18 4 C 26 %
3995 29-11-2019 17:50:17 3.8 C 27 %
3996 29-11-2019 18:00:17 4.2 C 26 %
3997 29-11-2019 18:10:18 4.6 C 25 %
3998 29-11-2019 18:20:17 5 C 21 %
3999 29-11-2019 18:30:17 5 C 21 %
4000 29-11-2019 18:40:17 4.8 C 23 %
Sensor: Nr:Datum:Temp:Feuchte:
Aussen-T/F 4001 29-11-2019 18:50:17 4.7 C 26 %
4002 29-11-2019 19:00:17 4.8 C 21 %
4003 29-11-2019 19:10:17 4.8 C 21 %
4004 29-11-2019 19:20:17 4.8 C 21 %
4005 29-11-2019 19:30:17 4.4 C 25 %
4006 29-11-2019 19:40:17 4.6 C 21 %
4007 29-11-2019 19:50:17 4.4 C 25 %
4008 29-11-2019 20:00:17 4 C 26 %
4009 29-11-2019 20:10:17 4 C 26 %
4010 29-11-2019 20:20:17 4.3 C 25 %
4011 29-11-2019 20:30:17 4.7 C 23 %
4012 29-11-2019 20:40:17 4 C 25 %
4013 29-11-2019 20:50:17 3.9 C 26 %
4014 29-11-2019 21:00:17 3.8 C 28 %
4015 29-11-2019 21:10:17 3.9 C 27 %
4016 29-11-2019 21:20:17 3.8 C 27 %
4017 29-11-2019 21:30:17 3.8 C 28 %
4018 29-11-2019 21:40:17 3.9 C 28 %
4019 29-11-2019 21:50:17 3.2 C 30 %
4020 29-11-2019 22:00:17 3.3 C 29 %
4021 29-11-2019 22:10:17 2.6 C 32 %
4022 29-11-2019 22:20:17 2.1 C 35 %
4023 29-11-2019 22:30:17 1.9 C 37 %
4024 29-11-2019 22:40:17 1.7 C 40 %
4025 29-11-2019 22:50:17 1.8 C 41 %
Sensor: Nr:Datum:Temp:Feuchte:
Aussen-T/F 4026 29-11-2019 23:00:17 1.5 C 38 %
4027 29-11-2019 23:10:17 1.1 C 39 %
4028 29-11-2019 23:20:17 1.3 C 41 %
4029 29-11-2019 23:30:17 1.5 C 42 %
4030 29-11-2019 23:40:17 1.6 C 41 %
4031 29-11-2019 23:50:17 1.7 C 41 %
4032 30-11-2019 00:00:17 1.9 C 40 %
4033 30-11-2019 00:10:17 1.8 C 40 %
4034 30-11-2019 00:20:17 1.8 C 40 %
4035 30-11-2019 00:30:17 2 C 37 %
4036 30-11-2019 00:40:17 1.7 C 37 %
4037 30-11-2019 00:50:17 1.6 C 40 %
4038 30-11-2019 01:00:17 1.3 C 40 %
4039 30-11-2019 01:10:17 1 C 40 %
4040 30-11-2019 01:20:17 0.7 C 41 %
4041 30-11-2019 01:30:17 0.5 C 42 %
4042 30-11-2019 01:40:17 0.7 C 44 %
4043 30-11-2019 01:50:17 0.5 C 43 %
4044 30-11-2019 02:00:17 0.4 C 44 %
4045 30-11-2019 02:10:17 0.9 C 45 %
4046 30-11-2019 02:20:17 1.1 C 44 %
4047 30-11-2019 02:30:17 1.2 C 44 %
4048 30-11-2019 02:40:17 0.8 C 43 %
4049 30-11-2019 02:50:17 0.8 C 43 %
4050 30-11-2019 03:00:17 0.9 C 43 %
Sensor: Nr:Datum:Temp:Feuchte:
Aussen-T/F 4051 30-11-2019 03:10:17 0.7 C 43 %
4052 30-11-2019 03:20:17 0.3 C 41 %
4053 30-11-2019 03:30:17 0.5 C 44 %
4054 30-11-2019 03:40:17 0.2 C 43 %
4055 30-11-2019 03:50:17 0.6 C 44 %
4056 30-11-2019 04:00:17 1 C 44 %
4057 30-11-2019 04:10:17 1.3 C 43 %
4058 30-11-2019 04:20:17 1.3 C 41 %
4059 30-11-2019 04:30:17 1.4 C 40 %
4060 30-11-2019 04:40:17 1.3 C 40 %
4061 30-11-2019 04:50:17 1 C 38 %
4062 30-11-2019 05:00:17 0.6 C 40 %
4063 30-11-2019 05:10:17 1.1 C 41 %
4064 30-11-2019 05:20:17 0.8 C 40 %
4065 30-11-2019 05:30:17 0.3 C 40 %
4066 30-11-2019 05:40:17 -0.5 C 40 %
4067 30-11-2019 05:50:17 -0.7 C 41 %
4068 30-11-2019 06:00:17 -0.7 C 43 %
4069 30-11-2019 06:10:17 -0.9 C 43 %
4070 30-11-2019 06:20:17 -1 C 43 %
4071 30-11-2019 06:30:17 -1.2 C 43 %
4072 30-11-2019 06:40:17 -1.3 C 43 %
4073 30-11-2019 06:50:17 -1.2 C 44 %
4074 30-11-2019 07:00:17 -1.4 C 44 %
4075 30-11-2019 07:10:17 -1.4 C 43 %
Sensor: Nr:Datum:Temp:Feuchte:
Aussen-T/F 4076 30-11-2019 07:20:17 -1.4 C 43 %
4077 30-11-2019 07:30:17 -1.5 C 43 %
4078 30-11-2019 07:40:17 -1.2 C 44 %
4079 30-11-2019 07:50:17 -1.1 C 44 %
4080 30-11-2019 08:00:17 -1 C 44 %
4081 30-11-2019 08:10:17 -0.7 C 44 %
4082 30-11-2019 08:20:17 -0.6 C 44 %
4083 30-11-2019 08:30:17 -0.7 C 44 %
4084 30-11-2019 08:40:17 -0.6 C 44 %
4085 30-11-2019 08:50:17 -0.7 C 44 %
4086 30-11-2019 09:00:17 -0.7 C 44 %
4087 30-11-2019 09:10:17 -0.6 C 44 %
4088 30-11-2019 09:20:17 -0.7 C 44 %
4089 30-11-2019 09:30:17 -0.7 C 44 %
4090 30-11-2019 09:40:17 -0.6 C 44 %
4091 30-11-2019 09:50:17 -0.3 C 44 %
4092 30-11-2019 10:00:17 -0.3 C 44 %
4093 30-11-2019 10:10:17 0 C 44 %
4094 30-11-2019 10:20:17 0.1 C 43 %
4095 30-11-2019 10:30:17 0.4 C 43 %
4096 30-11-2019 10:40:17 0.5 C 43 %
4097 30-11-2019 10:50:17 0.4 C 43 %
4098 30-11-2019 11:00:18 0.5 C 42 %
4099 30-11-2019 11:10:18 0.6 C 42 %
4100 30-11-2019 11:20:17 0.6 C 42 %
Sensor: Nr:Datum:Temp:Feuchte:
Aussen-T/F 4101 30-11-2019 11:30:17 0.4 C 41 %
4102 30-11-2019 11:40:17 0.6 C 41 %
4103 30-11-2019 11:50:17 0.9 C 41 %
4104 30-11-2019 12:00:17 1.1 C 40 %
4105 30-11-2019 12:10:17 0.9 C 38 %
4106 30-11-2019 12:20:17 1.3 C 39 %
4107 30-11-2019 12:30:17 1.4 C 37 %
4108 30-11-2019 12:40:17 1.4 C 36 %
4109 30-11-2019 12:50:17 2.3 C 36 %
4110 30-11-2019 13:00:17 2.4 C 36 %
4111 30-11-2019 13:10:17 1.8 C 36 %
4112 30-11-2019 13:20:17 2.2 C 36 %
4113 30-11-2019 13:30:17 2.1 C 36 %
4114 30-11-2019 13:40:17 2.3 C 36 %
4115 30-11-2019 13:50:17 2.3 C 36 %
4116 30-11-2019 14:00:17 2 C 36 %
4117 30-11-2019 14:10:17 2.1 C 38 %
4118 30-11-2019 14:20:17 2.2 C 38 %
4119 30-11-2019 14:30:17 2.2 C 38 %
4120 30-11-2019 14:40:17 2.4 C 38 %
4121 30-11-2019 14:50:17 2.2 C 37 %
4122 30-11-2019 15:00:17 1.9 C 39 %
4123 30-11-2019 15:10:17 1.8 C 40 %
4124 30-11-2019 15:20:18 1.9 C 41 %
4125 30-11-2019 15:30:17 1.8 C 41 %
Sensor: Nr:Datum:Temp:Feuchte:
Aussen-T/F 4126 30-11-2019 15:40:17 1.6 C 41 %
4127 30-11-2019 15:50:17 1.7 C 42 %
4128 30-11-2019 16:00:17 1.5 C 42 %
4129 30-11-2019 16:10:17 1.5 C 42 %
4130 30-11-2019 16:20:17 1.4 C 43 %
4131 30-11-2019 16:30:17 1.3 C 43 %
4132 30-11-2019 16:40:17 1.3 C 43 %
4133 30-11-2019 16:50:17 1.1 C 43 %
4134 30-11-2019 17:00:17 0.9 C 44 %
4135 30-11-2019 17:10:17 0.9 C 44 %
4136 30-11-2019 17:20:17 0.6 C 44 %
4137 30-11-2019 17:30:17 0.6 C 44 %
4138 30-11-2019 17:40:17 0.6 C 44 %
4139 30-11-2019 17:50:17 0.5 C 44 %
4140 30-11-2019 18:00:17 0.4 C 44 %
4141 30-11-2019 18:10:17 0.3 C 44 %
4142 30-11-2019 18:20:17 0.3 C 44 %
4143 30-11-2019 18:30:17 0.4 C 44 %
4144 30-11-2019 18:40:17 0.4 C 44 %
4145 30-11-2019 18:50:17 0.4 C 44 %
4146 30-11-2019 19:00:17 0.2 C 44 %
4147 30-11-2019 19:10:17 0 C 44 %
4148 30-11-2019 19:20:17 0 C 44 %
4149 30-11-2019 19:30:17 0 C 44 %
4150 30-11-2019 19:40:17 -0.1 C 44 %
Sensor: Nr:Datum:Temp:Feuchte:
Aussen-T/F 4151 30-11-2019 19:50:17 -0.1 C 44 %
4152 30-11-2019 20:00:17 -0.2 C 44 %
4153 30-11-2019 20:10:18 -0.2 C 44 %
4154 30-11-2019 20:20:18 -0.2 C 44 %
4155 30-11-2019 20:30:17 -0.2 C 44 %
4156 30-11-2019 20:40:17 -0.4 C 44 %
4157 30-11-2019 20:50:17 -0.3 C 44 %
4158 30-11-2019 21:00:17 -0.2 C 44 %
4159 30-11-2019 21:10:17 -0.3 C 44 %
4160 30-11-2019 21:20:17 -0.3 C 44 %
4161 30-11-2019 21:30:17 -0.4 C 44 %
4162 30-11-2019 21:40:17 -0.2 C 44 %
4163 30-11-2019 21:50:17 -0.3 C 44 %
4164 30-11-2019 22:00:17 -0.3 C 44 %
4165 30-11-2019 22:10:17 -0.3 C 44 %
4166 30-11-2019 22:20:17 -0.3 C 44 %
4167 30-11-2019 22:30:17 -0.1 C 44 %
4168 30-11-2019 22:40:17 0 C 44 %
4169 30-11-2019 22:50:17 0 C 44 %
4170 30-11-2019 23:00:17 0 C 44 %
4171 30-11-2019 23:10:17 0 C 44 %
4172 30-11-2019 23:20:17 -0.1 C 44 %
4173 30-11-2019 23:30:17 -0.4 C 43 %
4174 30-11-2019 23:40:17 -0.5 C 43 %
4175 30-11-2019 23:50:17 -0.4 C 43 %
Sensor: Nr:Datum:Temp:Feuchte:
Aussen-T/F 4176 01-12-2019 00:00:17 -0.2 C 43 %
4177 01-12-2019 00:10:17 -0.3 C 43 %
4178 01-12-2019 00:20:17 -0.3 C 43 %
4179 01-12-2019 00:30:17 -0.3 C 43 %
4180 01-12-2019 00:40:17 -0.3 C 43 %
4181 01-12-2019 00:50:18 -0.2 C 43 %
4182 01-12-2019 01:00:17 0 C 44 %
4183 01-12-2019 01:10:17 -0.1 C 43 %
4184 01-12-2019 01:20:17 -0.1 C 43 %
4185 01-12-2019 01:30:17 -0.1 C 43 %
4186 01-12-2019 01:40:17 -0.1 C 43 %
4187 01-12-2019 01:50:17 -0.2 C 43 %
4188 01-12-2019 02:00:17 -0.1 C 43 %
4189 01-12-2019 02:10:17 -0.2 C 43 %
4190 01-12-2019 02:20:17 -0.2 C 43 %
4191 01-12-2019 02:30:17 -0.2 C 43 %
4192 01-12-2019 02:40:17 -0.3 C 43 %
4193 01-12-2019 02:50:17 -0.2 C 43 %
4194 01-12-2019 03:00:17 -0.3 C 43 %
4195 01-12-2019 03:10:17 -0.3 C 43 %
4196 01-12-2019 03:20:17 -0.4 C 43 %
4197 01-12-2019 03:30:17 -0.4 C 43 %
4198 01-12-2019 03:40:17 -0.4 C 43 %
4199 01-12-2019 03:50:17 -0.4 C 43 %
4200 01-12-2019 04:00:17 -0.4 C 43 %
Sensor: Nr:Datum:Temp:Feuchte:
Aussen-T/F 4201 01-12-2019 04:10:17 -0.8 C 42 %
4202 01-12-2019 04:20:17 -1.1 C 42 %
4203 01-12-2019 04:30:17 -1.3 C 42 %
4204 01-12-2019 04:40:17 -0.9 C 43 %
4205 01-12-2019 04:50:17 -0.9 C 43 %
4206 01-12-2019 05:00:17 -0.7 C 43 %
4207 01-12-2019 05:10:17 -0.8 C 43 %
4208 01-12-2019 05:20:17 -0.9 C 43 %
4209 01-12-2019 05:30:17 -1.1 C 43 %
4210 01-12-2019 05:40:17 -1 C 43 %
4211 01-12-2019 05:50:17 -0.9 C 43 %
4212 01-12-2019 06:00:17 -1 C 43 %
4213 01-12-2019 06:10:17 -1.1 C 43 %
4214 01-12-2019 06:20:17 -1.3 C 43 %
4215 01-12-2019 06:30:17 -1 C 43 %
4216 01-12-2019 06:40:17 -0.9 C 43 %
4217 01-12-2019 06:50:17 -0.9 C 43 %
4218 01-12-2019 07:00:17 -0.8 C 43 %
4219 01-12-2019 07:10:17 -0.7 C 43 %
4220 01-12-2019 07:20:17 -0.5 C 43 %
4221 01-12-2019 07:30:17 -0.5 C 43 %
4222 01-12-2019 07:40:17 -0.3 C 43 %
4223 01-12-2019 07:50:17 -0.2 C 43 %
4224 01-12-2019 08:00:17 -0.1 C 43 %
4225 01-12-2019 08:10:17 -0.1 C 43 %
Sensor: Nr:Datum:Temp:Feuchte:
Aussen-T/F 4226 01-12-2019 08:20:17 -0.2 C 43 %
4227 01-12-2019 08:30:17 -0.2 C 43 %
4228 01-12-2019 08:40:17 -0.2 C 43 %
4229 01-12-2019 08:50:17 0 C 43 %
4230 01-12-2019 09:00:17 0 C 42 %
4231 01-12-2019 09:10:17 0.2 C 42 %
4232 01-12-2019 09:20:17 0.1 C 42 %
4233 01-12-2019 09:30:17 0.1 C 42 %
4234 01-12-2019 09:40:17 0.2 C 41 %
4235 01-12-2019 09:50:17 0.3 C 41 %
4236 01-12-2019 10:00:17 0.5 C 41 %
4237 01-12-2019 10:10:17 0.6 C 41 %
4238 01-12-2019 10:20:17 0.7 C 40 %
4239 01-12-2019 10:30:17 0.8 C 39 %
4240 01-12-2019 10:40:17 1 C 38 %
4241 01-12-2019 10:50:17 1.1 C 37 %
4242 01-12-2019 11:00:17 1.4 C 36 %
4243 01-12-2019 11:10:17 1.9 C 34 %
4244 01-12-2019 11:20:17 2.1 C 32 %
4245 01-12-2019 11:30:17 2.7 C 30 %
4246 01-12-2019 11:40:17 3 C 27 %
4247 01-12-2019 11:50:17 2.9 C 20 %
4248 01-12-2019 12:00:17 3 C 21 %
4249 01-12-2019 12:10:17 3.1 C 20 %
4250 01-12-2019 12:20:17 3.3 C 20 %
Sensor: Nr:Datum:Temp:Feuchte:
Aussen-T/F 4251 01-12-2019 12:30:18 3.3 C 20 %
4252 01-12-2019 12:40:18 3.3 C 20 %
4253 01-12-2019 12:50:18 3.4 C 20 %
4254 01-12-2019 13:00:17 3.3 C 20 %
4255 01-12-2019 13:10:17 3.4 C 20 %
4256 01-12-2019 13:20:18 3.5 C 20 %
4257 01-12-2019 13:30:18 3.5 C 20 %
4258 01-12-2019 13:40:18 3.6 C 20 %
4259 01-12-2019 13:50:17 3.8 C 20 %
4260 01-12-2019 14:00:17 3.9 C 20 %
4261 01-12-2019 14:10:18 3.9 C 20 %
4262 01-12-2019 14:20:18 3.7 C 20 %
4263 01-12-2019 14:30:17 3.7 C 20 %
4264 01-12-2019 14:40:17 3.6 C 20 %
4265 01-12-2019 14:50:17 3.6 C 20 %
4266 01-12-2019 15:00:17 3.5 C 20 %
4267 01-12-2019 15:10:17 3.3 C 20 %
4268 01-12-2019 15:20:17 3.2 C 21 %
4269 01-12-2019 15:30:17 3 C 20 %
4270 01-12-2019 15:40:17 3 C 21 %
4271 01-12-2019 15:50:17 2.7 C 25 %
4272 01-12-2019 16:00:17 2.6 C 25 %
4273 01-12-2019 16:10:17 2.5 C 25 %
4274 01-12-2019 16:20:17 2.4 C 25 %
4275 01-12-2019 16:30:18 2.4 C 25 %
Sensor: Nr:Datum:Temp:Feuchte:
Aussen-T/F 4276 01-12-2019 16:40:18 2.2 C 25 %
4277 01-12-2019 16:50:18 2.2 C 25 %
4278 01-12-2019 17:00:18 2.2 C 25 %
4279 01-12-2019 17:10:18 2.2 C 25 %
4280 01-12-2019 17:20:17 2.3 C 25 %
4281 01-12-2019 17:30:17 2.3 C 25 %
4282 01-12-2019 17:40:17 2.3 C 25 %
4283 01-12-2019 17:50:17 2.3 C 25 %
4284 01-12-2019 18:00:17 2.3 C 25 %
4285 01-12-2019 18:10:17 2.3 C 25 %
4286 01-12-2019 18:20:17 2.3 C 25 %
4287 01-12-2019 18:30:17 2.3 C 25 %
4288 01-12-2019 18:40:17 2.3 C 25 %
4289 01-12-2019 18:50:17 2.3 C 23 %
4290 01-12-2019 19:00:17 2.3 C 23 %
4291 01-12-2019 19:10:18 2.4 C 25 %
4292 01-12-2019 19:20:17 2.3 C 25 %
4293 01-12-2019 19:30:17 2.3 C 25 %
4294 01-12-2019 19:40:17 2.3 C 25 %
4295 01-12-2019 19:50:17 2.2 C 26 %
4296 01-12-2019 20:00:17 2.5 C 25 %
4297 01-12-2019 20:10:17 2.2 C 25 %
4298 01-12-2019 20:20:17 2.1 C 25 %
4299 01-12-2019 20:30:18 2.1 C 25 %
4300 01-12-2019 20:40:18 2.1 C 25 %
Sensor: Nr:Datum:Temp:Feuchte:
Aussen-T/F 4301 01-12-2019 20:50:17 2 C 27 %
4302 01-12-2019 21:00:17 1.9 C 27 %
4303 01-12-2019 21:10:17 1.8 C 28 %
4304 01-12-2019 21:20:17 1.6 C 30 %
4305 01-12-2019 21:30:18 1.5 C 29 %
4306 01-12-2019 21:40:18 1.6 C 28 %
4307 01-12-2019 21:50:17 1.6 C 28 %
4308 01-12-2019 22:00:17 1.5 C 29 %
4309 01-12-2019 22:10:17 1.4 C 29 %
4310 01-12-2019 22:20:17 1.4 C 30 %
4311 01-12-2019 22:30:18 1.3 C 28 %
4312 01-12-2019 22:40:18 1.2 C 29 %
4313 01-12-2019 22:50:17 1.1 C 29 %
4314 01-12-2019 23:00:17 0.8 C 30 %
4315 01-12-2019 23:10:17 0.8 C 30 %
4316 01-12-2019 23:20:18 0.7 C 30 %
4317 01-12-2019 23:30:17 0.5 C 32 %
4318 01-12-2019 23:40:17 0.3 C 33 %
4319 01-12-2019 23:50:17 0.2 C 33 %
4320 02-12-2019 00:00:17 0.1 C 33 %
4321 02-12-2019 00:10:17 0.2 C 33 %
4322 02-12-2019 00:20:17 0.3 C 32 %
4323 02-12-2019 00:30:17 0.3 C 32 %
4324 02-12-2019 00:40:17 0.2 C 32 %
4325 02-12-2019 00:50:18 0.2 C 35 %
Sensor: Nr:Datum:Temp:Feuchte:
Aussen-T/F 4326 02-12-2019 01:00:17 0.1 C 36 %
4327 02-12-2019 01:10:17 0 C 38 %
4328 02-12-2019 01:20:17 -0.2 C 36 %
4329 02-12-2019 01:30:17 0.2 C 34 %
4330 02-12-2019 01:40:17 -0.2 C 35 %
4331 02-12-2019 01:50:17 -0.9 C 35 %
4332 02-12-2019 02:00:18 -0.9 C 37 %
4333 02-12-2019 02:10:18 -0.9 C 37 %
4334 02-12-2019 02:20:17 -0.5 C 37 %
4335 02-12-2019 02:30:17 -1 C 36 %
4336 02-12-2019 02:40:17 -1.1 C 37 %
4337 02-12-2019 02:50:17 -1.1 C 36 %
4338 02-12-2019 03:00:17 -1 C 37 %
4339 02-12-2019 03:10:17 -1.2 C 38 %
4340 02-12-2019 03:20:17 -1.3 C 37 %
4341 02-12-2019 03:30:18 -1.3 C 38 %
4342 02-12-2019 03:40:18 -1.4 C 37 %
4343 02-12-2019 03:50:17 -1.4 C 37 %
4344 02-12-2019 04:00:18 -1.7 C 39 %
4345 02-12-2019 04:10:18 -1.4 C 40 %
4346 02-12-2019 04:20:17 -1.1 C 40 %
4347 02-12-2019 04:30:17 -1 C 40 %
4348 02-12-2019 04:40:17 -0.8 C 36 %
4349 02-12-2019 04:50:17 -1.1 C 37 %
4350 02-12-2019 05:00:17 -1.4 C 40 %
Sensor: Nr:Datum:Temp:Feuchte:
Aussen-T/F 4351 02-12-2019 05:10:17 -1.1 C 40 %
4352 02-12-2019 05:20:17 -1.2 C 39 %
4353 02-12-2019 05:30:17 -1.6 C 40 %
4354 02-12-2019 05:40:17 -1.4 C 41 %
4355 02-12-2019 05:50:17 -1.3 C 42 %
4356 02-12-2019 06:00:17 -1.2 C 41 %
4357 02-12-2019 06:10:17 -1.3 C 39 %
4358 02-12-2019 06:20:17 -1.2 C 39 %
4359 02-12-2019 06:30:17 -1.4 C 38 %
4360 02-12-2019 06:40:17 -1.4 C 40 %
4361 02-12-2019 06:50:17 -1.8 C 37 %
4362 02-12-2019 07:00:17 -2.4 C 38 %
4363 02-12-2019 07:10:17 -2.6 C 40 %
4364 02-12-2019 07:20:17 -2.9 C 40 %
4365 02-12-2019 07:30:17 -2.7 C 42 %
4366 02-12-2019 07:40:17 -2.6 C 42 %
4367 02-12-2019 07:50:17 -2.4 C 43 %
4368 02-12-2019 08:00:17 -1.9 C 45 %
4369 02-12-2019 08:10:18 -1.6 C 44 %
4370 02-12-2019 08:20:17 -1.3 C 44 %
4371 02-12-2019 08:30:17 -1 C 43 %
4372 02-12-2019 08:40:17 -0.7 C 43 %
4373 02-12-2019 08:50:17 -0.5 C 42 %
4374 02-12-2019 09:00:17 -0.5 C 40 %
4375 02-12-2019 09:10:17 -0.4 C 38 %
Sensor: Nr:Datum:Temp:Feuchte:
Aussen-T/F 4376 02-12-2019 09:20:17 -0.4 C 36 %
4377 02-12-2019 09:30:17 -0.4 C 36 %
4378 02-12-2019 09:40:17 0 C 36 %
4379 02-12-2019 09:50:17 0 C 35 %
4380 02-12-2019 10:00:17 0.1 C 35 %
4381 02-12-2019 10:10:17 0.1 C 34 %
4382 02-12-2019 10:20:17 0.2 C 35 %
4383 02-12-2019 10:30:17 0.5 C 36 %
4384 02-12-2019 10:40:17 1 C 31 %
4385 02-12-2019 10:50:17 0.8 C 31 %
4386 02-12-2019 11:00:17 1.2 C 30 %
4387 02-12-2019 11:10:17 1.1 C 30 %
4388 02-12-2019 11:20:17 1.2 C 30 %
4389 02-12-2019 11:30:17 0.9 C 31 %
4390 02-12-2019 11:40:18 1 C 31 %
4391 02-12-2019 11:50:17 0.8 C 32 %
4392 02-12-2019 12:00:18 1.6 C 31 %
4393 02-12-2019 12:10:18 2.3 C 27 %
4394 02-12-2019 12:20:17 2.8 C 25 %
4395 02-12-2019 12:30:17 3.1 C 26 %
4396 02-12-2019 12:40:17 3 C 25 %
4397 02-12-2019 12:50:18 3.2 C 26 %
4398 02-12-2019 13:00:17 3.2 C 26 %
4399 02-12-2019 13:10:17 3.5 C 25 %
4400 02-12-2019 13:20:17 3.9 C 25 %
Sensor: Nr:Datum:Temp:Feuchte:
Aussen-T/F 4401 02-12-2019 13:30:17 3.9 C 25 %
4402 02-12-2019 13:40:17 3.8 C 25 %
4403 02-12-2019 13:50:17 3.6 C 25 %
4404 02-12-2019 14:00:17 4 C 26 %
4405 02-12-2019 14:10:17 3.7 C 28 %
4406 02-12-2019 14:20:17 3.7 C 30 %
4407 02-12-2019 14:30:17 4.1 C 27 %
4408 02-12-2019 14:40:17 4.3 C 27 %
4409 02-12-2019 14:50:17 4.5 C 27 %
4410 02-12-2019 15:00:18 4.3 C 28 %
4411 02-12-2019 15:10:18 4.3 C 29 %
4412 02-12-2019 15:20:17 4.7 C 27 %
4413 02-12-2019 15:30:17 4.4 C 27 %
4414 02-12-2019 15:40:17 4.1 C 31 %
4415 02-12-2019 15:50:17 3.9 C 36 %
4416 02-12-2019 16:00:18 3.7 C 37 %
4417 02-12-2019 16:10:18 3.6 C 37 %
4418 02-12-2019 16:20:17 3.5 C 40 %
4419 02-12-2019 16:30:17 3.5 C 38 %
4420 02-12-2019 16:40:17 3.5 C 35 %
4421 02-12-2019 16:50:17 3.5 C 35 %
4422 02-12-2019 17:00:17 3.3 C 36 %
4423 02-12-2019 17:10:17 3.2 C 39 %
4424 02-12-2019 17:20:17 3.2 C 36 %
4425 02-12-2019 17:30:18 3.3 C 36 %
Sensor: Nr:Datum:Temp:Feuchte:
Aussen-T/F 4426 02-12-2019 17:40:18 3.4 C 35 %
4427 02-12-2019 17:50:17 3.3 C 35 %
4428 02-12-2019 18:01:17 3.1 C 36 %
4429 02-12-2019 18:11:17 3.2 C 37 %
4430 02-12-2019 18:21:17 3.2 C 36 %
4431 02-12-2019 18:30:17 3 C 36 %
4432 02-12-2019 18:40:17 2.5 C 40 %
4433 02-12-2019 18:50:17 2.2 C 40 %
4434 02-12-2019 19:00:17 2.1 C 42 %
4435 02-12-2019 19:10:17 2.7 C 43 %
4436 02-12-2019 19:21:17 2.7 C 42 %
4437 02-12-2019 19:30:17 2.7 C 41 %
4438 02-12-2019 19:40:17 2.9 C 42 %
4439 02-12-2019 19:51:17 2.9 C 42 %
4440 02-12-2019 20:01:17 2.9 C 39 %
4441 02-12-2019 20:11:17 2.8 C 38 %
4442 02-12-2019 20:21:17 2.9 C 37 %
4443 02-12-2019 20:31:17 2.9 C 38 %
4444 02-12-2019 20:40:17 2.8 C 40 %
4445 02-12-2019 20:51:17 2.7 C 42 %
4446 02-12-2019 21:00:17 2.7 C 42 %
4447 02-12-2019 21:10:17 2.7 C 42 %
4448 02-12-2019 21:21:17 2.7 C 42 %
4449 02-12-2019 21:30:18 2.7 C 42 %
4450 02-12-2019 21:40:18 2.6 C 41 %
Sensor: Nr:Datum:Temp:Feuchte:
Aussen-T/F 4451 02-12-2019 21:51:17 2.6 C 42 %
4452 02-12-2019 22:01:17 2.6 C 41 %
4453 02-12-2019 22:11:17 2.6 C 41 %
4454 02-12-2019 22:21:17 2.6 C 41 %
4455 02-12-2019 22:30:18 2.5 C 40 %
4456 02-12-2019 22:40:18 2.5 C 41 %
4457 02-12-2019 22:51:17 2.4 C 41 %
4458 02-12-2019 23:01:17 2.5 C 41 %
4459 02-12-2019 23:11:17 2.4 C 42 %
4460 02-12-2019 23:21:17 2.5 C 42 %
4461 02-12-2019 23:31:17 2.5 C 42 %
4462 02-12-2019 23:41:17 2.5 C 42 %
4463 02-12-2019 23:50:18 2.5 C 42 %
4464 03-12-2019 00:01:17 2.5 C 42 %
4465 03-12-2019 00:11:17 2.5 C 42 %
4466 03-12-2019 00:21:17 2.5 C 41 %
4467 03-12-2019 00:30:18 2.5 C 41 %
4468 03-12-2019 00:40:18 2.6 C 41 %
4469 03-12-2019 00:51:17 2.6 C 41 %
4470 03-12-2019 01:01:18 2.6 C 41 %
4471 03-12-2019 01:11:18 2.6 C 41 %
4472 03-12-2019 01:21:17 2.7 C 41 %
4473 03-12-2019 01:31:17 2.7 C 41 %
4474 03-12-2019 01:41:17 2.7 C 42 %
4475 03-12-2019 01:51:17 2.7 C 42 %
Sensor: Nr:Datum:Temp:Feuchte:
Aussen-T/F 4476 03-12-2019 02:01:17 2.7 C 42 %
4477 03-12-2019 02:11:17 2.8 C 42 %
4478 03-12-2019 02:21:17 2.8 C 42 %
4479 03-12-2019 02:31:17 2.8 C 42 %
4480 03-12-2019 02:41:17 2.9 C 42 %
4481 03-12-2019 02:51:17 2.8 C 42 %
4482 03-12-2019 03:01:17 2.8 C 42 %
4483 03-12-2019 03:11:17 2.8 C 42 %
4484 03-12-2019 03:21:17 2.8 C 42 %
4485 03-12-2019 03:31:17 2.9 C 42 %
4486 03-12-2019 03:41:17 3 C 42 %
4487 03-12-2019 03:51:17 3 C 42 %
4488 03-12-2019 04:01:17 3 C 42 %
4489 03-12-2019 04:11:17 3 C 42 %
4490 03-12-2019 04:21:17 3 C 42 %
4491 03-12-2019 04:31:17 3.1 C 42 %
4492 03-12-2019 04:41:17 3.1 C 42 %
4493 03-12-2019 04:51:17 3.1 C 42 %
4494 03-12-2019 05:01:17 3.1 C 42 %
4495 03-12-2019 05:11:17 3.1 C 42 %
4496 03-12-2019 05:21:17 3.1 C 42 %
4497 03-12-2019 05:31:17 3.2 C 42 %
4498 03-12-2019 05:41:17 3.2 C 41 %
4499 03-12-2019 05:51:17 3.2 C 41 %
4500 03-12-2019 06:01:18 3.2 C 41 %
Sensor: Nr:Datum:Temp:Feuchte:
Aussen-T/F 4501 03-12-2019 06:11:18 3.2 C 41 %
4502 03-12-2019 06:21:17 3.2 C 41 %
4503 03-12-2019 06:31:17 3.3 C 41 %
4504 03-12-2019 06:41:17 3.3 C 41 %
4505 03-12-2019 06:51:18 3.3 C 41 %
4506 03-12-2019 07:01:17 3.3 C 41 %
4507 03-12-2019 07:11:17 3.3 C 41 %
4508 03-12-2019 07:21:17 3.3 C 41 %
4509 03-12-2019 07:31:17 3.2 C 41 %
4510 03-12-2019 07:41:17 3.3 C 41 %
4511 03-12-2019 07:51:17 3.3 C 42 %
4512 03-12-2019 08:01:17 3.3 C 42 %
4513 03-12-2019 08:11:17 3.4 C 42 %
4514 03-12-2019 08:21:17 3.3 C 42 %
4515 03-12-2019 08:31:17 3.4 C 42 %
4516 03-12-2019 08:41:17 3.4 C 41 %
4517 03-12-2019 08:51:17 3.4 C 41 %
4518 03-12-2019 09:01:17 3.5 C 42 %
4519 03-12-2019 09:11:17 3.5 C 42 %
4520 03-12-2019 09:21:17 3.5 C 41 %
4521 03-12-2019 09:31:17 3.6 C 41 %
4522 03-12-2019 09:41:17 3.6 C 41 %
4523 03-12-2019 09:51:17 3.7 C 41 %
4524 03-12-2019 10:01:17 3.7 C 41 %
4525 03-12-2019 10:11:17 3.8 C 41 %
Sensor: Nr:Datum:Temp:Feuchte:
Aussen-T/F 4526 03-12-2019 10:21:17 3.8 C 41 %
4527 03-12-2019 10:31:17 3.8 C 41 %
4528 03-12-2019 10:41:17 4.1 C 40 %
4529 03-12-2019 10:51:17 4.1 C 40 %
4530 03-12-2019 11:01:18 4.3 C 39 %
4531 03-12-2019 11:11:18 4.3 C 37 %
4532 03-12-2019 11:21:17 4.4 C 37 %
4533 03-12-2019 11:31:17 4.6 C 37 %
4534 03-12-2019 11:41:17 4.6 C 37 %
4535 03-12-2019 11:51:17 4.7 C 37 %
4536 03-12-2019 12:01:17 4.7 C 37 %
4537 03-12-2019 12:11:17 4.9 C 35 %
4538 03-12-2019 12:21:17 5 C 34 %
4539 03-12-2019 12:31:17 5 C 35 %
4540 03-12-2019 12:41:17 5.2 C 35 %
4541 03-12-2019 12:51:18 5.3 C 34 %
4542 03-12-2019 13:01:17 5.6 C 34 %
4543 03-12-2019 13:11:17 5.8 C 33 %
4544 03-12-2019 13:21:17 5.8 C 32 %
4545 03-12-2019 13:31:17 5.7 C 32 %
4546 03-12-2019 13:41:17 5.9 C 32 %
4547 03-12-2019 13:51:18 6.1 C 31 %
4548 03-12-2019 14:01:17 6.1 C 31 %
4549 03-12-2019 14:11:17 6.2 C 31 %
4550 03-12-2019 14:21:17 6.1 C 31 %
Sensor: Nr:Datum:Temp:Feuchte:
Aussen-T/F 4551 03-12-2019 14:31:17 6.3 C 31 %
4552 03-12-2019 14:41:17 6.2 C 30 %
4553 03-12-2019 14:51:18 6.4 C 31 %
4554 03-12-2019 15:01:17 6.2 C 30 %
4555 03-12-2019 15:11:17 6.3 C 31 %
4556 03-12-2019 15:21:17 6.3 C 31 %
4557 03-12-2019 15:31:17 6.2 C 31 %
4558 03-12-2019 15:41:17 6.1 C 32 %
4559 03-12-2019 15:51:17 6 C 33 %
4560 03-12-2019 16:01:17 5.7 C 36 %
4561 03-12-2019 16:11:17 5.6 C 39 %
4562 03-12-2019 16:21:17 5.4 C 40 %
4563 03-12-2019 16:31:18 5.3 C 41 %
4564 03-12-2019 16:41:18 5.2 C 41 %
4565 03-12-2019 16:51:17 5.2 C 41 %
4566 03-12-2019 17:01:18 5.1 C 41 %
4567 03-12-2019 17:11:18 5.1 C 41 %
4568 03-12-2019 17:21:17 5.1 C 41 %
4569 03-12-2019 17:31:17 5 C 41 %
4570 03-12-2019 17:41:17 5 C 41 %
4571 03-12-2019 17:51:17 5 C 41 %
4572 03-12-2019 18:01:18 4.8 C 41 %
4573 03-12-2019 18:11:18 4.7 C 40 %
4574 03-12-2019 18:21:17 4.7 C 40 %
4575 03-12-2019 18:31:18 4.7 C 40 %
Sensor: Nr:Datum:Temp:Feuchte:
Aussen-T/F 4576 03-12-2019 18:41:18 4.7 C 40 %
4577 03-12-2019 18:51:17 4.7 C 40 %
4578 03-12-2019 19:01:17 4.7 C 40 %
4579 03-12-2019 19:11:17 4.6 C 39 %
4580 03-12-2019 19:21:17 4.6 C 38 %
4581 03-12-2019 19:31:17 4.6 C 38 %
4582 03-12-2019 19:41:17 4.4 C 37 %
4583 03-12-2019 19:51:17 4.3 C 38 %
4584 03-12-2019 20:01:17 4.3 C 39 %
4585 03-12-2019 20:11:17 4.3 C 38 %
4586 03-12-2019 20:21:18 4.2 C 37 %
4587 03-12-2019 20:31:17 4.2 C 38 %
4588 03-12-2019 20:41:18 4.1 C 39 %
4589 03-12-2019 20:51:17 3.9 C 40 %
4590 03-12-2019 21:01:17 3.9 C 41 %
4591 03-12-2019 21:11:17 4 C 40 %
4592 03-12-2019 21:21:17 4 C 40 %
4593 03-12-2019 21:31:17 3.8 C 40 %
4594 03-12-2019 21:41:17 3.5 C 40 %
4595 03-12-2019 21:51:17 3.3 C 40 %
4596 03-12-2019 22:01:17 2.9 C 41 %
4597 03-12-2019 22:11:17 2.8 C 42 %
4598 03-12-2019 22:21:18 2.8 C 42 %
4599 03-12-2019 22:31:18 3.3 C 42 %
4600 03-12-2019 22:41:18 3.5 C 40 %
Sensor: Nr:Datum:Temp:Feuchte:
Aussen-T/F 4601 03-12-2019 22:51:17 3.2 C 38 %
4602 03-12-2019 23:01:18 2.6 C 39 %
4603 03-12-2019 23:11:18 2.5 C 41 %
4604 03-12-2019 23:21:17 2.5 C 41 %
4605 03-12-2019 23:31:17 2.2 C 40 %
4606 03-12-2019 23:41:17 2.8 C 40 %
4607 03-12-2019 23:51:17 2.6 C 38 %
4608 04-12-2019 00:01:18 2.3 C 39 %
4609 04-12-2019 00:11:18 1.7 C 41 %
4610 04-12-2019 00:21:17 1.3 C 42 %
4611 04-12-2019 00:31:17 0.9 C 43 %
4612 04-12-2019 00:41:17 0.4 C 43 %
4613 04-12-2019 00:51:17 0.6 C 45 %
4614 04-12-2019 01:01:18 0.2 C 44 %
4615 04-12-2019 01:11:18 0.2 C 45 %
4616 04-12-2019 01:21:17 0 C 44 %
4617 04-12-2019 01:31:17 -0.1 C 45 %
4618 04-12-2019 01:41:17 0.1 C 45 %
4619 04-12-2019 01:51:18 -0.3 C 45 %
4620 04-12-2019 02:01:17 -0.3 C 45 %
4621 04-12-2019 02:11:17 -0.2 C 45 %
4622 04-12-2019 02:21:17 -0.5 C 45 %
4623 04-12-2019 02:31:18 -0.4 C 45 %
4624 04-12-2019 02:41:18 0.1 C 45 %
4625 04-12-2019 02:51:17 0.3 C 45 %
Sensor: Nr:Datum:Temp:Feuchte:
Aussen-T/F 4626 04-12-2019 03:01:18 0.6 C 45 %
4627 04-12-2019 03:11:18 0.9 C 45 %
4628 04-12-2019 03:21:17 0.9 C 45 %
4629 04-12-2019 03:31:17 1 C 44 %
4630 04-12-2019 03:41:17 1 C 44 %
4631 04-12-2019 03:51:17 1 C 44 %
4632 04-12-2019 04:01:18 0.8 C 45 %
4633 04-12-2019 04:11:18 0.9 C 45 %
4634 04-12-2019 04:21:17 0.8 C 45 %
4635 04-12-2019 04:31:17 0.8 C 45 %
4636 04-12-2019 04:41:17 0.8 C 45 %
4637 04-12-2019 04:51:17 0.8 C 45 %
4638 04-12-2019 05:01:17 0.8 C 45 %
4639 04-12-2019 05:11:17 0.8 C 44 %
4640 04-12-2019 05:21:17 0.8 C 44 %
4641 04-12-2019 05:31:17 1 C 43 %
4642 04-12-2019 05:41:17 1 C 43 %
4643 04-12-2019 05:51:18 1 C 43 %
4644 04-12-2019 06:01:17 1 C 43 %
4645 04-12-2019 06:11:17 1.1 C 43 %
4646 04-12-2019 06:21:17 1.2 C 43 %
4647 04-12-2019 06:31:17 1.2 C 43 %
4648 04-12-2019 06:41:18 1.2 C 43 %
4649 04-12-2019 06:51:17 1.2 C 43 %
4650 04-12-2019 07:01:17 1.1 C 43 %
Sensor: Nr:Datum:Temp:Feuchte:
Aussen-T/F 4651 04-12-2019 07:11:17 1.1 C 43 %
4652 04-12-2019 07:21:18 1.1 C 43 %
4653 04-12-2019 07:31:17 1 C 43 %
4654 04-12-2019 07:41:17 0.9 C 44 %
4655 04-12-2019 07:51:17 1 C 43 %
4656 04-12-2019 08:01:17 0.9 C 44 %
4657 04-12-2019 08:11:17 0.9 C 44 %
4658 04-12-2019 08:21:17 0.9 C 44 %
4659 04-12-2019 08:31:17 0.9 C 44 %
4660 04-12-2019 08:41:17 1 C 42 %
4661 04-12-2019 08:51:17 1 C 42 %
4662 04-12-2019 09:01:18 1 C 42 %
4663 04-12-2019 09:11:18 1.2 C 42 %
4664 04-12-2019 09:21:18 1.2 C 42 %
4665 04-12-2019 09:31:17 1.2 C 41 %
4666 04-12-2019 09:41:17 1.2 C 41 %
4667 04-12-2019 09:51:17 1.4 C 41 %
4668 04-12-2019 10:01:17 1.5 C 41 %
4669 04-12-2019 10:11:18 1.4 C 39 %
4670 04-12-2019 10:21:17 1.3 C 38 %
4671 04-12-2019 10:31:17 1.1 C 37 %
4672 04-12-2019 10:41:17 1.1 C 37 %
4673 04-12-2019 10:51:18 1 C 38 %
4674 04-12-2019 11:01:17 1 C 38 %
4675 04-12-2019 11:11:17 1.1 C 39 %
Sensor: Nr:Datum:Temp: